[[{"header":{"parameterUnit":"m.s-1","parameterCategory":1,"la1":31.0,"la2":29.5877,"lo1":-88.7671,"lo2":-86.6584,"dy":0.0162,"dx":0.0185,"nx":115,"ny":88,"refTime":"2024-05-20T06:00:00:Z","depth":0,"parameterNumber":2,"parameterNumberName":"U-component_of_WINDS"},"data":[0.0,0.0,0.0,0.0,0.0,0.0,0.0,0.0,0.0,0.0,0.0,0.0,0.0,0.0,0.0,0.0,0.0,0.0,0.0,0.0,0.0,0.0,0.0,0.0,0.0,0.0,0.0,0.0,0.0,0.0,0.0,0.0,0.0,0.0,0.0,0.0,0.0,0.0,0.0,0.0,0.0,0.0,0.0,0.0,0.0,0.0,0.0,0.0,0.0,0.0,0.0,0.0,0.0,0.0,0.0,0.0,0.0,0.0,0.0,0.0,0.0,0.0,0.0,0.0,0.0,0.0,0.0,0.0,0.0,0.0,0.0,0.0,0.0,0.0,0.0,0.0,0.0,0.0,0.0,0.0,0.0,0.0,0.0,0.0,0.0,0.0,0.0,0.0,0.0,0.0,0.0,0.0,0.0,0.0,0.0,0.0,0.0,0.0,0.0,0.0,0.0,0.0,0.0,0.0,0.0,0.0,0.0,0.0,0.0,0.0,0.0,0.0,0.0,0.0,0.0,0.0,0.0,0.0,0.0,0.0,0.0,0.0,0.0,0.0,0.0,0.0,0.0,0.0,0.0,0.0,0.0,0.0,0.0,0.0,0.0,0.0,0.0,0.0,0.0,0.0,0.0,0.0,0.0,0.0,0.0,0.0,0.0,0.0,0.0,0.0,0.0,0.0,0.0,0.0,0.0,0.0,0.0,0.0,0.0,0.0,0.0,0.0,0.0,0.0,0.0,0.0,0.0,0.0,0.0,0.0,0.0,0.0,0.0,0.0,0.0,0.0,0.0,0.0,0.0,0.0,0.0,0.0,0.0,0.0,0.0,0.0,0.0,0.0,0.0,0.0,0.0,0.0,0.0,0.0,0.0,0.0,0.0,0.0,0.0,0.0,0.0,0.0,0.0,0.0,0.0,0.0,0.0,0.0,0.0,0.0,0.0,0.0,0.0,0.0,0.0,0.0,0.0,0.0,0.0,0.0,0.0,0.0,0.0,0.0,0.0,0.0,0.0,0.0,0.0,0.0,0.0,0.0,0.0,0.0,0.0,0.0,0.0,0.0,0.0,0.0,0.0,0.0,0.0,0.0,0.0,0.0,0.0,0.0,0.0,0.0,0.0,0.0,0.0,0.0,0.0,0.0,0.0,0.0,0.0,0.0,0.0,0.0,0.0,0.0,0.0,0.0,0.0,0.0,0.0,0.0,0.0,0.0,0.0,0.0,0.0,0.0,0.0,0.0,0.0,0.0,0.0,0.0,0.0,0.0,0.0,0.0,0.0,0.0,0.0,0.0,0.0,0.0,0.0,0.0,0.0,0.0,0.0,0.0,0.0,0.0,0.0,0.0,0.0,0.0,0.0,0.0,0.0,0.0,0.0,0.0,0.0,0.0,0.0,0.0,0.0,0.0,0.0,0.0,0.0,0.0,0.0,0.0,0.0,0.0,0.0,0.0,0.0,0.0,0.0,0.0,0.0,0.0,0.0,0.0,0.0,0.0,0.0,0.0,0.0,0.0,0.0,0.0,0.0,0.0,0.0,0.0,0.0,0.0,0.0,0.0,0.0,0.0,0.0,0.0,0.0,0.0,0.0,0.0,0.0,0.0,0.0,0.0,0.0,0.0,0.0,0.0,0.0,0.0,0.0,0.0,0.0,0.0,0.0,0.0,0.0,0.0,0.0,0.0,0.0,0.0,0.0,0.0,0.0,0.0,0.0,0.0,0.0,0.0,0.0,0.0,0.0,0.0,0.0,0.0,0.0,0.0,0.0,0.0,0.0,0.0,0.0,0.0,0.0,0.0,0.0,0.0,0.0,0.0,0.0,0.0,0.0,0.0,0.0,0.0,0.0,0.0,0.0,0.0,0.0,0.0,0.0,0.0,0.0,0.0,0.0,0.0,0.0,0.0,0.0,0.0,0.0,0.0,0.0,0.0,0.0,0.0,0.0,0.0,0.0,0.0,0.0,0.0,0.0,0.0,0.0,0.0,0.0,0.0,0.0,0.0,0.0,0.0,0.0,0.0,0.0,0.0,0.0,0.0,0.0,0.0,0.0,0.0,0.0,0.0,0.0,0.0,0.0,0.0,0.0,0.0,0.0,0.0,0.0,0.0,0.0,0.0,0.0,0.0,0.0,0.0,0.0,0.0,0.0,0.0,0.0,0.0,0.0,0.0,0.0,0.0,0.0,0.0,0.0,0.0,0.0,0.0,0.0,0.0,0.0,0.0,0.0,0.0,0.0,0.0,0.0,0.0,0.0,0.0,0.0,0.0,0.0,0.0,0.0,0.0,0.0,0.0,0.0,0.0,0.0,0.0,0.0,0.0,0.0,0.0,0.0,0.0,0.0,0.0,0.0,0.0,0.0,0.0,0.0,0.0,0.0,0.0,0.0,0.0,0.0,0.0,0.0,0.0,0.0,0.0,0.0,0.0,0.0,0.0,0.0,0.0,0.0,0.0,0.0,0.0,0.0,0.0,0.0,0.0,0.0,0.0,0.0,0.0,0.0,0.0,0.0,0.0,0.0,0.0,0.0,0.0,0.0,0.0,0.0,0.0,0.0,0.0,0.0,0.0,0.0,0.0,0.0,0.0,0.0,0.0,0.0,0.0,0.0,0.0,0.0,0.0,0.0,0.0,0.0,0.0,0.0,0.0,0.0,0.0,0.0,0.0,0.0,0.0,0.0,0.0,0.0,0.0,0.0,0.0,0.0,0.0,0.0,0.0,0.0,0.0,0.0,0.0,0.0,0.0,0.0,0.0,0.0,0.0,0.0,0.0,0.0,0.0,0.0,0.0,0.0,0.0,0.0,0.0,0.0,0.0,0.0,0.0,0.0,0.0,0.0,0.0,0.0,0.0,0.0,0.0,0.0,0.0,0.0,0.0,0.0,0.0,0.0,0.0,0.0,0.0,0.0,0.0,0.0,0.0,0.0,0.0,0.0,0.0,0.0,0.0,0.0,0.0,0.0,0.0,0.0,0.0,0.0,0.0,0.0,0.0,0.0,0.0,0.0,0.0,0.0,0.0,0.0,0.0,0.0,0.0,0.0,0.0,0.0,0.0,0.0,0.0,0.0,0.0,0.0,0.0,0.0,0.0,0.0,0.0,0.0,0.0,0.0,0.0,0.0,0.0,0.0,0.0,0.0,0.0,0.0,0.0,0.0,0.0,0.0,0.0,0.0,0.0,0.0,0.0,0.0,0.0,0.0,0.0,0.0,0.0,0.0,0.0,0.0,0.0,0.0,0.0,0.0,0.0,0.0,0.0,0.0,0.0,0.0,0.0,0.0,0.0,0.0,0.0,0.0,0.0,0.0,0.0,0.0,0.0,0.0,0.0,0.0,0.0,0.0,0.0,0.0,0.0,0.0,0.0,0.0,0.0,0.0,0.0,0.0,0.0,0.0,0.0,0.0,0.0,0.0,0.0,0.0,0.0,0.0,0.0,0.0,0.0,0.0,0.0,0.0,0.0,0.0,0.0,0.0,0.0,0.0,0.0,0.0,0.0,0.0,0.0,0.0,0.0,0.0,0.0,0.0,0.0,0.0,0.0,0.0,0.0,0.0,0.0,0.0,0.0,0.0,0.0,0.0,0.0,0.0,0.0,0.0,0.0,0.0,0.0,0.0,0.0,0.0,0.0,0.0,0.0,0.0,0.0,0.0,0.0,0.0,0.0,0.0,0.0,0.0,0.0,0.0,0.0,0.0,0.0,0.0,0.0,0.0,0.0,0.0,0.0,0.0,0.0,0.0,0.0,0.0,0.0,0.0,0.0,0.0,0.0,0.0,0.0,0.0,0.0,0.0,0.0,0.0,0.0,0.0,0.0,0.0,0.0,0.0,0.0,0.0,0.0,0.0,0.0,0.0,0.0,0.0,0.0,0.0,0.0,0.0,0.0,0.0,0.0,0.0,0.0,0.0,0.0,0.0,0.0,0.0,0.0,0.0,0.0,0.0,0.0,0.0,0.0,0.0,0.0,0.0,0.0,0.0,0.0,0.0,0.0,0.0,0.0,0.0,0.0,0.0,0.0,0.0,0.0,0.0,0.0,0.0,0.0,0.0,0.0,0.0,0.0,0.0,0.0,0.0,0.0,0.0,0.0,0.0,0.0,0.0,0.0,0.0,0.0,0.0,0.0,0.0,0.0,0.0,0.0,0.0,0.0,0.0,0.0,0.0,0.0,0.0,0.0,0.0,0.0,0.0,0.0,0.0,0.0,0.0,0.0,0.0,0.0,0.0,0.0,0.0,0.0,0.0,0.0,0.0,0.0,0.0,0.0,0.0,0.0,0.0,0.0,-4.9339,0.0,0.0,0.0,0.0,0.0,0.0,0.0,0.0,0.0,0.0,0.0,0.0,0.0,0.0,0.0,0.0,0.0,0.0,0.0,0.0,0.0,0.0,0.0,0.0,0.0,0.0,0.0,0.0,0.0,0.0,0.0,0.0,0.0,0.0,0.0,0.0,0.0,0.0,0.0,0.0,0.0,0.0,0.0,0.0,0.0,0.0,0.0,0.0,0.0,0.0,0.0,0.0,0.0,0.0,0.0,0.0,0.0,0.0,0.0,0.0,0.0,0.0,0.0,0.0,0.0,0.0,0.0,0.0,0.0,0.0,0.0,0.0,0.0,0.0,0.0,0.0,0.0,0.0,0.0,0.0,0.0,0.0,0.0,0.0,0.0,0.0,0.0,0.0,0.0,0.0,0.0,0.0,0.0,0.0,0.0,0.0,0.0,0.0,0.0,0.0,0.0,0.0,0.0,0.0,0.0,0.0,0.0,0.0,0.0,0.0,-5.2935,-5.2841,-5.1472,-5.0426,-4.965,0.0,0.0,0.0,0.0,0.0,0.0,0.0,0.0,0.0,0.0,0.0,0.0,0.0,0.0,0.0,0.0,0.0,0.0,0.0,0.0,0.0,0.0,0.0,0.0,0.0,0.0,0.0,0.0,0.0,0.0,0.0,0.0,0.0,0.0,0.0,0.0,0.0,0.0,0.0,0.0,0.0,0.0,0.0,0.0,0.0,0.0,0.0,0.0,0.0,0.0,0.0,0.0,0.0,0.0,0.0,0.0,0.0,0.0,0.0,0.0,0.0,0.0,0.0,0.0,0.0,0.0,0.0,0.0,0.0,0.0,0.0,0.0,0.0,0.0,0.0,0.0,0.0,0.0,0.0,0.0,0.0,0.0,0.0,0.0,0.0,0.0,0.0,0.0,0.0,0.0,0.0,0.0,0.0,0.0,0.0,0.0,0.0,0.0,0.0,0.0,0.0,0.0,0.0,0.0,0.0,0.0,0.0,0.0,0.0,0.0,0.0,0.0,-5.2332,-5.0998,-4.9254,0.0,0.0,0.0,0.0,0.0,0.0,0.0,0.0,0.0,0.0,0.0,0.0,0.0,0.0,0.0,0.0,0.0,0.0,0.0,0.0,0.0,0.0,0.0,0.0,0.0,0.0,0.0,0.0,0.0,0.0,0.0,0.0,0.0,0.0,0.0,0.0,0.0,0.0,0.0,0.0,0.0,0.0,0.0,0.0,0.0,0.0,0.0,0.0,0.0,0.0,0.0,0.0,0.0,0.0,0.0,0.0,0.0,0.0,0.0,0.0,0.0,0.0,0.0,0.0,0.0,0.0,0.0,0.0,0.0,0.0,0.0,0.0,0.0,0.0,0.0,0.0,0.0,0.0,0.0,0.0,0.0,0.0,0.0,0.0,0.0,0.0,0.0,0.0,0.0,0.0,0.0,0.0,0.0,0.0,0.0,0.0,0.0,0.0,0.0,0.0,0.0,0.0,0.0,0.0,0.0,0.0,0.0,0.0,0.0,0.0,-5.5052,-5.4968,-5.3874,0.0,-4.8173,0.0,0.0,0.0,0.0,0.0,0.0,0.0,0.0,0.0,0.0,0.0,0.0,0.0,0.0,0.0,0.0,0.0,0.0,0.0,0.0,0.0,0.0,0.0,0.0,0.0,0.0,0.0,0.0,0.0,0.0,0.0,0.0,0.0,0.0,0.0,0.0,0.0,0.0,0.0,0.0,0.0,0.0,0.0,0.0,0.0,0.0,0.0,0.0,0.0,0.0,0.0,0.0,0.0,0.0,0.0,0.0,0.0,0.0,0.0,0.0,0.0,0.0,0.0,0.0,0.0,0.0,0.0,0.0,0.0,0.0,0.0,0.0,0.0,0.0,0.0,0.0,0.0,0.0,0.0,0.0,0.0,0.0,0.0,0.0,0.0,0.0,0.0,0.0,0.0,0.0,0.0,0.0,0.0,0.0,0.0,0.0,0.0,0.0,0.0,0.0,0.0,0.0,0.0,0.0,0.0,0.0,0.0,0.0,0.0,0.0,-5.5216,-5.5149,-5.3452,-5.1048,0.0,0.0,0.0,0.0,0.0,0.0,0.0,0.0,0.0,0.0,0.0,0.0,0.0,0.0,0.0,0.0,0.0,0.0,0.0,0.0,0.0,0.0,0.0,0.0,0.0,0.0,0.0,0.0,0.0,0.0,0.0,0.0,0.0,0.0,0.0,0.0,0.0,0.0,0.0,0.0,0.0,0.0,0.0,0.0,0.0,0.0,0.0,0.0,0.0,0.0,0.0,0.0,0.0,0.0,0.0,0.0,0.0,0.0,0.0,0.0,0.0,0.0,0.0,0.0,0.0,0.0,0.0,0.0,0.0,0.0,0.0,0.0,0.0,0.0,0.0,0.0,0.0,0.0,0.0,0.0,0.0,0.0,0.0,0.0,0.0,0.0,0.0,0.0,0.0,0.0,0.0,0.0,0.0,0.0,0.0,0.0,0.0,0.0,0.0,0.0,0.0,0.0,0.0,0.0,0.0,0.0,0.0,0.0,0.0,0.0,-5.5126,-5.5492,-5.5242,-5.311,-5.0661,-4.8142,0.0,0.0,0.0,0.0,0.0,0.0,0.0,0.0,0.0,0.0,0.0,0.0,0.0,0.0,0.0,0.0,0.0,0.0,0.0,0.0,0.0,0.0,0.0,0.0,0.0,0.0,0.0,0.0,0.0,0.0,0.0,0.0,0.0,0.0,0.0,0.0,0.0,0.0,0.0,0.0,0.0,0.0,0.0,0.0,0.0,0.0,0.0,0.0,0.0,0.0,0.0,0.0,0.0,0.0,0.0,0.0,0.0,0.0,0.0,0.0,0.0,0.0,0.0,0.0,0.0,0.0,0.0,0.0,0.0,0.0,0.0,0.0,0.0,0.0,0.0,0.0,0.0,0.0,0.0,0.0,0.0,0.0,0.0,0.0,0.0,0.0,0.0,0.0,0.0,0.0,0.0,0.0,0.0,0.0,0.0,0.0,0.0,0.0,0.0,0.0,0.0,0.0,0.0,0.0,0.0,0.0,0.0,0.0,-5.5069,-5.5965,-5.6259,-5.5904,-5.3271,-5.091,0.0,0.0,0.0,0.0,0.0,0.0,0.0,0.0,0.0,0.0,0.0,0.0,0.0,0.0,0.0,0.0,0.0,0.0,0.0,0.0,0.0,0.0,0.0,0.0,0.0,0.0,0.0,0.0,0.0,0.0,0.0,0.0,0.0,0.0,0.0,0.0,0.0,0.0,0.0,0.0,0.0,0.0,0.0,0.0,0.0,0.0,0.0,0.0,0.0,0.0,0.0,0.0,0.0,0.0,0.0,0.0,0.0,0.0,0.0,0.0,0.0,0.0,0.0,0.0,0.0,0.0,0.0,0.0,0.0,0.0,0.0,0.0,0.0,0.0,0.0,0.0,0.0,0.0,0.0,0.0,0.0,0.0,0.0,0.0,0.0,0.0,0.0,0.0,0.0,0.0,0.0,0.0,0.0,0.0,0.0,0.0,0.0,0.0,0.0,0.0,0.0,0.0,0.0,0.0,0.0,0.0,0.0,0.0,0.0,-5.4267,-5.5061,-5.5318,-5.4977,-5.2942,-5.0877,0.0,0.0,0.0,0.0,0.0,0.0,0.0,0.0,0.0,0.0,0.0,0.0,0.0,0.0,0.0,0.0,0.0,0.0,0.0,0.0,0.0,0.0,0.0,0.0,0.0,0.0,0.0,0.0,0.0,0.0,0.0,0.0,0.0,0.0,0.0,0.0,0.0,0.0,0.0,0.0,0.0,0.0,0.0,0.0,0.0,0.0,0.0,0.0,0.0,0.0,0.0,0.0,0.0,0.0,0.0,0.0,0.0,0.0,0.0,0.0,0.0,0.0,0.0,0.0,0.0,0.0,0.0,0.0,0.0,0.0,0.0,0.0,0.0,0.0,0.0,0.0,0.0,0.0,0.0,0.0,0.0,0.0,0.0,0.0,0.0,0.0,0.0,0.0,0.0,0.0,0.0,0.0,0.0,0.0,0.0,0.0,0.0,0.0,0.0,0.0,0.0,0.0,0.0,0.0,0.0,0.0,0.0,0.0,0.0,-5.4544,0.0,-5.4878,-5.4842,-5.2805,-5.0791,0.0,0.0,0.0,0.0,0.0,0.0,0.0,0.0,0.0,0.0,0.0,0.0,0.0,0.0,0.0,0.0,0.0,0.0,0.0,0.0,0.0,0.0,0.0,0.0,0.0,0.0,0.0,0.0,0.0,0.0,0.0,0.0,0.0,0.0,0.0,0.0,0.0,0.0,0.0,0.0,0.0,0.0,0.0,0.0,0.0,0.0,0.0,0.0,0.0,0.0,0.0,0.0,0.0,0.0,0.0,0.0,0.0,0.0,0.0,0.0,0.0,0.0,0.0,0.0,0.0,0.0,0.0,0.0,0.0,0.0,0.0,0.0,0.0,0.0,0.0,0.0,0.0,0.0,0.0,0.0,0.0,0.0,0.0,0.0,0.0,0.0,0.0,0.0,0.0,0.0,0.0,0.0,0.0,0.0,0.0,0.0,0.0,0.0,0.0,0.0,0.0,0.0,0.0,0.0,0.0,0.0,0.0,0.0,-5.3637,-5.6067,-5.5292,-5.5044,-5.5595,-5.2947,-5.0652,0.0,0.0,0.0,0.0,0.0,0.0,0.0,0.0,0.0,0.0,0.0,0.0,0.0,0.0,0.0,0.0,0.0,0.0,0.0,0.0,0.0,0.0,0.0,0.0,0.0,0.0,0.0,0.0,0.0,0.0,0.0,0.0,0.0,0.0,0.0,0.0,0.0,0.0,0.0,0.0,0.0,0.0,0.0,0.0,0.0,0.0,0.0,0.0,0.0,0.0,0.0,0.0,0.0,0.0,0.0,0.0,0.0,0.0,0.0,0.0,0.0,0.0,0.0,0.0,0.0,0.0,0.0,0.0,0.0,0.0,0.0,0.0,0.0,0.0,0.0,0.0,0.0,0.0,0.0,0.0,0.0,0.0,0.0,0.0,0.0,0.0,0.0,0.0,0.0,0.0,0.0,0.0,0.0,0.0,0.0,0.0,0.0,0.0,0.0,0.0,0.0,0.0,0.0,0.0,0.0,0.0,0.0,0.0,0.0,-5.5163,-5.4789,-5.4552,-5.4601,-5.2562,-5.0581,0.0,0.0,0.0,0.0,0.0,0.0,0.0,0.0,0.0,0.0,0.0,0.0,0.0,0.0,0.0,0.0,0.0,0.0,0.0,0.0,0.0,0.0,0.0,0.0,0.0,0.0,0.0,0.0,0.0,0.0,0.0,0.0,0.0,0.0,0.0,0.0,0.0,0.0,0.0,0.0,0.0,0.0,0.0,0.0,0.0,0.0,0.0,0.0,0.0,0.0,0.0,0.0,0.0,0.0,0.0,0.0,0.0,0.0,0.0,0.0,0.0,0.0,0.0,0.0,0.0,0.0,0.0,0.0,0.0,0.0,0.0,0.0,0.0,0.0,0.0,0.0,0.0,0.0,0.0,0.0,0.0,0.0,0.0,0.0,0.0,0.0,0.0,0.0,0.0,0.0,0.0,0.0,0.0,0.0,0.0,0.0,0.0,0.0,0.0,0.0,0.0,0.0,0.0,0.0,0.0,0.0,0.0,0.0,0.0,-5.4361,-5.4424,-5.4287,-5.4054,-5.2289,-5.0602,-4.9086,0.0,0.0,0.0,0.0,0.0,0.0,0.0,0.0,0.0,0.0,0.0,0.0,0.0,0.0,0.0,0.0,0.0,0.0,0.0,0.0,0.0,0.0,0.0,0.0,0.0,0.0,0.0,0.0,0.0,0.0,0.0,0.0,0.0,0.0,0.0,0.0,0.0,0.0,0.0,0.0,0.0,0.0,0.0,0.0,0.0,0.0,0.0,0.0,0.0,0.0,0.0,0.0,0.0,0.0,0.0,0.0,0.0,0.0,0.0,0.0,0.0,0.0,0.0,0.0,0.0,0.0,0.0,0.0,0.0,0.0,0.0,0.0,0.0,0.0,0.0,0.0,0.0,0.0,0.0,0.0,0.0,0.0,0.0,0.0,0.0,0.0,0.0,0.0,0.0,0.0,0.0,0.0,0.0,0.0,0.0,0.0,0.0,0.0,0.0,0.0,0.0,0.0,0.0,0.0,0.0,0.0,0.0,0.0,-5.387,-5.4198,-5.4181,-5.3794,-5.2084,-5.0712,0.0,0.0,0.0,0.0,0.0,0.0,0.0,0.0,0.0,0.0,0.0,0.0,0.0,0.0,0.0,0.0,0.0,0.0,0.0,0.0,0.0,0.0,0.0,0.0,0.0,0.0,0.0,0.0,0.0,0.0,0.0,0.0,0.0,0.0,0.0,0.0,0.0,0.0,0.0,0.0,0.0,0.0,0.0,0.0,0.0,0.0,0.0,0.0,0.0,0.0,0.0,0.0,0.0,0.0,0.0,0.0,0.0,0.0,0.0,0.0,0.0,0.0,0.0,0.0,0.0,0.0,0.0,0.0,0.0,0.0,0.0,0.0,0.0,0.0,0.0,0.0,0.0,0.0,0.0,0.0,0.0,0.0,0.0,0.0,0.0,0.0,0.0,0.0,0.0,0.0,0.0,0.0,0.0,0.0,0.0,0.0,0.0,0.0,0.0,0.0,0.0,0.0,0.0,0.0,0.0,0.0,0.0,0.0,0.0,-5.3739,-5.3832,-5.3757,-5.3604,-5.1931,-5.0578,0.0,0.0,0.0,0.0,0.0,0.0,0.0,0.0,0.0,0.0,0.0,0.0,0.0,0.0,0.0,0.0,0.0,0.0,0.0,0.0,0.0,0.0,0.0,0.0,0.0,0.0,0.0,0.0,0.0,0.0,0.0,0.0,0.0,0.0,0.0,0.0,0.0,0.0,0.0,0.0,0.0,0.0,0.0,0.0,0.0,0.0,0.0,0.0,0.0,0.0,0.0,0.0,0.0,0.0,0.0,0.0,0.0,0.0,0.0,0.0,0.0,0.0,0.0,0.0,0.0,0.0,0.0,0.0,0.0,0.0,0.0,0.0,0.0,0.0,0.0,0.0,0.0,0.0,0.0,0.0,0.0,0.0,0.0,0.0,0.0,0.0,0.0,0.0,0.0,0.0,0.0,0.0,0.0,0.0,0.0,0.0,0.0,0.0,0.0,0.0,0.0,0.0,0.0,0.0,0.0,0.0,0.0,0.0,-5.2066,-5.3563,-5.3522,-5.3444,-5.3422,-5.2145,-5.1015,0.0,0.0,0.0,0.0,0.0,0.0,0.0,0.0,0.0,0.0,0.0,0.0,0.0,0.0,0.0,0.0,0.0,0.0,0.0,0.0,0.0,0.0,0.0,0.0,0.0,0.0,0.0,0.0,0.0,0.0,0.0,0.0,0.0,0.0,0.0,0.0,0.0,0.0,0.0,0.0,0.0,0.0,0.0,0.0,0.0,0.0,0.0,0.0,0.0,0.0,0.0,0.0,0.0,0.0,0.0,0.0,0.0,0.0,0.0,0.0,0.0,0.0,0.0,0.0,0.0,0.0,0.0,0.0,0.0,0.0,0.0,0.0,0.0,0.0,0.0,0.0,0.0,0.0,0.0,0.0,0.0,0.0,0.0,0.0,0.0,0.0,0.0,0.0,0.0,0.0,0.0,0.0,0.0,0.0,0.0,0.0,0.0,0.0,0.0,0.0,0.0,0.0,0.0,0.0,0.0,0.0,0.0,0.0,-5.1815,-5.3263,-5.3279,-5.3254,-5.317,-5.2484,-5.1695,0.0,0.0,0.0,0.0,0.0,0.0,0.0,0.0,0.0,0.0,0.0,0.0,0.0,0.0,0.0,0.0,0.0,0.0,0.0,0.0,0.0,0.0,0.0,0.0,0.0,0.0,0.0,0.0,0.0,0.0,0.0,0.0,0.0,0.0,0.0,0.0,0.0,0.0,0.0,0.0,0.0,0.0,0.0,0.0,0.0,0.0,0.0,0.0,0.0,0.0,0.0,0.0,0.0,0.0,0.0,0.0,0.0,0.0,0.0,0.0,0.0,0.0,0.0,0.0,0.0,0.0,0.0,0.0,0.0,0.0,0.0,0.0,0.0,0.0,0.0,0.0,0.0,0.0,0.0,0.0,0.0,0.0,0.0,0.0,0.0,0.0,0.0,0.0,0.0,0.0,0.0,0.0,0.0,0.0,0.0,0.0,0.0,0.0,0.0,0.0,0.0,0.0,0.0,0.0,0.0,0.0,0.0,0.0,-5.1698,-5.3224,-5.3233,-5.3227,-5.3185,-5.242,-5.163,0.0,0.0,0.0,0.0,0.0,0.0,0.0,0.0,0.0,0.0,0.0,0.0,0.0,0.0,0.0,0.0,0.0,0.0,0.0,0.0,0.0,0.0,0.0,0.0,0.0,0.0,0.0,0.0,0.0,0.0,0.0,0.0,0.0,0.0,0.0,0.0,0.0,0.0,0.0,0.0,0.0,0.0,0.0,0.0,0.0,0.0,0.0,0.0,-5.049,0.0,0.0,0.0,0.0,0.0,0.0,0.0,0.0,0.0,0.0,0.0,0.0,0.0,0.0,0.0,0.0,0.0,0.0,0.0,0.0,0.0,0.0,0.0,0.0,0.0,0.0,0.0,0.0,0.0,0.0,0.0,0.0,0.0,0.0,0.0,0.0,0.0,0.0,0.0,0.0,0.0,0.0,0.0,0.0,0.0,0.0,0.0,0.0,0.0,0.0,0.0,0.0,0.0,0.0,0.0,0.0,0.0,0.0,0.0,-5.1636,-5.3198,-5.3227,-5.3185,-5.3167,-5.2417,-5.1628,0.0,0.0,0.0,0.0,0.0,0.0,0.0,0.0,0.0,0.0,0.0,0.0,0.0,0.0,0.0,0.0,0.0,0.0,0.0,0.0,0.0,0.0,0.0,0.0,0.0,0.0,0.0,0.0,0.0,0.0,0.0,0.0,0.0,0.0,0.0,0.0,0.0,0.0,0.0,0.0,0.0,0.0,0.0,0.0,0.0,0.0,0.0,0.0,0.0,0.0,0.0,0.0,0.0,0.0,0.0,0.0,0.0,0.0,0.0,0.0,0.0,0.0,0.0,0.0,0.0,0.0,0.0,0.0,0.0,0.0,0.0,0.0,0.0,0.0,0.0,0.0,0.0,0.0,0.0,0.0,0.0,0.0,0.0,0.0,0.0,0.0,0.0,0.0,0.0,0.0,0.0,0.0,0.0,0.0,0.0,0.0,0.0,0.0,0.0,0.0,0.0,0.0,0.0,0.0,0.0,0.0,0.0,-5.0747,-5.1536,-5.2928,-5.3023,-5.3002,-5.3023,-5.2123,-5.1298,-5.0618,0.0,0.0,0.0,0.0,0.0,0.0,0.0,0.0,0.0,0.0,0.0,0.0,0.0,0.0,0.0,0.0,0.0,0.0,0.0,0.0,0.0,0.0,0.0,0.0,0.0,0.0,0.0,0.0,0.0,0.0,0.0,0.0,0.0,0.0,0.0,0.0,0.0,0.0,-4.6049,-4.8197,0.0,0.0,0.0,0.0,0.0,0.0,0.0,0.0,-5.161,0.0,0.0,0.0,0.0,0.0,0.0,0.0,0.0,0.0,0.0,0.0,0.0,0.0,0.0,0.0,0.0,0.0,0.0,0.0,0.0,0.0,0.0,0.0,0.0,0.0,0.0,0.0,0.0,0.0,0.0,0.0,0.0,0.0,0.0,0.0,0.0,0.0,0.0,0.0,0.0,0.0,0.0,0.0,0.0,0.0,0.0,0.0,0.0,0.0,0.0,0.0,0.0,0.0,0.0,0.0,0.0,-4.9757,-5.0453,-5.1261,-5.216,-5.2197,-5.2197,-5.216,-5.0765,-4.9941,-4.9739,0.0,0.0,0.0,0.0,0.0,0.0,0.0,0.0,0.0,0.0,0.0,0.0,0.0,0.0,0.0,0.0,0.0,0.0,0.0,0.0,0.0,0.0,0.0,0.0,0.0,0.0,0.0,0.0,0.0,0.0,0.0,0.0,0.0,0.0,0.0,0.0,0.0,0.0,0.0,-4.8875,-5.0143,0.0,0.0,0.0,0.0,0.0,0.0,0.0,0.0,-5.2504,0.0,0.0,0.0,0.0,0.0,0.0,0.0,0.0,0.0,0.0,0.0,0.0,0.0,0.0,0.0,0.0,0.0,0.0,0.0,0.0,0.0,0.0,0.0,0.0,0.0,0.0,0.0,0.0,0.0,0.0,0.0,0.0,0.0,0.0,0.0,0.0,0.0,0.0,0.0,0.0,0.0,0.0,0.0,0.0,0.0,0.0,0.0,0.0,0.0,0.0,0.0,0.0,0.0,0.0,0.0,-4.8857,-4.9738,-5.0563,-5.1334,-5.1371,-5.1371,-5.1353,-5.0235,-4.937,0.0,0.0,0.0,0.0,0.0,0.0,0.0,0.0,0.0,0.0,0.0,0.0,0.0,0.0,0.0,0.0,0.0,0.0,0.0,0.0,0.0,0.0,0.0,0.0,0.0,0.0,0.0,0.0,0.0,0.0,0.0,0.0,0.0,0.0,0.0,0.0,0.0,0.0,0.0,0.0,-4.9682,-5.0802,-5.2399,0.0,0.0,0.0,0.0,0.0,0.0,-5.2995,-5.2809,0.0,0.0,0.0,0.0,0.0,0.0,0.0,0.0,0.0,0.0,0.0,0.0,0.0,0.0,0.0,0.0,0.0,0.0,0.0,0.0,0.0,0.0,0.0,0.0,0.0,0.0,0.0,0.0,0.0,0.0,0.0,0.0,0.0,0.0,0.0,0.0,0.0,0.0,0.0,0.0,0.0,0.0,0.0,0.0,0.0,0.0,0.0,0.0,0.0,0.0,0.0,0.0,0.0,0.0,0.0,-4.8049,-4.9058,-4.9903,-5.0527,-5.0563,-5.0563,-5.0545,-4.9609,-4.8765,0.0,0.0,0.0,0.0,0.0,0.0,0.0,0.0,0.0,0.0,0.0,0.0,0.0,0.0,0.0,0.0,0.0,0.0,0.0,0.0,0.0,0.0,0.0,0.0,0.0,0.0,0.0,0.0,0.0,0.0,0.0,0.0,0.0,0.0,0.0,0.0,0.0,0.0,0.0,0.0,0.0,-5.1369,-5.2926,-5.3164,0.0,0.0,0.0,0.0,-5.2824,-5.2806,0.0,0.0,0.0,0.0,0.0,0.0,0.0,0.0,0.0,0.0,0.0,0.0,0.0,0.0,0.0,0.0,0.0,0.0,0.0,0.0,0.0,0.0,0.0,0.0,0.0,0.0,0.0,0.0,0.0,0.0,0.0,0.0,0.0,0.0,0.0,0.0,0.0,0.0,0.0,0.0,0.0,0.0,0.0,0.0,0.0,0.0,0.0,0.0,0.0,0.0,0.0,0.0,0.0,0.0,0.0,0.0,-4.7259,-4.8783,-4.9647,-4.9757,-4.9757,-4.9757,-4.9739,-4.8214,-4.7351,0.0,0.0,0.0,0.0,0.0,0.0,0.0,0.0,0.0,0.0,0.0,0.0,0.0,0.0,0.0,0.0,0.0,0.0,0.0,0.0,0.0,0.0,0.0,0.0,0.0,0.0,0.0,0.0,0.0,0.0,0.0,0.0,0.0,0.0,0.0,0.0,0.0,0.0,0.0,0.0,0.0,-5.133,-5.2822,-5.302,-5.2977,0.0,0.0,-5.2806,-5.2806,-5.2806,0.0,0.0,0.0,0.0,0.0,0.0,0.0,0.0,0.0,0.0,0.0,0.0,0.0,0.0,0.0,0.0,0.0,0.0,0.0,0.0,0.0,0.0,0.0,0.0,0.0,0.0,0.0,0.0,0.0,0.0,0.0,0.0,0.0,0.0,0.0,0.0,0.0,0.0,0.0,0.0,0.0,0.0,0.0,0.0,0.0,0.0,0.0,0.0,0.0,0.0,0.0,0.0,0.0,0.0,0.0,-4.6194,-4.6562,-4.8087,-4.8857,-4.8857,-4.8857,-4.8857,-4.8838,-4.77,-4.6892,0.0,0.0,0.0,0.0,0.0,0.0,0.0,0.0,0.0,0.0,0.0,0.0,0.0,0.0,0.0,0.0,0.0,0.0,0.0,0.0,0.0,0.0,0.0,0.0,0.0,0.0,0.0,0.0,0.0,0.0,0.0,0.0,0.0,0.0,0.0,0.0,0.0,0.0,0.0,0.0,0.0,0.0,-5.2761,-5.2934,0.0,0.0,0.0,-5.2672,-5.2622,0.0,0.0,0.0,0.0,0.0,0.0,0.0,0.0,0.0,0.0,0.0,0.0,0.0,0.0,0.0,0.0,0.0,0.0,0.0,0.0,0.0,0.0,0.0,0.0,0.0,0.0,0.0,0.0,0.0,0.0,0.0,0.0,0.0,0.0,0.0,0.0,0.0,0.0,0.0,0.0,0.0,0.0,0.0,0.0,0.0,0.0,0.0,0.0,0.0,0.0,0.0,0.0,0.0,0.0,0.0,0.0,0.0,-4.6136,-4.7408,-4.8142,-4.8344,-4.8306,-4.8195,-4.7993,-4.7223,0.0,0.0,0.0,0.0,0.0,0.0,0.0,0.0,0.0,0.0,0.0,0.0,0.0,0.0,0.0,0.0,0.0,0.0,0.0,0.0,0.0,0.0,0.0,0.0,0.0,0.0,0.0,-3.6629,0.0,0.0,0.0,0.0,0.0,0.0,0.0,0.0,0.0,0.0,0.0,0.0,0.0,0.0,-5.1127,-5.2674,-5.2828,-5.2717,0.0,0.0,-5.2559,-5.2521,-5.2498,-5.2281,0.0,0.0,0.0,0.0,0.0,0.0,0.0,0.0,0.0,0.0,0.0,0.0,0.0,0.0,0.0,0.0,0.0,0.0,0.0,0.0,0.0,0.0,0.0,0.0,0.0,0.0,0.0,0.0,0.0,0.0,0.0,0.0,0.0,0.0,0.0,0.0,0.0,0.0,0.0,0.0,0.0,0.0,0.0,0.0,0.0,0.0,0.0,0.0,0.0,0.0,0.0,0.0,0.0,0.0,-4.4692,-4.6169,-4.6984,-4.7739,-4.8439,-4.8363,-4.7939,-4.7204,-4.6416,-4.5259,0.0,0.0,0.0,0.0,0.0,0.0,0.0,0.0,0.0,0.0,0.0,0.0,0.0,0.0,0.0,0.0,0.0,0.0,0.0,0.0,0.0,0.0,0.0,0.0,0.0,0.0,0.0,0.0,0.0,0.0,0.0,0.0,0.0,0.0,0.0,0.0,0.0,0.0,0.0,0.0,0.0,-5.0939,-5.2417,-5.2631,-5.2604,0.0,-5.2521,-5.2503,-5.248,-5.2498,-5.248,-5.2426,0.0,0.0,0.0,0.0,0.0,0.0,0.0,0.0,0.0,0.0,0.0,0.0,0.0,0.0,0.0,0.0,0.0,0.0,0.0,0.0,0.0,0.0,0.0,0.0,0.0,0.0,0.0,0.0,0.0,0.0,0.0,0.0,0.0,0.0,0.0,0.0,0.0,0.0,0.0,0.0,0.0,0.0,0.0,0.0,0.0,0.0,0.0,0.0,0.0,0.0,0.0,0.0,0.0,-4.4455,-4.5514,-4.6741,-4.7517,-4.7831,-4.82,-4.8052,-4.7243,-4.636,-4.5131,0.0,0.0,0.0,0.0,0.0,0.0,0.0,0.0,0.0,0.0,0.0,0.0,0.0,0.0,0.0,0.0,0.0,0.0,0.0,0.0,0.0,0.0,0.0,0.0,0.0,0.0,0.0,0.0,-3.8672,-3.9652,-4.0936,0.0,0.0,0.0,0.0,0.0,0.0,0.0,0.0,0.0,0.0,-5.0835,-5.2372,-5.2581,0.0,0.0,-5.2498,-5.2498,-5.2498,-5.2498,-5.2317,-5.1828,-5.1484,0.0,0.0,0.0,0.0,0.0,0.0,0.0,0.0,0.0,0.0,0.0,0.0,0.0,0.0,0.0,0.0,0.0,0.0,0.0,0.0,0.0,0.0,0.0,0.0,0.0,0.0,0.0,0.0,0.0,0.0,0.0,0.0,0.0,0.0,0.0,0.0,0.0,0.0,0.0,0.0,0.0,0.0,0.0,0.0,0.0,0.0,0.0,0.0,0.0,0.0,0.0,0.0,-4.3915,-4.5164,-4.6197,-4.6959,-4.7458,-4.7702,-4.7537,-4.6984,-4.6102,-4.476,0.0,0.0,0.0,0.0,0.0,0.0,0.0,0.0,0.0,0.0,0.0,0.0,0.0,0.0,0.0,0.0,0.0,0.0,0.0,0.0,0.0,0.0,0.0,0.0,0.0,0.0,0.0,0.0,-3.9196,-4.0306,-4.1005,0.0,0.0,0.0,0.0,0.0,0.0,0.0,0.0,0.0,0.0,-5.0675,-5.2018,-5.2368,-5.2498,-5.2498,-5.2498,-5.2498,-5.2498,-5.2498,-5.2299,-5.1737,0.0,0.0,0.0,0.0,0.0,0.0,0.0,0.0,0.0,0.0,0.0,0.0,0.0,0.0,0.0,0.0,0.0,0.0,0.0,0.0,0.0,0.0,0.0,0.0,0.0,0.0,0.0,0.0,0.0,0.0,-4.3085,0.0,0.0,0.0,0.0,0.0,0.0,0.0,0.0,0.0,0.0,0.0,0.0,0.0,0.0,0.0,0.0,0.0,0.0,0.0,0.0,0.0,0.0,-4.2977,-4.5323,-4.5257,-4.5971,-4.7453,-4.672,-4.628,-4.6205,-4.5448,-4.3878,-4.1459,0.0,0.0,0.0,0.0,0.0,0.0,0.0,0.0,0.0,0.0,0.0,0.0,0.0,0.0,0.0,0.0,0.0,0.0,0.0,0.0,0.0,0.0,0.0,0.0,0.0,0.0,-3.8157,-3.9824,-4.0994,0.0,0.0,0.0,0.0,0.0,0.0,0.0,0.0,0.0,0.0,-4.9706,-5.042,-5.1235,-5.1991,-5.2498,-5.2516,-5.2498,-5.2498,-5.2516,-5.2498,-5.248,0.0,0.0,0.0,0.0,0.0,0.0,0.0,0.0,0.0,0.0,0.0,0.0,0.0,0.0,0.0,0.0,0.0,0.0,0.0,0.0,0.0,0.0,0.0,0.0,0.0,0.0,0.0,-4.6252,-4.5762,0.0,0.0,0.0,0.0,0.0,0.0,0.0,0.0,0.0,0.0,0.0,-4.724,-4.7278,0.0,0.0,0.0,0.0,0.0,0.0,0.0,0.0,0.0,0.0,0.0,0.0,-4.27,-4.4519,-4.5024,-4.5498,-4.6055,-4.6194,-4.6013,-4.5477,-4.5167,-4.3841,-4.1385,0.0,0.0,0.0,0.0,0.0,0.0,0.0,0.0,0.0,0.0,0.0,0.0,0.0,0.0,0.0,0.0,0.0,0.0,0.0,0.0,0.0,0.0,0.0,0.0,0.0,-3.9115,0.0,0.0,0.0,0.0,0.0,0.0,0.0,0.0,0.0,0.0,0.0,-4.8261,-4.9013,-4.9688,-5.0401,-5.1199,-5.1991,-5.2679,0.0,0.0,0.0,0.0,0.0,0.0,0.0,0.0,0.0,0.0,0.0,0.0,0.0,0.0,-4.6201,-4.5795,-4.5116,-4.4598,-4.4598,0.0,0.0,0.0,0.0,0.0,0.0,0.0,0.0,0.0,0.0,0.0,0.0,0.0,0.0,-4.8058,0.0,-4.7183,0.0,0.0,0.0,0.0,0.0,0.0,0.0,0.0,-4.7336,-4.7577,-4.8096,-4.8096,-4.8096,0.0,-4.7269,-4.6318,0.0,0.0,0.0,0.0,0.0,0.0,0.0,0.0,-4.2969,-4.4188,-4.4693,-4.504,-4.5287,-4.5442,-4.541,-4.5169,-4.4288,-4.3053,-4.1431,-3.9789,-3.8268,0.0,0.0,0.0,0.0,0.0,0.0,0.0,0.0,0.0,0.0,0.0,0.0,0.0,0.0,0.0,0.0,0.0,0.0,0.0,0.0,0.0,0.0,0.0,-3.9756,0.0,0.0,0.0,0.0,0.0,0.0,0.0,0.0,0.0,-4.7543,-4.7866,-4.8218,-4.8932,-4.9666,-5.0401,-5.1176,0.0,0.0,0.0,0.0,0.0,0.0,0.0,-5.2498,-5.2498,-5.2498,-5.2452,-5.2246,-5.1244,-5.0279,-4.9854,0.0,0.0,-4.6182,-4.5324,-4.4654,-4.4615,-4.4598,-4.4418,-4.3927,-4.3606,-4.3352,0.0,0.0,0.0,0.0,0.0,0.0,0.0,0.0,-4.8669,-4.8573,0.0,-4.7599,0.0,0.0,0.0,0.0,0.0,-4.6865,0.0,0.0,-4.8144,-4.8163,-4.8221,-4.8221,-4.8202,-4.8125,-4.7413,-4.6981,-4.6827,-4.5195,0.0,0.0,0.0,0.0,0.0,0.0,-4.3633,-4.4296,-4.4263,-4.4563,-4.5191,-4.4451,-4.4413,-4.5138,-4.289,-4.1601,-4.1433,-3.9896,-3.8566,-3.7628,-3.6836,0.0,0.0,0.0,0.0,0.0,0.0,0.0,0.0,0.0,0.0,0.0,0.0,0.0,0.0,0.0,0.0,0.0,0.0,0.0,0.0,-3.9217,0.0,0.0,0.0,0.0,0.0,0.0,0.0,0.0,0.0,0.0,-4.6807,-4.749,-4.8151,-4.8804,0.0,0.0,0.0,0.0,-5.2516,-5.257,-5.2516,-5.2516,-5.257,-5.2534,-5.2498,-5.2498,0.0,0.0,-5.2096,-5.1287,-5.0448,-4.9939,-4.8294,-4.6812,-4.622,-4.5425,-4.4782,-4.4626,-4.4598,-4.4598,-4.4547,-4.3978,-4.3707,-5.1971,0.0,0.0,0.0,0.0,-5.0986,-5.0829,-5.0547,-5.0462,-5.0063,-4.9443,-4.9153,0.0,0.0,0.0,0.0,0.0,0.0,-4.7663,-4.9009,-4.9029,-4.9356,-4.9933,-4.9952,-4.9952,-4.9923,-4.9086,-4.8375,-4.7712,-4.6683,-4.5332,-4.3743,0.0,0.0,0.0,0.0,-4.3678,-4.4388,-4.4289,-4.4296,-4.4507,-4.4166,-4.4116,-4.4358,-4.2575,-4.1609,-4.1542,-3.9964,-3.8679,-3.778,-3.6971,0.0,0.0,0.0,0.0,0.0,0.0,0.0,0.0,0.0,0.0,0.0,0.0,0.0,0.0,0.0,0.0,0.0,0.0,0.0,-3.9307,-3.963,-4.0282,0.0,0.0,0.0,0.0,0.0,0.0,0.0,0.0,0.0,-4.7554,-4.78,-4.813,0.0,0.0,-5.0401,-5.1199,-5.1973,-5.2697,-5.3259,-5.286,0.0,0.0,-5.286,-5.2498,-5.2498,-5.2009,-5.1583,-5.1422,-5.0545,-4.9722,-4.9263,-4.8047,-4.6995,-4.6458,-4.5518,-4.4782,-4.4626,-4.4598,-4.4598,-4.4581,-4.4412,-4.4299,-5.2383,-5.1874,-5.1541,-5.1402,-5.1397,-5.139,-5.1357,-5.134,-5.1297,-5.0952,-5.0438,-5.0038,-4.9499,-4.8904,-4.8028,0.0,0.0,0.0,-4.8643,-4.9913,-4.9923,-5.0212,-5.0673,-5.0683,-5.0519,-5.0144,-4.9298,-4.8452,-4.7625,-4.6797,-4.5801,-4.4672,0.0,0.0,-4.4273,-4.4064,-4.4126,-4.4519,-4.4387,-4.4289,-4.4199,-4.3754,-4.3373,-4.3039,-4.1794,-4.1107,-4.1107,-3.9825,-3.8702,-3.7836,-3.7025,-3.6157,0.0,0.0,0.0,0.0,0.0,0.0,0.0,0.0,0.0,0.0,0.0,-3.3817,-3.4146,0.0,0.0,0.0,-3.8055,-3.9223,-3.9784,-4.0425,0.0,0.0,0.0,0.0,0.0,0.0,0.0,-4.6287,-4.6631,-4.7117,-4.7882,-4.7886,-4.8088,-4.8822,-4.9329,-4.9908,-5.0728,0.0,-5.1828,-5.2625,-5.2335,-5.219,-5.2661,-5.2335,-5.1919,-5.1574,-5.114,-5.0787,-5.0615,-4.9783,-4.903,-4.859,-4.7657,-4.6755,-4.6309,-4.5522,-4.4886,-4.4709,-4.4626,-4.4598,-4.4598,-4.4598,-4.4598,-5.2793,-5.2734,-5.1776,-5.1385,-5.1385,-5.1402,-5.1397,-5.1391,-5.1402,-5.136,-5.1239,-5.0385,-4.9936,-4.9745,-4.8896,0.0,-4.9497,-4.943,-4.9807,-5.0616,-5.0519,-5.0491,-5.0491,-5.0481,-5.0067,-4.926,-4.8471,-4.7702,-4.6904,-4.6105,-4.5626,-4.5504,-4.5448,-4.5338,-4.5203,-4.5033,-4.4821,-4.4632,-4.4537,-4.4364,-4.4087,-4.3196,-4.2333,-4.1627,-4.081,-4.0416,-4.0378,-3.9565,-3.8739,-3.7933,-3.7076,-3.6207,-3.5358,0.0,0.0,0.0,0.0,0.0,0.0,0.0,0.0,0.0,0.0,0.0,0.0,0.0,0.0,-3.7437,-3.8961,0.0,-3.9992,-4.1387,0.0,0.0,0.0,-4.4709,-4.4709,-4.5461,-4.6287,-4.7021,0.0,0.0,-4.7901,-4.7845,-4.7989,-4.871,-4.8837,-4.9202,-4.9981,-5.0166,-5.0365,-5.118,-5.1212,-5.1194,-5.1267,-5.123,-5.0977,-5.0361,-5.0057,-4.9937,-4.9789,-4.9046,-4.8403,-4.8138,-4.7199,-4.6319,-4.5887,-4.5511,-4.5123,-4.4886,-4.4692,-4.4598,-4.4598,-4.4598,-4.4598,-5.3711,-5.3574,-5.2031,-5.1386,-5.1386,-5.1386,-5.1385,-5.1402,-5.1402,-5.1391,-5.1362,-5.1132,-5.0607,-4.9856,-4.9517,-4.949,-4.9613,-4.8866,-4.8967,-4.972,-4.9047,-4.8702,-4.8702,-4.8721,-4.8606,-4.8413,-4.8202,-4.7682,-4.6923,-4.6673,-4.6231,-4.5596,-4.5495,-4.5429,-4.5348,-4.5203,-4.5049,-4.4895,-4.4667,-4.4121,-4.3211,-4.2341,-4.1776,-4.159,-4.081,-4.0416,-4.0397,-3.9547,-3.9008,-3.8758,-3.7434,-3.6541,-3.6263,-3.4805,0.0,0.0,0.0,0.0,0.0,0.0,0.0,0.0,0.0,-3.5078,-3.5936,0.0,-3.729,0.0,-3.8961,-4.0139,-4.0763,-4.1699,0.0,0.0,-4.4103,-4.4709,-4.4727,-4.5938,-4.6892,-4.7076,-4.7549,-4.7891,-4.7994,-4.7925,-4.7873,-4.7971,-4.8511,-4.9202,-4.9945,-5.0112,-5.0166,-5.0325,-5.0401,-5.0401,-5.0361,-5.0401,-5.0293,-5.013,-4.9582,-4.9162,-4.9141,-4.8363,-4.7673,-4.7465,-4.6984,-4.6447,-4.6038,-4.5632,-4.5283,-4.5005,-4.4765,-4.4598,-4.4598,-4.4598,-4.4598,-5.4355,-5.3887,-5.2539,-5.1758,-5.1387,-5.1387,-5.1386,-5.1386,-5.1386,-5.1384,-5.1391,-5.139,-5.1064,-5.0491,-5.04,-5.0325,-5.0213,-4.9277,-4.9086,-4.943,-4.8575,-4.8124,-4.8096,-4.8096,-4.7932,-4.7586,-4.7586,-4.7144,-4.6355,-4.6317,-4.6086,-4.5614,-4.5568,-4.5523,-4.5486,-4.5338,-4.5181,-4.5038,-4.436,-4.3328,-4.1927,-4.1361,-4.0927,-4.0494,-4.0048,-3.9807,-3.9807,-3.9361,-3.8934,-3.8544,-3.7373,-3.6493,-3.6057,-3.4777,-3.3998,0.0,0.0,0.0,0.0,0.0,0.0,0.0,0.0,0.0,0.0,0.0,-3.7804,-3.8521,-3.9698,-4.0763,-4.157,-4.2359,-4.3002,-4.346,-4.4196,-4.4784,-4.515,-4.6249,-4.7127,-4.7551,-4.7913,-4.809,-4.8012,-4.7927,-4.7861,-4.7717,-4.8076,-4.8532,-4.8931,-4.9021,-4.9148,-4.9492,-4.9582,-4.9564,-4.9564,-4.9257,-4.9021,-4.9003,-4.8677,-4.8348,-4.8348,-4.7901,-4.7446,-4.7272,-4.7002,-4.6661,-4.6235,-4.5862,-4.5477,-4.5167,-4.4903,-4.4682,-4.4598,-4.4598,-4.4598,-5.4785,-5.3926,-5.3066,-5.2207,-5.1387,-5.1387,-5.1387,-5.1387,-5.1387,-5.1386,-5.1384,-5.14,-5.1333,-5.1226,-5.1211,-5.1138,-5.0976,-5.0085,-4.9633,-4.9476,-4.8495,-4.7997,-4.7942,-4.7817,-4.7413,-4.674,-4.6731,-4.6355,-4.5614,-4.5594,-4.5594,-4.5594,-4.5594,-4.5594,-4.5586,-4.5419,-4.5188,-4.4912,-4.3756,-4.2316,-4.0651,-4.0425,-3.9933,-3.9171,-3.9082,-3.9101,-3.9101,-3.9101,-3.8785,-3.8079,-3.7188,-3.6357,-3.5588,-3.463,-3.4067,0.0,-3.3908,0.0,0.0,0.0,0.0,0.0,0.0,0.0,0.0,-3.7749,-3.8392,-3.9787,-4.0726,-4.1535,-4.2249,-4.302,-4.3479,-4.3516,-4.4161,-4.4913,-4.5571,-4.6244,-4.7029,-4.7931,-4.7944,-4.7884,-4.8012,-4.7966,-4.7863,-4.7777,-4.7735,-4.7808,-4.7735,-4.7808,-4.8061,-4.8656,-4.8746,-4.8728,-4.8692,-4.8188,-4.779,-4.7753,-4.779,-4.7699,-4.7753,-4.7633,-4.745,-4.732,-4.716,-4.6888,-4.6477,-4.6105,-4.5649,-4.5128,-4.4773,-4.4623,-4.4592,-4.4598,-4.4581,-5.4785,-5.3926,-5.3066,-5.2187,-5.1406,-5.1387,-5.1387,-5.1387,-5.1387,-5.1386,-5.1384,-5.1385,-5.1401,-5.1339,-5.1253,-5.1186,-5.1111,-5.0144,-4.9691,-4.9579,-4.7929,-4.7137,-4.709,-4.642,-4.599,-4.5836,-4.5845,-4.5768,-4.5594,-4.5594,-4.5594,-4.5594,-4.5594,-4.5594,-4.5586,0.0,0.0,0.0,-4.2948,-4.187,-4.0796,-3.9901,-3.9364,-3.9202,-3.9129,0.0,-3.9101,-3.9101,-3.9027,-3.8841,-3.7466,0.0,0.0,0.0,0.0,0.0,0.0,0.0,0.0,0.0,0.0,0.0,-3.711,-3.7422,-3.8395,-3.9056,-3.9567,-3.99,-4.1222,-4.2121,-4.2286,-4.302,-4.3479,-4.3516,-4.4214,-4.4711,-4.4858,-4.5534,-4.6321,-4.7109,-4.7218,-4.7436,-4.7965,-4.805,-4.7931,-4.7806,-4.7759,-4.7699,-4.7699,-4.7699,-4.7753,-4.7895,-4.8007,-4.7953,-4.7953,-4.7826,-4.7699,-4.7699,-4.7699,-4.7699,-4.7699,-4.7678,-4.7554,-4.7363,-4.7245,-4.698,-4.6501,-4.6161,-4.5585,-4.4535,-4.4196,-4.4187,-4.4518,-4.4581,-4.4429,-5.4785,0.0,-5.3047,-5.2207,0.0,-5.1387,-5.1387,-5.1387,-5.1387,-5.1386,-5.1385,-5.1398,-5.1385,-5.1384,-5.133,-5.1281,-5.1152,-5.0231,-4.9776,-4.9609,-4.7844,-4.6954,-4.6876,-4.6042,-4.5631,-4.5594,-4.5594,-4.5594,-4.5594,-4.5594,-4.5594,-4.5594,-4.5594,-4.5383,-4.4951,-4.4484,-4.3915,-4.3202,-4.2215,-4.1215,-4.019,-3.9607,-3.9298,-3.921,0.0,0.0,0.0,0.0,0.0,0.0,0.0,0.0,0.0,0.0,0.0,-3.4099,-3.4456,-3.4803,-3.5183,-3.551,-3.6217,-3.7401,-3.786,-3.8432,-3.9221,-3.9662,-4.023,-4.102,-4.1846,-4.247,-4.2855,-4.3259,-4.3479,-4.3516,-4.3848,-4.4198,-4.4565,-4.4894,-4.546,-4.6211,-4.6413,-4.6578,-4.6962,-4.7267,-4.7368,-4.7339,-4.7544,-4.7681,-4.7699,-4.7699,-4.7699,-4.7699,-4.7699,-4.7717,-4.7699,-4.7699,-4.7699,-4.7699,-4.7699,-4.7699,-4.7699,-4.7699,-4.7615,-4.7363,-4.7294,-4.6986,-4.6135,-4.5738,-4.5152,-4.3957,-4.346,-4.3327,-4.3451,-4.3481,-4.3352,-5.4805,-5.3926,-5.3047,-5.2187,-5.1387,-5.1387,-5.1387,-5.1387,0.0,0.0,0.0,-5.1385,-5.1399,-5.1402,-5.1232,-5.1102,-5.0938,-5.0091,-4.9635,-4.9439,-4.7835,-4.7032,-4.6882,-4.6095,-4.5657,-4.5594,-4.5594,-4.5594,-4.5594,-4.5594,-4.5594,-4.5575,-4.5441,-4.4932,-4.4085,-4.3208,-4.265,-4.2408,-4.1632,-4.0666,-3.9601,-3.9526,-3.9414,-3.9269,-3.921,-3.917,-3.9115,-3.9082,-3.9101,-3.9064,-3.7708,-3.6909,-3.6866,-3.5491,-3.4631,-3.4587,-3.5204,-3.5652,-3.5666,-3.6247,-3.6922,-3.7658,-3.8322,-3.9056,-3.9827,-4.001,-4.0708,-4.2176,-4.2433,-4.2782,-4.3441,-4.3479,-4.3479,-4.3479,-4.3445,-4.3704,-4.4272,-4.4309,-4.4583,-4.5388,-4.5589,-4.5663,-4.5883,-4.6319,-4.6605,-4.6579,-4.6878,-4.7283,-4.7319,-4.7482,-4.7699,-4.7699,-4.7699,-4.7699,-4.7699,-4.7699,-4.7699,-4.7699,-4.7699,-4.7699,-4.7699,-4.7569,-4.7398,-4.7097,-4.7036,-4.6404,-4.5524,-4.5059,-4.4452,-4.321,-4.2705,-4.2372,-4.2036,-4.1924,-4.1948,-5.4785,-5.3945,-5.3066,-5.2187,-5.1387,-5.1387,-5.1387,-5.1387,-5.1387,-5.1387,-5.1387,-5.1386,-5.1385,-5.1363,-5.0622,-5.0269,-5.0191,-4.9286,-4.8832,0.0,-4.7611,-4.7064,-4.6943,-4.61,-4.5657,-4.5594,-4.5594,-4.5594,-4.5594,-4.5594,-4.5594,-4.5498,-4.4863,-4.4066,-4.325,-4.2351,-4.1831,-4.1732,-4.1435,-4.0791,-3.9789,-3.9599,-3.9483,-3.9469,-3.9283,-3.9197,-3.9183,-3.9129,-3.9101,-3.9064,-3.8228,-3.7726,-3.7689,-3.6829,-3.6333,-3.6339,-3.6398,-3.671,-3.7373,-3.7446,-3.775,-3.8432,-3.8634,-3.9038,-3.9827,-4.0543,-4.1315,-4.2231,-4.2892,-4.3368,-4.3479,-4.3479,-4.3479,-4.3479,-4.3497,-4.3536,-4.3613,-4.3614,-4.387,-4.4656,-4.4785,-4.5077,-4.5608,-4.5865,-4.5899,-4.5804,-4.5942,-4.5843,-4.5999,-4.6848,-4.7609,-4.7699,-4.7699,-4.7699,-4.7699,-4.7699,-4.7645,-4.7699,-4.7627,-4.75,-4.75,-4.7047,-4.6641,-4.6462,-4.5945,-4.5247,-4.4649,-4.4294,-4.3611,-4.2562,-4.2024,-4.1553,-4.09,-4.0587,-4.0654,-5.4375,-5.3848,-5.2558,-5.1758,-5.1387,-5.1387,-5.1387,-5.1387,-5.1387,-5.1387,-5.1387,-5.1386,-5.1386,-5.1326,-5.054,-5.0137,-5.0059,-4.9178,-4.8709,-4.854,-4.7645,-4.7159,-4.6977,-4.6167,-4.5719,-4.5676,-4.5648,-4.564,-4.5594,-4.5594,-4.5364,-4.4836,-4.3605,-4.2758,-4.2374,-4.1511,-4.1037,-4.1006,-4.0807,-4.045,-3.9922,-3.9758,-3.9599,-3.9502,-3.9362,-3.9269,-3.9178,-3.9142,-3.9101,-3.9101,-3.8339,-3.7894,-3.7875,-3.7145,-3.6718,-3.6718,-3.7087,-3.7455,-3.7771,-3.8087,-3.8375,-3.8686,-3.8707,-3.9056,-3.9827,-4.0653,-4.1442,-4.2231,-4.302,-4.3479,-4.3479,-4.3479,-4.3479,-4.3479,-4.3479,-4.348,-4.3445,-4.3445,-4.361,-4.394,-4.4014,-4.416,-4.4544,-4.4912,-4.5132,-4.5095,-4.5273,-4.5409,-4.5292,-4.5906,-4.6576,-4.6993,-4.7428,-4.7681,-4.7663,-4.7319,-4.7102,-4.7047,-4.6685,-4.645,-4.6395,-4.6033,-4.5848,-4.5673,-4.5263,-4.4713,-4.3999,-4.3589,-4.2898,-4.1898,-4.134,-4.0884,-4.0406,-3.99,-3.9791,-5.3984,-5.3848,-5.2129,-5.1387,-5.1387,-5.1387,-5.1387,-5.1387,-5.1387,-5.1387,-5.1387,-5.1387,-5.1386,-5.1308,-5.035,-4.9877,-4.9687,-4.8706,-4.8152,-4.7988,-4.7344,-4.6967,-4.6796,-4.6111,-4.5776,-4.5714,-4.5709,-4.5684,-4.5612,-4.5421,-4.4767,-4.372,-4.2431,-4.1692,-4.1489,-4.0835,-4.05,-4.0499,-4.0342,-4.0187,-4.0057,-3.9911,-3.9717,-3.9544,-3.9483,-3.9386,-3.9256,-3.9188,-3.9115,-3.9064,-3.8507,-3.8154,-3.8135,-3.7578,-3.7257,-3.7299,-3.7819,-3.8145,-3.8104,-3.8545,-3.8792,-3.8719,-3.8689,-3.8964,-3.9588,-4.0359,-4.1258,-4.2176,-4.2837,-4.3259,-4.3442,-4.3479,-4.3479,-4.3479,-4.3479,-4.3479,-4.3479,-4.3479,-4.3479,-4.3479,-4.3479,-4.3497,-4.3608,-4.4014,-4.4309,-4.4401,-4.4728,-4.4903,-4.4824,-4.4932,-4.5367,-4.587,-4.6649,-4.7029,-4.712,-4.6667,-4.6287,-4.6214,-4.578,-4.5526,-4.5381,-4.5236,-4.4999,-4.4881,-4.4579,-4.4035,-4.3262,-4.2859,-4.2215,-4.1214,-4.0676,-4.0275,-3.971,-3.918,-3.892,-5.4004,-5.373,-5.2148,-5.1387,-5.1387,-5.1387,-5.1387,-5.1387,-5.1387,-5.1387,-5.1387,-5.1387,-5.1387,-5.1172,-4.9745,-4.906,-4.8902,-4.7286,-4.6538,-4.6485,-4.6283,-4.6163,-4.6135,-4.5912,-4.5798,-4.5792,-4.5742,-4.5662,-4.5577,-4.4784,-4.3605,-4.22,-4.1865,-4.1393,-4.0727,-4.0535,-4.0496,-4.0489,-4.0491,-4.0381,-4.0186,-3.9986,-3.9826,-3.9663,-3.9563,-3.9477,-3.9373,-3.9275,-3.9156,-3.9115,-3.9008,-3.8971,-3.8952,-3.8878,-3.8859,-3.8841,-3.8915,-3.8948,-3.8882,-3.8884,-3.8866,-3.8792,-3.8735,-3.8744,-3.8872,-3.9533,-4.0671,-4.1864,-4.2323,-4.269,-4.3386,-4.346,-4.3442,-4.3479,-4.3479,-4.3479,-4.3479,-4.3479,-4.3479,-4.3479,-4.3479,-4.3479,-4.3497,-4.3609,-4.361,-4.365,-4.367,-4.367,-4.3613,-4.4012,-4.4337,-4.4497,-4.5019,-4.5508,-4.5617,-4.5508,-4.5417,-4.5399,-4.5327,-4.511,-4.4928,-4.4566,-4.4222,-4.4111,-4.3538,-4.2945,-4.2637,-4.2153,-4.1578,-4.0766,-4.0071,-3.9408,-3.8472,-3.8082,-3.8075,-5.4473,-5.3887,-5.2676,-5.1855,-5.1426,-5.1387,-5.1387,-5.1387,-5.1387,-5.1387,-5.1387,-5.1387,-5.1387,-5.1308,-4.9648,-4.8886,-4.8768,-4.71,-4.6264,-4.6199,-4.6177,-4.6119,-4.6052,-4.5983,-4.5893,-4.5859,-4.5803,-4.5465,-4.4776,-4.3514,-4.247,-4.1808,-4.1296,-4.0835,-4.0516,-4.0496,-4.0496,-4.0496,-4.0507,-4.0432,-4.0318,-4.0109,-3.9933,-3.977,-3.9599,-3.9489,-3.9399,-3.9269,-3.917,-3.9115,-3.9101,-3.9101,-3.9101,-3.9101,-3.9101,-3.9101,-3.9101,-3.9073,-3.9007,-3.8983,-3.8906,-3.8788,-3.8777,-3.875,-3.8707,-3.9019,-3.968,-4.0671,-4.1313,-4.1919,-4.2635,-4.2782,-4.2965,-4.3369,-4.3479,-4.3461,-4.3479,-4.3461,-4.3479,-4.3479,-4.3479,-4.3461,-4.3479,-4.3479,-4.3463,-4.3411,-4.334,-4.325,-4.3196,-4.3414,-4.3522,-4.3557,-4.3735,-4.4295,-4.4947,-4.4838,-4.4657,-4.4512,-4.4168,-4.3878,-4.3878,-4.3679,-4.3389,-4.3426,-4.2908,-4.2534,-4.2486,-4.17,-4.0994,-4.0258,-3.9467,-3.8654,-3.7528,-3.7305,-3.7146,-5.4785,-5.3887,-5.2812,-5.1973,-5.1406,-5.1387,-5.1387,-5.1387,-5.1387,-5.1387,-5.1387,-5.1387,-5.1387,-5.1152,-4.9648,-4.8886,-4.8671,-4.7106,-4.6258,-4.6238,-4.6214,-4.6174,-4.6123,-4.6051,-4.5986,-4.5925,-4.5867,-4.5196,-4.4013,-4.2598,-4.1708,-4.1393,-4.0804,-4.0496,-4.0496,-4.0496,-4.0496,-4.0496,-4.0503,-4.0482,-4.0415,-4.0244,-4.0058,-3.9878,-3.9689,-3.9533,-3.9419,-3.9328,-3.9197,-3.9129,-3.9115,-3.899,-3.8785,-3.8767,-3.8767,-3.8804,-3.899,-3.9073,-3.9036,-3.9007,-3.895,-3.8881,-3.8837,-3.8795,-3.8735,-3.8723,-3.8946,-3.9496,-4.012,-4.0783,-4.1792,-4.1974,-4.2249,-4.2763,-4.2837,-4.2837,-4.28,-4.2837,-4.2782,-4.2837,-4.269,-4.2837,-4.2837,-4.2782,-4.2765,-4.2988,-4.3081,-4.3211,-4.3232,-4.3233,-4.3214,-4.3086,-4.3049,-4.3409,-4.4387,-4.415,-4.3806,-4.3661,-4.3281,-4.3045,-4.2919,-4.2919,-4.2919,-4.3118,-4.2656,-4.2251,-4.1936,-4.1248,-4.0265,-3.967,-3.8834,-3.7821,-3.6893,-3.6701,-3.6367,-5.4785,-5.3828,-5.2187,-5.1465,-5.1387,-5.1387,-5.1387,-5.1387,-5.1387,-5.1387,-5.1387,-5.1387,-5.1387,-5.1269,-4.9629,-4.8887,-4.8652,-4.7089,-4.6305,-4.6279,-4.6239,-4.6211,-4.62,-4.6127,-4.6047,-4.5986,-4.5925,-4.4974,-4.3262,-4.2283,-4.1439,-4.0631,-4.0535,-4.0496,-4.0496,-4.0496,-4.0496,-4.0496,-4.0489,-4.0484,-4.0474,-4.0362,-4.0196,-3.9988,-3.9848,-3.9701,-3.9502,-3.9432,-3.9328,-3.9197,-3.9105,-3.8748,-3.8079,-3.7968,-3.7949,-3.8061,-3.8655,-3.9082,-3.9087,-3.9036,-3.8993,-3.8983,-3.8881,-3.8807,-3.8777,-3.8735,-3.8744,-3.8781,-3.8946,-3.9588,-4.0802,-4.1111,-4.1205,-4.1352,-4.1297,-4.1334,-4.1297,-4.1462,-4.1242,-4.1315,-4.1425,-4.148,-4.1315,-4.1187,-4.1682,-4.2141,-4.2343,-4.251,-4.3009,-4.323,-4.3195,-4.3087,-4.305,-4.3104,-4.3083,-4.3227,-4.3118,-4.3045,-4.3081,-4.2828,-4.2901,-4.2919,-4.2883,-4.2628,-4.2027,-4.1572,-4.1314,-4.0581,-3.9498,-3.8611,-3.7631,-3.6688,-3.6509,-3.6085,-3.5873,-5.5293,-5.3848,-5.2129,-5.1387,-5.1387,-5.1387,-5.1387,-5.1387,-5.1387,-5.1387,-5.1387,-5.1387,-5.1387,-5.1308,-4.9668,-4.8887,-4.873,-4.709,-4.6288,-4.6305,-4.6278,-4.6264,-4.6243,-4.6203,-4.6127,-4.6066,-4.5969,-4.4996,-4.3173,-4.1778,-4.09,-4.0581,-4.0496,-4.0496,-4.0496,-4.0496,-4.0496,-4.0496,-4.0496,-4.0492,-4.0502,-4.0396,-4.028,-4.0129,-3.9956,-3.9758,-3.9495,-3.9464,-3.94,-3.9192,-3.8704,-3.825,-3.7907,-3.7392,-3.7373,-3.7838,-3.8172,-3.8562,-3.9008,-3.9073,-3.905,-3.8993,-3.895,-3.8896,-3.8803,-3.8777,-3.875,-3.8723,-3.8707,-3.9074,-3.946,-4.001,-4.0543,-4.0985,-4.1095,-4.104,-4.1113,-4.1113,-4.1113,-4.1113,-4.1113,-4.1113,-4.1003,-4.1095,-4.1224,-4.1462,-4.1535,-4.1666,-4.1924,-4.2313,-4.2591,-4.263,-4.2832,-4.3086,-4.3067,-4.2974,-4.2919,-4.2919,-4.2865,-4.2502,-4.2393,-4.2194,-4.2085,-4.1614,-4.1107,-4.0799,-4.0489,-3.9834,-3.8743,-3.7866,-3.6823,-3.6623,-3.6318,-3.617,-3.6019,-5.5098,-5.3808,-5.2109,-5.1387,-5.1387,-5.1387,-5.1387,-5.1387,-5.1387,-5.1387,-5.1387,-5.1387,-5.1269,-5.082,-4.9512,-4.8711,-4.8359,-4.6973,-4.6289,-4.6288,-4.6305,-4.6299,-4.6284,-4.624,-4.62,-4.5998,-4.5424,-4.4427,-4.3151,-4.1453,-4.06,-4.0496,-4.0496,-4.0496,-4.0496,-4.0496,-4.0496,-4.0496,-4.0496,-4.05,-4.0507,-4.0438,-4.0236,-3.9889,-3.9699,-3.9646,-3.9616,-3.9532,-3.9308,-3.89,-3.8324,-3.775,-3.7145,-3.6625,-3.6551,-3.7071,-3.7355,-3.7856,-3.8562,-3.8711,-3.8795,-3.9017,-3.9007,-3.895,-3.8881,-3.8837,-3.8777,-3.875,-3.8723,-3.8707,-3.8799,-3.9203,-3.9735,-4.023,-4.0325,-4.0325,-4.0341,-4.0288,-4.0288,-4.0233,-4.0215,-4.027,-4.0325,-4.0288,-4.0416,-4.0653,-4.0726,-4.0763,-4.1113,-4.1484,-4.182,-4.1821,-4.2046,-4.2177,-4.2105,-4.1942,-4.2195,-4.2267,-4.2339,-4.2049,-4.1614,-4.1415,-4.1126,-4.0619,-4.0239,-3.9968,-3.9518,-3.8922,-3.8198,-3.7363,-3.7046,-3.6851,-3.6632,-3.6444,-3.6203,-5.4023,-5.3691,-5.2109,-5.1387,-5.1387,-5.1387,-5.1387,-5.1387,-5.1387,-5.1387,-5.1387,-5.1348,-5.0898,-5.0176,-4.9219,-4.8398,-4.7637,-4.6719,-4.6289,-4.6289,-4.6288,-4.6304,-4.6294,-4.6303,-4.625,-4.6068,-4.4331,-4.3431,-4.3109,-4.1496,-4.0571,-4.0512,-4.0496,-4.0496,-4.0496,-4.0496,-4.0496,-4.0496,-4.0496,-4.0496,-4.0489,-4.0422,-4.0,-3.9252,-3.9058,-3.9194,-3.973,-3.9496,-3.8969,-3.8339,-3.7991,-3.7154,-3.5838,-3.551,-3.5529,-3.577,-3.629,-3.7039,-3.7764,-3.7894,-3.8228,-3.879,-3.8975,-3.89,-3.8964,-3.8881,-3.8803,-3.8792,-3.875,-3.8689,-3.8707,-3.8781,-3.8854,-3.8728,-3.8967,-3.9001,-3.8891,-3.8781,-3.8744,-3.8872,-3.8964,-3.8762,-3.8762,-3.8964,-3.9276,-3.9753,-3.9918,-4.0102,-4.06,-4.0895,-4.1007,-4.0958,-4.1165,-4.1407,-4.1084,-4.0778,-4.1161,-4.1452,-4.156,-4.1433,-4.0836,-4.051,-4.0347,-3.9895,-3.9515,-3.9244,-3.885,-3.8295,-3.8079,-3.7448,-3.728,-3.7054,-3.6836,-3.66,-3.6295,-5.365,-5.2987,-5.1894,-5.1386,-5.1387,-5.1387,-5.1387,-5.1387,-5.1387,-5.1387,-5.1308,-5.082,-5.043,-4.9883,-4.8691,-4.7851,-4.7519,-4.6719,-4.6289,-4.6289,-4.6289,-4.6288,-4.6303,-4.6295,-4.6238,-4.5854,-4.4283,-4.3346,-4.2963,-4.1498,-4.0586,-4.0554,-4.0504,-4.0496,-4.0496,-4.0496,-4.0496,-4.0496,-4.0496,-4.0496,-4.0431,-3.9911,-3.9448,-3.9128,-3.8491,-3.8212,-3.8356,-3.8126,-3.7826,-3.7493,-3.6788,-3.5863,-3.4884,-3.4618,-3.4897,-3.5436,-3.5714,-3.6216,-3.6928,-3.7095,-3.7442,-3.8079,-3.8256,-3.8512,-3.8915,-3.8968,-3.8925,-3.8881,-3.8825,-3.878,-3.8765,-3.8719,-3.8689,-3.8707,-3.8707,-3.8707,-3.8707,-3.8707,-3.8707,-3.8707,-3.8707,-3.8707,-3.8707,-3.8707,-3.8817,-3.9038,-3.9129,-3.9313,-3.9496,-4.0029,-4.0249,-4.0235,-4.0498,-4.067,-4.0475,-4.0245,-4.0323,-4.0562,-4.0654,-4.06,-4.0057,-3.9695,-3.9514,-3.9278,-3.8898,-3.8556,-3.8162,-3.7825,-3.7631,-3.7542,-3.7325,-3.712,-3.696,-3.6554,-3.6028,-5.3489,-5.2614,-5.1775,-5.1386,-5.1386,-5.1387,-5.1387,-5.1387,-5.1387,-5.123,-5.0879,-5.043,-4.9805,-4.9121,-4.8066,-4.7441,-4.707,-4.6523,-4.6289,-4.6289,-4.6289,-4.6289,-4.6306,-4.6296,-4.6243,-4.5889,-4.4627,-4.3707,-4.3279,-4.1893,-4.0949,-4.0653,-4.0565,-4.0523,-4.0496,-4.0496,-4.0496,-4.0496,-4.0496,-4.0496,-4.0335,-3.9677,-3.9077,-3.8642,-3.783,-3.7162,-3.6816,-3.6578,-3.6562,-3.6512,-3.5761,-3.4899,-3.4301,-3.424,-3.4469,-3.4847,-3.5064,-3.538,-3.611,-3.6259,-3.6606,-3.7281,-3.7726,-3.8084,-3.8549,-3.878,-3.8983,-3.8954,-3.8862,-3.8822,-3.8792,-3.8762,-3.8719,-3.8707,-3.8707,-3.8707,-3.8707,-3.8707,-3.8707,-3.8707,-3.8707,-3.8707,-3.8707,-3.8707,-3.8707,-3.8707,-3.8707,-3.8707,-3.8799,-3.9148,-3.9368,-3.9515,-3.9648,-3.9786,-3.9918,-3.9763,-3.9589,-3.9651,-3.971,-3.953,-3.917,-3.8989,-3.8808,-3.8717,-3.8409,-3.8427,-3.807,-3.7569,-3.7286,-3.729,-3.7095,-3.6524,-3.604,-3.5766,-3.5314,-5.3461,-5.255,-5.1754,-5.1384,-5.1386,-5.1386,-5.1387,-5.1387,-5.1289,-5.0879,-5.0351,-4.9941,-4.9101,-4.791,-4.7519,-4.7031,-4.6426,-4.6348,-4.6289,-4.6289,-4.6289,-4.6289,-4.6306,-4.6294,-4.6267,-4.6047,-4.5192,-4.4278,-4.3383,-4.2376,-4.1518,-4.0701,-4.0595,-4.0573,-4.0504,-4.0496,-4.0496,-4.0496,-4.0496,-4.0496,-4.0458,-3.9708,-3.8877,-3.804,-3.721,-3.637,-3.5624,-3.5403,-3.5496,-3.5794,-3.503,-3.4498,-3.4323,-3.4233,-3.4246,-3.4321,-3.4216,-3.4643,-3.5219,-3.5404,-3.577,-3.6556,-3.7182,-3.7856,-3.7992,-3.8493,-3.8859,-3.8974,-3.8935,-3.8881,-3.8818,-3.8807,-3.878,-3.8723,-3.8707,-3.8707,-3.8707,-3.8707,-3.8707,-3.8707,-3.8707,-3.8707,-3.8707,-3.8707,-3.8707,-3.8707,-3.8707,-3.8707,-3.8726,-3.8836,-3.8744,-3.8857,-3.9095,-3.9119,-3.9326,-3.9225,-3.9053,-3.9094,-3.9104,-3.8909,-3.866,-3.8517,-3.8409,-3.8282,-3.8154,-3.8138,-3.7904,-3.7383,-3.6883,-3.6655,-3.6212,-3.5537,-3.5206,-3.5066,-3.471,-5.3084,-5.1753,-5.1483,-5.1396,-5.1385,-5.1386,-5.1386,-5.1308,-5.0762,-5.041,-4.998,-4.8808,-4.8105,-4.7558,-4.6914,-4.6504,-4.6348,-4.6289,-4.6289,-4.6289,-4.6289,-4.6289,-4.6306,-4.6297,-4.6257,-4.6084,-4.5354,-4.4411,-4.3456,-4.2584,-4.1622,-4.0694,-4.0631,-4.0588,-4.0573,-4.0531,-4.0496,-4.0496,-4.0496,-4.0496,-4.0381,-3.9708,-3.8873,-3.7993,-3.7137,-3.6262,-3.5442,-3.5176,-3.5003,-3.4961,-3.4755,-3.4454,-3.4347,-3.4281,-3.4245,-3.4209,-3.4216,-3.4253,-3.4494,-3.4587,-3.4977,-3.5696,-3.6123,-3.6643,-3.7819,-3.8047,-3.8465,-3.886,-3.9021,-3.8935,-3.8877,-3.8837,-3.8795,-3.8704,-3.8707,-3.8707,-3.8707,-3.8707,-3.8707,-3.8707,-3.8707,-3.8707,-3.8707,-3.8707,-3.8707,-3.8707,-3.8707,-3.8707,-3.8707,-3.8707,-3.8707,-3.8707,-3.8802,-3.8747,-3.8698,-3.8632,-3.8585,-3.8624,-3.8617,-3.8591,-3.8436,-3.8351,-3.828,-3.8209,-3.8009,-3.7955,-3.7538,-3.7035,-3.6606,-3.5981,-3.5593,-3.5065,-3.4915,-3.4728,-3.4164,-5.2864,-5.1374,-5.1384,-5.1402,-5.1397,-5.1384,-5.1386,-5.123,-5.0547,-4.9961,-4.9414,-4.8223,-4.7402,-4.6992,-4.6523,-4.6308,-4.6289,-4.6289,-4.6289,-4.6289,-4.6289,-4.6289,-4.6306,-4.6302,-4.627,-4.6184,-4.5699,-4.4732,-4.365,-4.2936,-4.1997,-4.0913,-4.0655,-4.0619,-4.0588,-4.0565,-4.0531,-4.0496,-4.0496,-4.0496,-4.0439,-3.9727,-3.8873,-3.8027,-3.7151,-3.6284,-3.548,-3.5229,-3.4992,-3.4771,-3.4647,-3.4539,-3.442,-3.434,-3.4281,-3.4245,-3.4221,-3.4216,-3.4216,-3.4216,-3.442,-3.4922,-3.5231,-3.5919,-3.6723,-3.7151,-3.7726,-3.8432,-3.854,-3.8674,-3.888,-3.8848,-3.8777,-3.8723,-3.8707,-3.8689,-3.8689,-3.8707,-3.8707,-3.8707,-3.8707,-3.8707,-3.8707,-3.8707,-3.8707,-3.8707,-3.8707,-3.8707,-3.8707,-3.8707,-3.8707,-3.8707,-3.8707,-3.8673,-3.8673,-3.8624,-3.8575,-3.8559,-3.8478,-3.8417,-3.8229,-3.8167,-3.8171,-3.81,-3.7883,-3.7557,-3.7049,-3.6435,-3.5695,-3.518,-3.4902,-3.4573,-3.43,-3.4258,-3.3699,-5.2808,-5.131,-5.1361,-5.1401,-5.1396,-5.1398,-5.1326,-5.1093,-5.0332,-4.9531,-4.8691,-4.7851,-4.7012,-4.6308,-4.6348,-4.6289,-4.6289,-4.6289,-4.6289,-4.6289,-4.6289,-4.6289,-4.6288,-4.6306,-4.63,-4.6262,-4.6221,-4.5108,-4.3896,-4.3451,-4.244,-4.1129,-4.0706,-4.0662,-4.0624,-4.0595,-4.0565,-4.0523,-4.0496,-4.0496,-4.0419,-3.9861,-3.9084,-3.8007,-3.6923,-3.6142,-3.5511,-3.5253,-3.5126,-3.4936,-3.473,-3.4626,-3.4572,-3.4416,-3.4323,-3.43,-3.4233,-3.4216,-3.4216,-3.4216,-3.4216,-3.442,-3.4959,-3.5436,-3.5751,-3.6272,-3.6909,-3.7708,-3.7764,-3.8006,-3.8349,-3.8512,-3.8317,-3.8187,-3.8319,-3.8414,-3.8487,-3.8597,-3.8707,-3.8707,-3.8707,-3.8707,-3.8707,-3.8707,-3.8707,-3.8707,-3.8707,-3.8707,-3.8707,-3.8707,-3.8707,-3.8707,-3.8707,-3.8707,-3.8707,-3.8673,-3.8673,-3.8658,-3.8544,-3.841,-3.8113,-3.8016,-3.8059,-3.7955,-3.7575,-3.7031,-3.6381,-3.5693,-3.4935,-3.4398,-3.4156,-3.3679,-3.3278,-3.3458,-3.3189,-5.2816,-5.1308,-5.1312,-5.1349,-5.1401,-5.1379,-5.1044,-5.0428,-4.9569,-4.871,-4.7851,-4.6973,-4.6504,-4.6289,-4.6289,-4.6289,-4.6289,-4.6289,-4.6289,-4.6289,-4.6289,-4.6289,-4.6289,-4.6288,-4.6303,-4.6291,-4.63,-4.5294,-4.3975,-4.3382,-4.2606,-4.108,-4.0756,-4.0688,-4.068,-4.0617,-4.0588,-4.0573,-4.0512,-4.0496,-4.0496,-4.0285,-3.9457,-3.8065,-3.6577,-3.5741,-3.546,-3.5316,-3.5209,-3.5044,-3.486,-3.4711,-3.4604,-3.4473,-3.4381,-3.4305,-3.4245,-3.4209,-3.4216,-3.4209,-3.4216,-3.4253,-3.4439,-3.4767,-3.5454,-3.5603,-3.6142,-3.6755,-3.6946,-3.7055,-3.7252,-3.7054,-3.7094,-3.7106,-3.7011,-3.6945,-3.7037,-3.7936,-3.8469,-3.8634,-3.8634,-3.8689,-3.8689,-3.8707,-3.8707,-3.8707,-3.8707,-3.8707,-3.8707,-3.8707,-3.8707,-3.8707,-3.8707,-3.8689,-3.8634,-3.856,-3.8377,-3.8285,-3.8169,-3.7997,-3.7687,-3.7644,-3.7564,-3.7408,-3.7176,-3.6508,-3.5711,-3.515,-3.441,-3.3909,-3.3515,-3.3364,-3.3214,-3.3104,-3.3026,-5.2344,-5.124,-5.1234,-5.1281,-5.1271,-5.0954,-5.0547,-4.9954,-4.8806,-4.8046,-4.748,-4.668,-4.6308,-4.6289,-4.6289,-4.6289,-4.6289,-4.6289,-4.6289,-4.6289,-4.6289,-4.6289,-4.6289,-4.6289,-4.6306,-4.6301,-4.6293,-4.5295,-4.4075,-4.3426,-4.263,-4.1024,-4.0812,-4.075,-4.0726,-4.0666,-4.0619,-4.0591,-4.0561,-4.0539,-4.0539,-4.0485,-3.9708,-3.8027,-3.6442,-3.5479,-3.5398,-3.5354,-3.5239,-3.5122,-3.4982,-3.4812,-3.4708,-3.4561,-3.4473,-3.4386,-3.4293,-3.4257,-3.4245,-3.4221,-3.4216,-3.4216,-3.4216,-3.4439,-3.4754,-3.4884,-3.5306,-3.59,-3.6166,-3.6215,-3.653,-3.6569,-3.6464,-3.6398,-3.6338,-3.6309,-3.6446,-3.7092,-3.7771,-3.7973,-3.8098,-3.834,-3.8487,-3.8505,-3.8652,-3.8615,-3.8689,-3.8707,-3.8707,-3.8707,-3.8707,-3.8707,-3.8707,-3.867,-3.8597,-3.8377,-3.8025,-3.7753,-3.7444,-3.7164,-3.6815,-3.6869,-3.6958,-3.6676,-3.6322,-3.5693,-3.4969,-3.441,-3.403,-3.3704,-3.3421,-3.3355,-3.3292,-3.3232,-3.3137,-5.1819,-5.1099,-5.1155,-5.123,-5.1168,-5.0469,-5.001,-4.9633,-4.8276,-4.7557,-4.7285,-4.6582,-4.6289,-4.6289,-4.6289,-4.6289,-4.6289,-4.6289,-4.6289,-4.6289,-4.6289,-4.6289,-4.6289,-4.6289,-4.6289,-4.6287,-4.6067,-4.5078,-4.4023,-4.3404,-4.2415,-4.1151,-4.0898,-4.0826,-4.0751,-4.0707,-4.0668,-4.0633,-4.0598,-4.0588,-4.058,-4.05,-3.9657,-3.8046,-3.6404,-3.5525,-3.542,-3.5376,-3.5297,-3.5237,-3.51,-3.4964,-3.483,-3.4676,-3.4572,-3.4506,-3.4374,-3.4305,-3.4281,-3.4245,-3.4221,-3.4228,-3.4216,-3.4216,-3.4253,-3.4327,-3.4655,-3.5008,-3.533,-3.5503,-3.6131,-3.598,-3.5982,-3.597,-3.5984,-3.6002,-3.596,-3.595,-3.6285,-3.7162,-3.7345,-3.7496,-3.7918,-3.812,-3.8358,-3.8542,-3.8615,-3.867,-3.8652,-3.8689,-3.8689,-3.8707,-3.8707,-3.8358,-3.8212,-3.7661,-3.7364,-3.7147,-3.678,-3.6388,-3.6033,-3.5996,-3.6015,-3.5726,-3.532,-3.4818,-3.4389,-3.3973,-3.3647,-3.3411,-3.3378,-3.3367,-3.3337,-3.3325,-3.3247,-5.1826,-5.1088,-5.1125,-5.1185,-5.1139,-5.0371,-4.9618,-4.8927,-4.7959,-4.7185,-4.6562,-4.6387,-4.6289,-4.6289,-4.6289,-4.6289,-4.6289,-4.6289,-4.6289,-4.6289,-4.6289,-4.6289,-4.6289,-4.6289,-4.6289,-4.6074,-4.5603,-4.462,-4.3764,-4.2936,-4.2117,-4.1194,-4.093,-4.0863,-4.0792,-4.0739,-4.0688,-4.0674,-4.064,-4.0605,-4.0603,-4.0292,-3.9653,-3.7995,-3.6372,-3.5596,-3.5467,-3.5412,-3.5361,-3.5304,-3.5201,-3.5108,-3.4964,-3.4759,-3.4645,-3.4561,-3.4473,-3.4374,-3.4328,-3.4274,-3.4257,-3.4221,-3.4228,-3.4209,-3.4209,-3.4216,-3.4339,-3.4401,-3.4513,-3.4569,-3.4581,-3.4803,-3.4599,-3.4498,-3.4563,-3.4502,-3.4457,-3.4564,-3.4995,-3.6079,-3.6354,-3.6633,-3.711,-3.7496,-3.7624,-3.79,-3.8175,-3.8322,-3.8432,-3.8542,-3.8652,-3.867,-3.8707,-3.8212,-3.7768,-3.7,-3.6486,-3.6431,-3.6138,-3.5734,-3.5416,-3.519,-3.5027,-3.4856,-3.4679,-3.435,-3.3936,-3.3556,-3.3465,-3.3393,-3.3393,-3.3378,-3.3382,-3.3352,-3.3337,-5.1375,-5.1069,-5.1076,-5.0895,-5.0481,-4.9726,-4.8898,-4.8094,-4.7273,-4.6695,-4.6386,-4.6289,-4.6289,-4.6289,-4.6289,-4.6289,-4.6289,-4.6289,-4.6289,-4.6289,-4.6289,-4.6289,-4.6289,-4.6289,-4.6289,-4.5918,-4.5019,-4.4177,-4.3639,-4.2842,-4.193,-4.124,-4.0992,-4.0912,-4.0848,-4.0787,-4.0751,-4.0739,-4.0681,-4.0647,-4.0484,-3.9923,-3.8763,-3.7887,-3.6488,-3.5596,-3.5493,-3.5427,-3.5391,-3.5346,-3.5273,-3.5201,-3.5091,-3.4974,-3.4801,-3.4701,-3.4564,-3.4495,-3.445,-3.4397,-3.4328,-3.4323,-3.4293,-3.4281,-3.4257,-3.4257,-3.4215,-3.4209,-3.4216,-3.4216,-3.4271,-3.4173,-3.4117,-3.4099,-3.4036,-3.3985,-3.3947,-3.3881,-3.4425,-3.5165,-3.5381,-3.5822,-3.6413,-3.6707,-3.6835,-3.7184,-3.7624,-3.7881,-3.8065,-3.8212,-3.8303,-3.801,-3.7863,-3.7367,-3.6835,-3.6193,-3.5679,-3.5605,-3.544,-3.5055,-3.4766,-3.4559,-3.4357,-3.4195,-3.4004,-3.3956,-3.3734,-3.3447,-3.3411,-3.3393,-3.3393,-3.3393,-3.3393,-3.3378,-3.3382,-5.0929,-5.0993,-5.0888,-5.0466,-4.9814,-4.8908,-4.8161,-4.7433,-4.6682,-4.6342,-4.6288,-4.6289,-4.6289,-4.6289,-4.6289,-4.6289,-4.6289,-4.6289,-4.6289,-4.6289,-4.6289,-4.6289,-4.6289,-4.6289,-4.6289,-4.6055,-4.4609,-4.3711,-4.349,-4.2561,-4.1759,-4.127,-4.1029,-4.0956,-4.0903,-4.0826,-4.0818,-4.0776,-4.0745,-4.0733,-4.0301,-3.9076,-3.8084,-3.7868,-3.6418,-3.55,-3.55,-3.546,-3.5412,-3.5391,-3.5346,-3.5293,-3.5226,-3.5179,-3.5056,-3.4889,-3.4722,-3.4658,-3.4623,-3.4547,-3.4461,-3.4416,-3.4427,-3.4393,-3.434,-3.4316,-3.4293,-3.4245,-3.4221,-3.4221,-3.4221,-3.4209,-3.4173,-3.4117,-3.4093,-3.4074,-3.4023,-3.3959,-3.3921,-3.436,-3.4545,-3.4904,-3.5436,-3.5881,-3.6009,-3.6285,-3.6707,-3.7107,-3.7294,-3.7569,-3.7569,-3.7129,-3.6762,-3.6321,-3.5807,-3.5279,-3.4908,-3.478,-3.4614,-3.4302,-3.4105,-3.3895,-3.3817,-3.3867,-3.3761,-3.3731,-3.3517,-3.3426,-3.3393,-3.3393,-3.3393,-3.3393,-3.3393,-3.3393,-3.3378,-5.0929,-5.0916,-5.0241,-4.9931,-4.9607,-4.8247,-4.7567,-4.7362,-4.6616,-4.6301,-4.6287,-4.6289,-4.6289,-4.6289,-4.6289,-4.6289,-4.6289,-4.6289,-4.6289,-4.6289,-4.6289,-4.6289,-4.6289,-4.6289,-4.6289,-4.5996,-4.4531,-4.3808,-4.3337,-4.2119,-4.1321,-4.1113,-4.1052,-4.098,-4.0926,-4.0844,-4.0809,-4.08,-4.0784,-4.0752,-4.0423,-3.8999,-3.8239,-3.7653,-3.6516,-3.5488,-3.5488,-3.5474,-3.546,-3.5393,-3.5398,-3.535,-3.5293,-3.5273,-3.5245,-3.5126,-3.4964,-3.4781,-3.4759,-3.4687,-3.4594,-3.4539,-3.4506,-3.4461,-3.4427,-3.4404,-3.4374,-3.4393,-3.4316,-3.4293,-3.4281,-3.4233,-3.4209,-3.4185,-3.4173,-3.4136,-3.408,-3.4061,-3.4011,-3.3991,-3.4302,-3.4163,-3.4343,-3.4793,-3.5188,-3.5495,-3.5789,-3.6174,-3.6468,-3.6707,-3.6817,-3.6376,-3.5789,-3.5312,-3.5128,-3.4546,-3.438,-3.4156,-3.4009,-3.3807,-3.3793,-3.3762,-3.3766,-3.3748,-3.3671,-3.3633,-3.3549,-3.3477,-3.3404,-3.3393,-3.3393,-3.3393,-3.3393,-3.3393,-3.3393,-5.0237,-5.024,-4.9917,-4.9252,-4.8394,-4.7665,-4.7147,-4.6766,-4.6436,-4.6297,-4.6305,-4.6289,-4.6289,-4.6289,-4.6289,-4.6289,-4.6289,-4.6289,-4.6289,-4.6289,-4.6289,-4.6289,-4.6289,-4.6289,-4.6289,-4.5801,-4.4707,-4.3769,-4.3144,-4.2104,-4.1116,-4.1095,-4.1081,-4.102,-4.096,-4.0888,-4.0839,-4.0829,-4.0802,-4.0778,-4.0295,-3.9168,-3.8144,-3.8047,-3.6427,-3.5694,-3.5495,-3.5488,-3.5493,-3.546,-3.5453,-3.542,-3.5364,-3.5342,-3.5331,-3.5273,-3.5157,-3.5028,-3.4917,-3.4821,-3.4722,-3.4699,-3.4676,-3.4634,-3.4539,-3.4465,-3.4431,-3.4386,-3.4363,-3.4351,-3.4363,-3.4328,-3.4316,-3.4293,-3.4288,-3.4269,-3.4233,-3.4161,-3.4111,-3.4074,-3.4036,-3.3985,-3.3921,-3.4199,-3.4564,-3.4683,-3.5018,-3.5404,-3.5569,-3.5628,-3.5665,-3.5591,-3.4981,-3.4357,-3.4302,-3.4064,-3.41,-3.3954,-3.3954,-3.3807,-3.3807,-3.3793,-3.378,-3.3753,-3.3712,-3.3657,-3.3601,-3.3534,-3.3433,-3.3422,-3.3393,-3.3393,-3.3393,-3.3393,-3.3393,-4.9262,-4.9057,-4.9121,-4.8412,-4.7286,-4.714,-4.6742,-4.6261,-4.6271,-4.6294,-4.6303,-4.6289,-4.6289,-4.6289,-4.6289,-4.6289,-4.6289,-4.6289,-4.6289,-4.6289,-4.6289,-4.6289,-4.6289,-4.6289,-4.6152,-4.5957,-4.4433,-4.3594,-4.2871,-4.1971,-4.1104,-4.1111,-4.1098,-4.1064,-4.1002,-4.0939,-4.0873,-4.0809,-4.0802,-4.0784,-4.0469,-3.9309,-3.8524,-3.7765,-3.6762,-3.5714,-3.5554,-3.5502,-3.5501,-3.5494,-3.55,-3.5467,-3.5439,-3.5412,-3.5391,-3.5342,-3.5281,-3.5226,-3.5089,-3.4973,-3.487,-3.4841,-3.484,-3.4769,-3.4668,-3.4586,-3.4542,-3.4528,-3.4476,-3.4476,-3.4454,-3.4473,-3.4461,-3.445,-3.445,-3.445,-3.445,-3.4381,-3.4293,-3.4269,-3.4221,-3.4148,-3.4074,-3.3991,-3.4018,-3.3976,-3.4243,-3.4683,-3.4761,-3.4784,-3.4766,-3.4798,-3.4523,-3.399,-3.3935,-3.3844,-3.3825,-3.3807,-3.3807,-3.3807,-3.3807,-3.3807,-3.3793,-3.378,-3.3734,-3.3712,-3.3657,-3.3563,-3.3462,-3.3452,-3.3422,-3.3408,-3.3393,-3.3393,-3.3393,-4.8005,-4.7277,-4.737,-4.7333,-4.71,-4.6473,-4.6204,-4.6183,-4.6194,-4.6246,-4.6302,-4.6289,-4.6289,-4.6289,-4.6289,-4.6289,-4.6289,-4.6289,-4.6289,-4.6289,-4.6289,-4.6289,-4.6289,-4.6191,-4.5879,-4.5156,-4.4141,-4.332,-4.25,-4.1718,-4.1205,-4.1116,-4.1111,-4.1073,-4.1002,-4.092,-4.0868,-4.0804,-4.0796,-4.0797,-4.0526,-3.9754,-3.8923,-3.8106,-3.7231,-3.6382,-3.5649,-3.5541,-3.5502,-3.5502,-3.5515,-3.552,-3.5514,-3.5488,-3.5467,-3.542,-3.5405,-3.5342,-3.5227,-3.513,-3.5044,-3.4992,-3.4927,-3.4879,-3.4821,-3.4792,-3.4781,-3.4739,-3.4678,-3.4658,-3.4636,-3.4634,-3.4634,-3.4615,-3.4615,-3.4596,-3.4615,-3.4583,-3.4528,-3.4484,-3.4409,-3.434,-3.4293,-3.4221,-3.4055,-3.4015,-3.3937,-3.4328,-3.4214,-3.4201,-3.4096,-3.4077,-3.4027,-3.3844,-3.3844,-3.3807,-3.3807,-3.3807,-3.3807,-3.3807,-3.3807,-3.3807,-3.3807,-3.3807,-3.378,-3.3753,-3.3712,-3.3633,-3.3549,-3.3509,-3.3466,-3.3437,-3.3408,-3.3393,-3.3393,-4.7076,-4.6329,-4.6343,-4.6358,-4.6383,-4.6141,-4.606,-4.6146,-4.6178,-4.6243,-4.6305,-4.6289,-4.6289,-4.6289,-4.6289,-4.6289,-4.6289,-4.6289,-4.6289,-4.6289,-4.6289,-4.6289,-4.6289,-4.6152,-4.584,-4.4941,-4.4101,-4.3262,-4.2402,-4.1543,-4.1211,-4.1102,-4.1101,-4.1067,-4.0997,-4.0911,-4.0833,-4.0815,-4.0802,-4.0797,-4.0616,-3.9933,-3.907,-3.8194,-3.7339,-3.6458,-3.5737,-3.5611,-3.556,-3.5554,-3.556,-3.5573,-3.5567,-3.5567,-3.5528,-3.5482,-3.5456,-3.5429,-3.5345,-3.5262,-3.5193,-3.5124,-3.5044,-3.5,-3.4973,-3.4964,-3.4908,-3.486,-3.484,-3.4831,-3.4811,-3.4801,-3.4801,-3.4791,-3.4791,-3.4762,-3.4752,-3.4751,-3.473,-3.466,-3.4626,-3.4591,-3.4528,-3.4484,-3.4269,-3.4105,-3.4011,-3.3928,-3.3895,-3.3868,-3.3855,-3.3842,-3.3847,-3.3847,-3.3847,-3.3834,-3.3807,-3.382,-3.382,-3.3807,-3.3807,-3.3807,-3.3807,-3.3807,-3.3807,-3.378,-3.3739,-3.3689,-3.3619,-3.3549,-3.3509,-3.3452,-3.3422,-3.3408,-3.3393,-4.6348,-4.5826,-4.5807,-4.5828,-4.5892,-4.5969,-4.6018,-4.6111,-4.6164,-4.6216,-4.6306,-4.6289,-4.6289,-4.6289,-4.6289,-4.6289,-4.6289,-4.6289,-4.6289,-4.6289,-4.6289,-4.6289,-4.623,-4.5898,-4.5332,-4.459,-4.373,-4.2832,-4.1953,-4.1445,-4.1211,-4.1125,-4.1111,-4.1081,-4.1026,-4.0906,-4.0818,-4.0796,-4.0814,-4.0797,-4.07,-4.0255,-3.9243,-3.8406,-3.7634,-3.6739,-3.5973,-3.5608,-3.561,-3.5604,-3.5598,-3.5617,-3.5617,-3.5598,-3.5566,-3.5534,-3.5515,-3.5509,-3.5429,-3.5342,-3.5273,-3.5215,-3.5198,-3.5157,-3.5153,-3.5119,-3.5082,-3.5019,-3.5001,-3.4973,-3.4982,-3.4973,-3.4955,-3.4945,-3.4946,-3.4927,-3.4917,-3.4908,-3.4889,-3.486,-3.4811,-3.479,-3.472,-3.466,-3.4487,-3.4293,-3.4136,-3.4061,-3.3998,-3.3972,-3.3947,-3.3921,-3.3895,-3.3881,-3.3887,-3.3873,-3.386,-3.3847,-3.3847,-3.382,-3.3807,-3.382,-3.382,-3.3807,-3.3807,-3.3807,-3.378,-3.3744,-3.3675,-3.3605,-3.3534,-3.3462,-3.3433,-3.3419,-3.3393,-4.5845,-4.5807,-4.5807,-4.5828,-4.5905,-4.598,-4.6042,-4.6107,-4.6177,-4.6228,-4.6302,-4.6289,-4.6289,-4.6289,-4.6289,-4.6289,-4.6289,-4.6289,-4.6289,-4.6289,-4.6289,-4.6289,-4.5937,-4.5469,-4.4746,-4.373,-4.2988,-4.2246,-4.1328,-4.1269,-4.1172,-4.1126,-4.1111,-4.1103,-4.1087,-4.0958,-4.0853,-4.0801,-4.0808,-4.0803,-4.0758,-4.0545,-3.9533,-3.8502,-3.7883,-3.6988,-3.6002,-3.5637,-3.5626,-3.5639,-3.5622,-3.5616,-3.5616,-3.561,-3.5604,-3.5598,-3.5598,-3.5579,-3.5502,-3.5374,-3.5323,-3.5327,-3.5304,-3.5289,-3.5293,-3.5269,-3.5226,-3.5168,-3.5157,-3.513,-3.5113,-3.5115,-3.5098,-3.5108,-3.51,-3.5072,-3.5072,-3.5072,-3.5054,-3.5027,-3.501,-3.4983,-3.4908,-3.4821,-3.468,-3.4498,-3.4305,-3.4197,-3.4136,-3.4099,-3.4068,-3.4005,-3.3985,-3.3972,-3.3959,-3.3908,-3.3895,-3.3881,-3.3887,-3.3873,-3.386,-3.3842,-3.3847,-3.382,-3.382,-3.3815,-3.382,-3.3807,-3.3739,-3.3657,-3.3563,-3.3491,-3.3462,-3.3433,-3.3422,-4.5805,-4.5807,-4.5807,-4.5854,-4.5899,-4.5931,-4.6005,-4.6102,-4.6173,-4.6243,-4.6301,-4.6288,-4.6289,-4.6289,-4.6289,-4.6289,-4.6289,-4.6289,-4.6289,-4.6289,-4.625,-4.5859,-4.5469,-4.498,-4.418,-4.3125,-4.2383,-4.1933,-4.123,-4.1191,-4.1152,-4.1106,-4.1101,-4.1075,-4.1018,-4.0907,-4.0812,-4.0796,-4.0814,-4.0797,-4.0719,-4.0216,-3.9404,-3.8193,-3.7677,-3.6845,-3.5825,-3.5673,-3.5668,-3.5668,-3.5651,-3.5651,-3.5651,-3.567,-3.5645,-3.5633,-3.5608,-3.559,-3.556,-3.5483,-3.5435,-3.5434,-3.5398,-3.5383,-3.5369,-3.532,-3.5304,-3.5289,-3.527,-3.5235,-3.5227,-3.5246,-3.5239,-3.5239,-3.5239,-3.5239,-3.5219,-3.5231,-3.5223,-3.5215,-3.519,-3.5141,-3.5089,-3.5037,-3.4898,-3.4821,-3.4649,-3.4443,-3.4351,-3.4305,-3.425,-3.4142,-3.4099,-3.4055,-3.403,-3.4036,-3.4011,-3.3998,-3.3972,-3.3959,-3.3934,-3.3921,-3.3895,-3.3881,-3.3868,-3.3855,-3.3847,-3.382,-3.3807,-3.3739,-3.3629,-3.3563,-3.352,-3.3495,-3.3466,-4.5803,-4.5805,-4.58,-4.584,-4.5867,-4.5893,-4.598,-4.613,-4.6189,-4.6228,-4.6301,-4.6288,-4.6289,-4.6289,-4.6289,-4.6289,-4.6289,-4.6289,-4.6289,-4.625,-4.5918,-4.5527,-4.5058,-4.4355,-4.3418,-4.25,-4.2031,-4.1621,-4.1211,-4.1191,-4.1152,-4.1099,-4.1105,-4.1061,-4.0996,-4.0903,-4.0818,-4.0815,-4.0794,-4.0603,-4.0274,-3.9694,-3.894,-3.7928,-3.7174,-3.6516,-3.5936,-3.5704,-3.5704,-3.5704,-3.5704,-3.5704,-3.5704,-3.5704,-3.5679,-3.5662,-3.5606,-3.5595,-3.559,-3.556,-3.5522,-3.5528,-3.5462,-3.5427,-3.5427,-3.5405,-3.5391,-3.5364,-3.5364,-3.5338,-3.533,-3.535,-3.5342,-3.5342,-3.5308,-3.5308,-3.5308,-3.53,-3.53,-3.53,-3.5293,-3.5262,-3.5231,-3.5218,-3.5124,-3.5073,-3.5001,-3.4791,-3.4583,-3.452,-3.4465,-3.4374,-3.4293,-3.4281,-3.4233,-3.4185,-3.4148,-3.413,-3.4099,-3.4099,-3.4036,-3.4011,-3.3985,-3.3941,-3.3915,-3.3908,-3.386,-3.3834,-3.382,-3.3793,-3.3739,-3.3643,-3.3591,-3.3534,-3.3524,-4.58,-4.5815,-4.5805,-4.5807,-4.5821,-4.5867,-4.6012,-4.6196,-4.6211,-4.6243,-4.6301,-4.6306,-4.6289,-4.6289,-4.6289,-4.6211,-4.6113,-4.6133,-4.5996,-4.5801,-4.5215,-4.4902,-4.4238,-4.334,-4.2676,-4.2168,-4.1738,-4.1426,-4.1191,-4.1191,-4.1152,-4.1112,-4.11,-4.1055,-4.1,-4.0761,-4.0645,-4.053,-4.0485,-4.0087,-3.9539,-3.9191,-3.8301,-3.7406,-3.6767,-3.6323,-3.5897,-3.5704,-3.5704,-3.5704,-3.5704,-3.5704,-3.5704,-3.5704,-3.5704,-3.5679,-3.5618,-3.5631,-3.562,-3.5596,-3.5604,-3.5579,-3.5554,-3.552,-3.5481,-3.5474,-3.546,-3.546,-3.5453,-3.5427,-3.542,-3.5405,-3.5391,-3.5364,-3.533,-3.533,-3.5323,-3.5342,-3.5323,-3.533,-3.533,-3.5315,-3.5335,-3.5304,-3.5266,-3.5234,-3.5168,-3.5065,-3.4879,-3.478,-3.471,-3.4596,-3.4531,-3.4506,-3.445,-3.4374,-3.4347,-3.4323,-3.4269,-3.4257,-3.4185,-3.4136,-3.4136,-3.4111,-3.4018,-3.3972,-3.3881,-3.3847,-3.382,-3.3793,-3.3766,-3.3726,-3.3643,-3.3619,-3.3591,-4.5754,-4.5807,-4.5803,-4.5798,-4.5821,-4.591,-4.6066,-4.618,-4.6209,-4.6243,-4.6301,-4.6306,-4.6269,-4.6289,-4.6289,-4.5918,-4.5566,-4.5273,-4.4883,-4.457,-4.4277,-4.373,-4.3183,-4.2637,-4.207,-4.166,-4.1348,-4.1191,-4.1191,-4.1171,-4.1147,-4.1115,-4.1103,-4.1061,-4.0762,-4.0332,-4.0087,-3.9882,-3.9826,-3.9332,-3.8624,-3.8141,-3.7406,-3.6922,-3.6342,-3.5974,-3.58,-3.5704,-3.5704,-3.5704,-3.5704,-3.5704,-3.5704,-3.5704,-3.5704,-3.5704,-3.5679,-3.5673,-3.5648,-3.5626,-3.5608,-3.5628,-3.5585,-3.5554,-3.5515,-3.5489,-3.5488,-3.5481,-3.55,-3.5467,-3.546,-3.5453,-3.5446,-3.542,-3.5412,-3.5412,-3.5405,-3.5405,-3.5412,-3.5412,-3.5393,-3.5393,-3.5412,-3.5391,-3.5361,-3.5335,-3.5304,-3.5218,-3.5134,-3.502,-3.4917,-3.4821,-3.474,-3.4689,-3.4666,-3.4594,-3.455,-3.4506,-3.4484,-3.4431,-3.4386,-3.4351,-3.4335,-3.4233,-3.4136,-3.4023,-3.3908,-3.3887,-3.3847,-3.382,-3.3793,-3.3753,-3.3726,-3.3684,-3.3643,-4.5714,-4.5781,-4.5773,-4.5817,-4.586,-4.596,-4.6061,-4.6142,-4.6201,-4.6238,-4.6299,-4.6304,-4.6113,-4.5762,-4.5683,-4.5312,-4.4512,-4.4473,-4.4238,-4.3945,-4.332,-4.2969,-4.2519,-4.207,-4.1641,-4.1308,-4.1191,-4.1191,-4.1172,-4.1131,-4.1107,-4.1116,-4.1109,-4.0844,-4.0451,-3.9949,-3.9237,-3.8952,-3.8673,-3.8377,-3.7798,-3.7135,-3.6845,-3.64,-3.5858,-3.5762,-3.5704,-3.5704,-3.5704,-3.5704,-3.5704,-3.5704,-3.5704,-3.5704,-3.5704,-3.5704,-3.5704,-3.5704,-3.5679,-3.5673,-3.5662,-3.5631,-3.5614,-3.559,-3.5554,-3.5509,-3.5495,-3.5488,-3.5488,-3.5481,-3.55,-3.55,-3.5481,-3.5481,-3.5481,-3.5481,-3.5481,-3.5481,-3.5481,-3.5481,-3.5481,-3.5474,-3.5467,-3.5453,-3.5427,-3.5412,-3.5391,-3.5327,-3.525,-3.5168,-3.5063,-3.4973,-3.4917,-3.4869,-3.483,-3.48,-3.473,-3.4699,-3.466,-3.4628,-3.4586,-3.4539,-3.4473,-3.437,-3.424,-3.4099,-3.3959,-3.3926,-3.3887,-3.3847,-3.3807,-3.3793,-3.3766,-3.3753,-3.3712,-4.5693,-4.5709,-4.5777,-4.5844,-4.59,-4.5968,-4.6046,-4.6063,-4.6044,-4.6169,-4.6254,-4.6182,-4.5739,-4.5234,-4.5,-4.4414,-4.3808,-4.3594,-4.3418,-4.3457,-4.2656,-4.2207,-4.1992,-4.1601,-4.1367,-4.125,-4.1191,-4.1191,-4.1172,-4.1132,-4.1108,-4.1099,-4.1104,-4.0786,-4.0058,-3.9606,-3.8801,-3.7801,-3.7647,-3.7459,-3.703,-3.6676,-3.6477,-3.5897,-3.5723,-3.5704,-3.5704,-3.5704,-3.5704,-3.5704,-3.5704,-3.5704,-3.5704,-3.5704,-3.5704,-3.5704,-3.5704,-3.5704,-3.5704,-3.5698,-3.5704,-3.5673,-3.5643,-3.5606,-3.5577,-3.5528,-3.5502,-3.5501,-3.5501,-3.5488,-3.55,-3.55,-3.55,-3.55,-3.55,-3.55,-3.55,-3.55,-3.55,-3.55,-3.55,-3.55,-3.5481,-3.5467,-3.5467,-3.5467,-3.5453,-3.5412,-3.535,-3.5281,-3.5198,-3.5113,-3.5063,-3.502,-3.5001,-3.4964,-3.4898,-3.4851,-3.4831,-3.4782,-3.474,-3.4697,-3.4623,-3.4473,-3.4323,-3.4179,-3.4055,-3.3991,-3.3913,-3.3834,-3.3807,-3.3807,-3.3807,-3.3793,-3.3766,-4.5648,-4.569,-4.575,-4.5817,-4.5847,-4.5956,-4.603,-4.6036,-4.5436,-4.5633,-4.6075,-4.5616,-4.5172,-4.4785,-4.4199,-4.3535,-4.2891,-4.2695,-4.2324,-4.2109,-4.1641,-4.168,-4.1543,-4.1367,-4.1191,-4.1191,-4.1191,-4.1191,-4.1191,-4.1151,-4.111,-4.1105,-4.1016,-4.0526,-3.9691,-3.9205,-3.8148,-3.6996,-3.6629,-3.6522,-3.6206,-3.603,-3.582,-3.5704,-3.5704,-3.5704,-3.5704,-3.5704,-3.5704,-3.5704,-3.5704,-3.5704,-3.5704,-3.5704,-3.5704,-3.5704,-3.5704,-3.5704,-3.5704,-3.5704,-3.5704,-3.5704,-3.5673,-3.5643,-3.5595,-3.5521,-3.5483,-3.5489,-3.5489,-3.5494,-3.55,-3.55,-3.55,-3.55,-3.55,-3.55,-3.55,-3.55,-3.55,-3.55,-3.55,-3.55,-3.55,-3.55,-3.55,-3.55,-3.5493,-3.546,-3.5453,-3.5383,-3.5327,-3.5254,-3.519,-3.516,-3.5134,-3.51,-3.5047,-3.502,-3.5001,-3.4946,-3.486,-3.4769,-3.4685,-3.4547,-3.4404,-3.4221,-3.4086,-3.4011,-3.3934,-3.3847,-3.3807,-3.3807,-3.3807,-3.3807,-3.3793,-4.5631,-4.5676,-4.5742,-4.5765,-4.5812,-4.5899,-4.5784,-4.5429,-4.5056,-4.4969,-4.5091,-4.4634,-4.4234,-4.3925,-4.33,-4.2715,-4.2012,-4.1875,-4.1699,-4.1348,-4.1191,-4.125,-4.1191,-4.1191,-4.1191,-4.1191,-4.1191,-4.1191,-4.1191,-4.1172,-4.1151,-4.1011,-4.0788,-4.015,-3.9286,-3.8377,-3.7517,-3.658,-3.598,-3.5785,-3.5718,-3.5722,-3.5709,-3.5704,-3.5704,-3.5704,-3.5704,-3.5704,-3.5704,-3.5704,-3.5704,-3.5704,-3.5704,-3.5704,-3.5704,-3.5704,-3.5704,-3.5704,-3.5704,-3.5704,-3.5704,-3.5704,-3.5704,-3.5673,-3.5648,-3.5596,-3.5534,-3.5522,-3.5496,-3.5502,-3.5488,-3.55,-3.55,-3.55,-3.55,-3.55,-3.55,-3.55,-3.55,-3.55,-3.55,-3.55,-3.55,-3.55,-3.55,-3.55,-3.55,-3.55,-3.5474,-3.5467,-3.542,-3.5372,-3.5304,-3.525,-3.5218,-3.5204,-3.517,-3.5172,-3.5147,-3.5057,-3.4955,-3.4839,-3.4716,-3.4591,-3.4439,-3.4257,-3.4136,-3.4049,-3.3934,-3.3829,-3.382,-3.3807,-3.3807,-3.3807,-3.3807,-4.5518,-4.5441,-4.5357,-4.5383,-4.546,-4.5498,-4.5136,-4.4598,-4.4522,-4.4121,-4.3606,-4.3414,-4.29,-4.2613,-4.2205,-4.1738,-4.1445,-4.1445,-4.125,-4.1211,-4.1191,-4.1191,-4.1191,-4.1191,-4.1191,-4.1191,-4.1191,-4.1191,-4.1191,-4.1172,-4.1074,-4.0837,-4.017,-3.936,-3.8468,-3.7683,-3.6902,-3.6265,-3.5834,-3.581,-3.5766,-3.5737,-3.5706,-3.5715,-3.5709,-3.5704,-3.5704,-3.5704,-3.5704,-3.5704,-3.5704,-3.5704,-3.5704,-3.5704,-3.5704,-3.5704,-3.5704,-3.5704,-3.5704,-3.5704,-3.5704,-3.5704,-3.5704,-3.5704,-3.5679,-3.5656,-3.5596,-3.554,-3.5522,-3.5489,-3.5501,-3.55,-3.55,-3.55,-3.55,-3.55,-3.55,-3.55,-3.55,-3.55,-3.55,-3.55,-3.55,-3.55,-3.55,-3.55,-3.55,-3.55,-3.55,-3.5474,-3.546,-3.5427,-3.5391,-3.5354,-3.5316,-3.5269,-3.5237,-3.5231,-3.5198,-3.5119,-3.502,-3.4898,-3.4769,-3.4634,-3.4484,-3.4335,-3.4173,-3.4061,-3.3947,-3.3842,-3.3847,-3.3847,-3.3807,-3.3807,-3.3807,-4.5182,-4.4498,-4.3885,-4.3663,-4.3743,-4.3802,-4.3709,-4.3568,-4.3069,-4.2685,-4.249,-4.1931,-4.1756,-4.2339,-4.1599,-4.121,-4.1229,-4.1172,-4.1191,-4.1211,-4.1191,-4.1191,-4.1191,-4.1191,-4.1191,-4.1191,-4.1191,-4.1191,-4.1113,-4.1113,-4.08,-4.0193,-4.0037,-3.9074,-3.7732,-3.7088,-3.6718,-3.6123,-3.5846,-3.5823,-3.5782,-3.5737,-3.5713,-3.5711,-3.5715,-3.5709,-3.5704,-3.5704,-3.5704,-3.5704,-3.5704,-3.5704,-3.5704,-3.5704,-3.5704,-3.5704,-3.5704,-3.5704,-3.5704,-3.5704,-3.5704,-3.5704,-3.5704,-3.5704,-3.5704,-3.5698,-3.5639,-3.5578,-3.5554,-3.5489,-3.5501,-3.5488,-3.55,-3.55,-3.55,-3.55,-3.55,-3.55,-3.55,-3.55,-3.55,-3.55,-3.55,-3.55,-3.55,-3.55,-3.55,-3.55,-3.55,-3.55,-3.55,-3.5474,-3.546,-3.5427,-3.5372,-3.5324,-3.5285,-3.5261,-3.5229,-3.5162,-3.5092,-3.4983,-3.484,-3.4699,-3.4561,-3.4416,-3.4257,-3.4124,-3.4023,-3.3934,-3.3895,-3.3887,-3.3847,-3.382,-3.382]},{"header":{"parameterUnit":"m.s-1","parameterCategory":1,"la1":31.0,"la2":29.5877,"lo1":-88.7671,"lo2":-86.6584,"dy":0.0162,"dx":0.0185,"nx":115,"ny":88,"refTime":"2024-05-20T06:00:00:Z","depth":0,"parameterNumber":3,"parameterNumberName":"V-component_of_WINDS"},"data":[0.0,0.0,0.0,0.0,0.0,0.0,0.0,0.0,0.0,0.0,0.0,0.0,0.0,0.0,0.0,0.0,0.0,0.0,0.0,0.0,0.0,0.0,0.0,0.0,0.0,0.0,0.0,0.0,0.0,0.0,0.0,0.0,0.0,0.0,0.0,0.0,0.0,0.0,0.0,0.0,0.0,0.0,0.0,0.0,0.0,0.0,0.0,0.0,0.0,0.0,0.0,0.0,0.0,0.0,0.0,0.0,0.0,0.0,0.0,0.0,0.0,0.0,0.0,0.0,0.0,0.0,0.0,0.0,0.0,0.0,0.0,0.0,0.0,0.0,0.0,0.0,0.0,0.0,0.0,0.0,0.0,0.0,0.0,0.0,0.0,0.0,0.0,0.0,0.0,0.0,0.0,0.0,0.0,0.0,0.0,0.0,0.0,0.0,0.0,0.0,0.0,0.0,0.0,0.0,0.0,0.0,0.0,0.0,0.0,0.0,0.0,0.0,0.0,0.0,0.0,0.0,0.0,0.0,0.0,0.0,0.0,0.0,0.0,0.0,0.0,0.0,0.0,0.0,0.0,0.0,0.0,0.0,0.0,0.0,0.0,0.0,0.0,0.0,0.0,0.0,0.0,0.0,0.0,0.0,0.0,0.0,0.0,0.0,0.0,0.0,0.0,0.0,0.0,0.0,0.0,0.0,0.0,0.0,0.0,0.0,0.0,0.0,0.0,0.0,0.0,0.0,0.0,0.0,0.0,0.0,0.0,0.0,0.0,0.0,0.0,0.0,0.0,0.0,0.0,0.0,0.0,0.0,0.0,0.0,0.0,0.0,0.0,0.0,0.0,0.0,0.0,0.0,0.0,0.0,0.0,0.0,0.0,0.0,0.0,0.0,0.0,0.0,0.0,0.0,0.0,0.0,0.0,0.0,0.0,0.0,0.0,0.0,0.0,0.0,0.0,0.0,0.0,0.0,0.0,0.0,0.0,0.0,0.0,0.0,0.0,0.0,0.0,0.0,0.0,0.0,0.0,0.0,0.0,0.0,0.0,0.0,0.0,0.0,0.0,0.0,0.0,0.0,0.0,0.0,0.0,0.0,0.0,0.0,0.0,0.0,0.0,0.0,0.0,0.0,0.0,0.0,0.0,0.0,0.0,0.0,0.0,0.0,0.0,0.0,0.0,0.0,0.0,0.0,0.0,0.0,0.0,0.0,0.0,0.0,0.0,0.0,0.0,0.0,0.0,0.0,0.0,0.0,0.0,0.0,0.0,0.0,0.0,0.0,0.0,0.0,0.0,0.0,0.0,0.0,0.0,0.0,0.0,0.0,0.0,0.0,0.0,0.0,0.0,0.0,0.0,0.0,0.0,0.0,0.0,0.0,0.0,0.0,0.0,0.0,0.0,0.0,0.0,0.0,0.0,0.0,0.0,0.0,0.0,0.0,0.0,0.0,0.0,0.0,0.0,0.0,0.0,0.0,0.0,0.0,0.0,0.0,0.0,0.0,0.0,0.0,0.0,0.0,0.0,0.0,0.0,0.0,0.0,0.0,0.0,0.0,0.0,0.0,0.0,0.0,0.0,0.0,0.0,0.0,0.0,0.0,0.0,0.0,0.0,0.0,0.0,0.0,0.0,0.0,0.0,0.0,0.0,0.0,0.0,0.0,0.0,0.0,0.0,0.0,0.0,0.0,0.0,0.0,0.0,0.0,0.0,0.0,0.0,0.0,0.0,0.0,0.0,0.0,0.0,0.0,0.0,0.0,0.0,0.0,0.0,0.0,0.0,0.0,0.0,0.0,0.0,0.0,0.0,0.0,0.0,0.0,0.0,0.0,0.0,0.0,0.0,0.0,0.0,0.0,0.0,0.0,0.0,0.0,0.0,0.0,0.0,0.0,0.0,0.0,0.0,0.0,0.0,0.0,0.0,0.0,0.0,0.0,0.0,0.0,0.0,0.0,0.0,0.0,0.0,0.0,0.0,0.0,0.0,0.0,0.0,0.0,0.0,0.0,0.0,0.0,0.0,0.0,0.0,0.0,0.0,0.0,0.0,0.0,0.0,0.0,0.0,0.0,0.0,0.0,0.0,0.0,0.0,0.0,0.0,0.0,0.0,0.0,0.0,0.0,0.0,0.0,0.0,0.0,0.0,0.0,0.0,0.0,0.0,0.0,0.0,0.0,0.0,0.0,0.0,0.0,0.0,0.0,0.0,0.0,0.0,0.0,0.0,0.0,0.0,0.0,0.0,0.0,0.0,0.0,0.0,0.0,0.0,0.0,0.0,0.0,0.0,0.0,0.0,0.0,0.0,0.0,0.0,0.0,0.0,0.0,0.0,0.0,0.0,0.0,0.0,0.0,0.0,0.0,0.0,0.0,0.0,0.0,0.0,0.0,0.0,0.0,0.0,0.0,0.0,0.0,0.0,0.0,0.0,0.0,0.0,0.0,0.0,0.0,0.0,0.0,0.0,0.0,0.0,0.0,0.0,0.0,0.0,0.0,0.0,0.0,0.0,0.0,0.0,0.0,0.0,0.0,0.0,0.0,0.0,0.0,0.0,0.0,0.0,0.0,0.0,0.0,0.0,0.0,0.0,0.0,0.0,0.0,0.0,0.0,0.0,0.0,0.0,0.0,0.0,0.0,0.0,0.0,0.0,0.0,0.0,0.0,0.0,0.0,0.0,0.0,0.0,0.0,0.0,0.0,0.0,0.0,0.0,0.0,0.0,0.0,0.0,0.0,0.0,0.0,0.0,0.0,0.0,0.0,0.0,0.0,0.0,0.0,0.0,0.0,0.0,0.0,0.0,0.0,0.0,0.0,0.0,0.0,0.0,0.0,0.0,0.0,0.0,0.0,0.0,0.0,0.0,0.0,0.0,0.0,0.0,0.0,0.0,0.0,0.0,0.0,0.0,0.0,0.0,0.0,0.0,0.0,0.0,0.0,0.0,0.0,0.0,0.0,0.0,0.0,0.0,0.0,0.0,0.0,0.0,0.0,0.0,0.0,0.0,0.0,0.0,0.0,0.0,0.0,0.0,0.0,0.0,0.0,0.0,0.0,0.0,0.0,0.0,0.0,0.0,0.0,0.0,0.0,0.0,0.0,0.0,0.0,0.0,0.0,0.0,0.0,0.0,0.0,0.0,0.0,0.0,0.0,0.0,0.0,0.0,0.0,0.0,0.0,0.0,0.0,0.0,0.0,0.0,0.0,0.0,0.0,0.0,0.0,0.0,0.0,0.0,0.0,0.0,0.0,0.0,0.0,0.0,0.0,0.0,0.0,0.0,0.0,0.0,0.0,0.0,0.0,0.0,0.0,0.0,0.0,0.0,0.0,0.0,0.0,0.0,0.0,0.0,0.0,0.0,0.0,0.0,0.0,0.0,0.0,0.0,0.0,0.0,0.0,0.0,0.0,0.0,0.0,0.0,0.0,0.0,0.0,0.0,0.0,0.0,0.0,0.0,0.0,0.0,0.0,0.0,0.0,0.0,0.0,0.0,0.0,0.0,0.0,0.0,0.0,0.0,0.0,0.0,0.0,0.0,0.0,0.0,0.0,0.0,0.0,0.0,0.0,0.0,0.0,0.0,0.0,0.0,0.0,0.0,0.0,0.0,0.0,0.0,0.0,0.0,0.0,0.0,0.0,0.0,0.0,0.0,0.0,0.0,0.0,0.0,0.0,0.0,0.0,0.0,0.0,0.0,0.0,0.0,0.0,0.0,0.0,0.0,0.0,0.0,0.0,0.0,0.0,0.0,0.0,0.0,0.0,0.0,0.0,0.0,0.0,0.0,0.0,0.0,0.0,0.0,0.0,0.0,0.0,0.0,0.0,0.0,0.0,0.0,0.0,0.0,0.0,0.0,0.0,0.0,0.0,0.0,0.0,0.0,0.0,0.0,0.0,0.0,0.0,0.0,0.0,0.0,0.0,0.0,0.0,0.0,0.0,0.0,0.0,0.0,0.0,0.0,0.0,0.0,0.0,0.0,0.0,0.0,0.0,0.0,0.0,0.0,0.0,0.0,0.0,0.0,0.0,0.0,0.0,0.0,0.0,0.0,0.0,0.0,0.0,0.0,0.0,0.0,0.0,0.0,0.0,0.0,0.0,0.0,0.0,0.0,0.0,0.0,0.0,0.0,0.0,0.0,0.0,0.0,0.0,0.0,0.0,0.0,0.0,0.0,0.0,0.0,0.0,0.0,0.0,0.0,0.0,0.0,0.0,0.0,0.0,0.0,0.0,0.0,0.0,0.0,0.0,0.0,0.0,0.0,0.0,0.0,0.0,0.0,0.0,-1.3047,0.0,0.0,0.0,0.0,0.0,0.0,0.0,0.0,0.0,0.0,0.0,0.0,0.0,0.0,0.0,0.0,0.0,0.0,0.0,0.0,0.0,0.0,0.0,0.0,0.0,0.0,0.0,0.0,0.0,0.0,0.0,0.0,0.0,0.0,0.0,0.0,0.0,0.0,0.0,0.0,0.0,0.0,0.0,0.0,0.0,0.0,0.0,0.0,0.0,0.0,0.0,0.0,0.0,0.0,0.0,0.0,0.0,0.0,0.0,0.0,0.0,0.0,0.0,0.0,0.0,0.0,0.0,0.0,0.0,0.0,0.0,0.0,0.0,0.0,0.0,0.0,0.0,0.0,0.0,0.0,0.0,0.0,0.0,0.0,0.0,0.0,0.0,0.0,0.0,0.0,0.0,0.0,0.0,0.0,0.0,0.0,0.0,0.0,0.0,0.0,0.0,0.0,0.0,0.0,0.0,0.0,0.0,0.0,0.0,0.0,-1.059,-1.1051,-1.1647,-1.2339,-1.3246,0.0,0.0,0.0,0.0,0.0,0.0,0.0,0.0,0.0,0.0,0.0,0.0,0.0,0.0,0.0,0.0,0.0,0.0,0.0,0.0,0.0,0.0,0.0,0.0,0.0,0.0,0.0,0.0,0.0,0.0,0.0,0.0,0.0,0.0,0.0,0.0,0.0,0.0,0.0,0.0,0.0,0.0,0.0,0.0,0.0,0.0,0.0,0.0,0.0,0.0,0.0,0.0,0.0,0.0,0.0,0.0,0.0,0.0,0.0,0.0,0.0,0.0,0.0,0.0,0.0,0.0,0.0,0.0,0.0,0.0,0.0,0.0,0.0,0.0,0.0,0.0,0.0,0.0,0.0,0.0,0.0,0.0,0.0,0.0,0.0,0.0,0.0,0.0,0.0,0.0,0.0,0.0,0.0,0.0,0.0,0.0,0.0,0.0,0.0,0.0,0.0,0.0,0.0,0.0,0.0,0.0,0.0,0.0,0.0,0.0,0.0,0.0,-1.2262,-1.2952,-1.3659,0.0,0.0,0.0,0.0,0.0,0.0,0.0,0.0,0.0,0.0,0.0,0.0,0.0,0.0,0.0,0.0,0.0,0.0,0.0,0.0,0.0,0.0,0.0,0.0,0.0,0.0,0.0,0.0,0.0,0.0,0.0,0.0,0.0,0.0,0.0,0.0,0.0,0.0,0.0,0.0,0.0,0.0,0.0,0.0,0.0,0.0,0.0,0.0,0.0,0.0,0.0,0.0,0.0,0.0,0.0,0.0,0.0,0.0,0.0,0.0,0.0,0.0,0.0,0.0,0.0,0.0,0.0,0.0,0.0,0.0,0.0,0.0,0.0,0.0,0.0,0.0,0.0,0.0,0.0,0.0,0.0,0.0,0.0,0.0,0.0,0.0,0.0,0.0,0.0,0.0,0.0,0.0,0.0,0.0,0.0,0.0,0.0,0.0,0.0,0.0,0.0,0.0,0.0,0.0,0.0,0.0,0.0,0.0,0.0,0.0,-1.1827,-1.2123,-1.3121,0.0,-1.4785,0.0,0.0,0.0,0.0,0.0,0.0,0.0,0.0,0.0,0.0,0.0,0.0,0.0,0.0,0.0,0.0,0.0,0.0,0.0,0.0,0.0,0.0,0.0,0.0,0.0,0.0,0.0,0.0,0.0,0.0,0.0,0.0,0.0,0.0,0.0,0.0,0.0,0.0,0.0,0.0,0.0,0.0,0.0,0.0,0.0,0.0,0.0,0.0,0.0,0.0,0.0,0.0,0.0,0.0,0.0,0.0,0.0,0.0,0.0,0.0,0.0,0.0,0.0,0.0,0.0,0.0,0.0,0.0,0.0,0.0,0.0,0.0,0.0,0.0,0.0,0.0,0.0,0.0,0.0,0.0,0.0,0.0,0.0,0.0,0.0,0.0,0.0,0.0,0.0,0.0,0.0,0.0,0.0,0.0,0.0,0.0,0.0,0.0,0.0,0.0,0.0,0.0,0.0,0.0,0.0,0.0,0.0,0.0,0.0,0.0,-1.2178,-1.2479,-1.3761,-1.4638,0.0,0.0,0.0,0.0,0.0,0.0,0.0,0.0,0.0,0.0,0.0,0.0,0.0,0.0,0.0,0.0,0.0,0.0,0.0,0.0,0.0,0.0,0.0,0.0,0.0,0.0,0.0,0.0,0.0,0.0,0.0,0.0,0.0,0.0,0.0,0.0,0.0,0.0,0.0,0.0,0.0,0.0,0.0,0.0,0.0,0.0,0.0,0.0,0.0,0.0,0.0,0.0,0.0,0.0,0.0,0.0,0.0,0.0,0.0,0.0,0.0,0.0,0.0,0.0,0.0,0.0,0.0,0.0,0.0,0.0,0.0,0.0,0.0,0.0,0.0,0.0,0.0,0.0,0.0,0.0,0.0,0.0,0.0,0.0,0.0,0.0,0.0,0.0,0.0,0.0,0.0,0.0,0.0,0.0,0.0,0.0,0.0,0.0,0.0,0.0,0.0,0.0,0.0,0.0,0.0,0.0,0.0,0.0,0.0,0.0,-1.2221,-1.2556,-1.3199,-1.4293,-1.5127,-1.5468,0.0,0.0,0.0,0.0,0.0,0.0,0.0,0.0,0.0,0.0,0.0,0.0,0.0,0.0,0.0,0.0,0.0,0.0,0.0,0.0,0.0,0.0,0.0,0.0,0.0,0.0,0.0,0.0,0.0,0.0,0.0,0.0,0.0,0.0,0.0,0.0,0.0,0.0,0.0,0.0,0.0,0.0,0.0,0.0,0.0,0.0,0.0,0.0,0.0,0.0,0.0,0.0,0.0,0.0,0.0,0.0,0.0,0.0,0.0,0.0,0.0,0.0,0.0,0.0,0.0,0.0,0.0,0.0,0.0,0.0,0.0,0.0,0.0,0.0,0.0,0.0,0.0,0.0,0.0,0.0,0.0,0.0,0.0,0.0,0.0,0.0,0.0,0.0,0.0,0.0,0.0,0.0,0.0,0.0,0.0,0.0,0.0,0.0,0.0,0.0,0.0,0.0,0.0,0.0,0.0,0.0,0.0,0.0,-1.2209,-1.2407,-1.3053,-1.4263,-1.4961,-1.5383,0.0,0.0,0.0,0.0,0.0,0.0,0.0,0.0,0.0,0.0,0.0,0.0,0.0,0.0,0.0,0.0,0.0,0.0,0.0,0.0,0.0,0.0,0.0,0.0,0.0,0.0,0.0,0.0,0.0,0.0,0.0,0.0,0.0,0.0,0.0,0.0,0.0,0.0,0.0,0.0,0.0,0.0,0.0,0.0,0.0,0.0,0.0,0.0,0.0,0.0,0.0,0.0,0.0,0.0,0.0,0.0,0.0,0.0,0.0,0.0,0.0,0.0,0.0,0.0,0.0,0.0,0.0,0.0,0.0,0.0,0.0,0.0,0.0,0.0,0.0,0.0,0.0,0.0,0.0,0.0,0.0,0.0,0.0,0.0,0.0,0.0,0.0,0.0,0.0,0.0,0.0,0.0,0.0,0.0,0.0,0.0,0.0,0.0,0.0,0.0,0.0,0.0,0.0,0.0,0.0,0.0,0.0,0.0,0.0,-1.2653,-1.3029,-1.3792,-1.4795,-1.5118,-1.5494,0.0,0.0,0.0,0.0,0.0,0.0,0.0,0.0,0.0,0.0,0.0,0.0,0.0,0.0,0.0,0.0,0.0,0.0,0.0,0.0,0.0,0.0,0.0,0.0,0.0,0.0,0.0,0.0,0.0,0.0,0.0,0.0,0.0,0.0,0.0,0.0,0.0,0.0,0.0,0.0,0.0,0.0,0.0,0.0,0.0,0.0,0.0,0.0,0.0,0.0,0.0,0.0,0.0,0.0,0.0,0.0,0.0,0.0,0.0,0.0,0.0,0.0,0.0,0.0,0.0,0.0,0.0,0.0,0.0,0.0,0.0,0.0,0.0,0.0,0.0,0.0,0.0,0.0,0.0,0.0,0.0,0.0,0.0,0.0,0.0,0.0,0.0,0.0,0.0,0.0,0.0,0.0,0.0,0.0,0.0,0.0,0.0,0.0,0.0,0.0,0.0,0.0,0.0,0.0,0.0,0.0,0.0,0.0,0.0,-1.3095,0.0,-1.4256,-1.5145,-1.5454,-1.5771,0.0,0.0,0.0,0.0,0.0,0.0,0.0,0.0,0.0,0.0,0.0,0.0,0.0,0.0,0.0,0.0,0.0,0.0,0.0,0.0,0.0,0.0,0.0,0.0,0.0,0.0,0.0,0.0,0.0,0.0,0.0,0.0,0.0,0.0,0.0,0.0,0.0,0.0,0.0,0.0,0.0,0.0,0.0,0.0,0.0,0.0,0.0,0.0,0.0,0.0,0.0,0.0,0.0,0.0,0.0,0.0,0.0,0.0,0.0,0.0,0.0,0.0,0.0,0.0,0.0,0.0,0.0,0.0,0.0,0.0,0.0,0.0,0.0,0.0,0.0,0.0,0.0,0.0,0.0,0.0,0.0,0.0,0.0,0.0,0.0,0.0,0.0,0.0,0.0,0.0,0.0,0.0,0.0,0.0,0.0,0.0,0.0,0.0,0.0,0.0,0.0,0.0,0.0,0.0,0.0,0.0,0.0,0.0,-1.3187,-1.3525,-1.3978,-1.462,-1.5353,-1.5935,-1.6214,0.0,0.0,0.0,0.0,0.0,0.0,0.0,0.0,0.0,0.0,0.0,0.0,0.0,0.0,0.0,0.0,0.0,0.0,0.0,0.0,0.0,0.0,0.0,0.0,0.0,0.0,0.0,0.0,0.0,0.0,0.0,0.0,0.0,0.0,0.0,0.0,0.0,0.0,0.0,0.0,0.0,0.0,0.0,0.0,0.0,0.0,0.0,0.0,0.0,0.0,0.0,0.0,0.0,0.0,0.0,0.0,0.0,0.0,0.0,0.0,0.0,0.0,0.0,0.0,0.0,0.0,0.0,0.0,0.0,0.0,0.0,0.0,0.0,0.0,0.0,0.0,0.0,0.0,0.0,0.0,0.0,0.0,0.0,0.0,0.0,0.0,0.0,0.0,0.0,0.0,0.0,0.0,0.0,0.0,0.0,0.0,0.0,0.0,0.0,0.0,0.0,0.0,0.0,0.0,0.0,0.0,0.0,0.0,0.0,-1.401,-1.4745,-1.5385,-1.585,-1.6258,-1.6496,0.0,0.0,0.0,0.0,0.0,0.0,0.0,0.0,0.0,0.0,0.0,0.0,0.0,0.0,0.0,0.0,0.0,0.0,0.0,0.0,0.0,0.0,0.0,0.0,0.0,0.0,0.0,0.0,0.0,0.0,0.0,0.0,0.0,0.0,0.0,0.0,0.0,0.0,0.0,0.0,0.0,0.0,0.0,0.0,0.0,0.0,0.0,0.0,0.0,0.0,0.0,0.0,0.0,0.0,0.0,0.0,0.0,0.0,0.0,0.0,0.0,0.0,0.0,0.0,0.0,0.0,0.0,0.0,0.0,0.0,0.0,0.0,0.0,0.0,0.0,0.0,0.0,0.0,0.0,0.0,0.0,0.0,0.0,0.0,0.0,0.0,0.0,0.0,0.0,0.0,0.0,0.0,0.0,0.0,0.0,0.0,0.0,0.0,0.0,0.0,0.0,0.0,0.0,0.0,0.0,0.0,0.0,0.0,0.0,-1.5268,-1.5477,-1.5952,-1.6591,-1.6738,-1.687,-1.7021,0.0,0.0,0.0,0.0,0.0,0.0,0.0,0.0,0.0,0.0,0.0,0.0,0.0,0.0,0.0,0.0,0.0,0.0,0.0,0.0,0.0,0.0,0.0,0.0,0.0,0.0,0.0,0.0,0.0,0.0,0.0,0.0,0.0,0.0,0.0,0.0,0.0,0.0,0.0,0.0,0.0,0.0,0.0,0.0,0.0,0.0,0.0,0.0,0.0,0.0,0.0,0.0,0.0,0.0,0.0,0.0,0.0,0.0,0.0,0.0,0.0,0.0,0.0,0.0,0.0,0.0,0.0,0.0,0.0,0.0,0.0,0.0,0.0,0.0,0.0,0.0,0.0,0.0,0.0,0.0,0.0,0.0,0.0,0.0,0.0,0.0,0.0,0.0,0.0,0.0,0.0,0.0,0.0,0.0,0.0,0.0,0.0,0.0,0.0,0.0,0.0,0.0,0.0,0.0,0.0,0.0,0.0,0.0,-1.6985,-1.6183,-1.6307,-1.7479,-1.7301,-1.7276,0.0,0.0,0.0,0.0,0.0,0.0,0.0,0.0,0.0,0.0,0.0,0.0,0.0,0.0,0.0,0.0,0.0,0.0,0.0,0.0,0.0,0.0,0.0,0.0,0.0,0.0,0.0,0.0,0.0,0.0,0.0,0.0,0.0,0.0,0.0,0.0,0.0,0.0,0.0,0.0,0.0,0.0,0.0,0.0,0.0,0.0,0.0,0.0,0.0,0.0,0.0,0.0,0.0,0.0,0.0,0.0,0.0,0.0,0.0,0.0,0.0,0.0,0.0,0.0,0.0,0.0,0.0,0.0,0.0,0.0,0.0,0.0,0.0,0.0,0.0,0.0,0.0,0.0,0.0,0.0,0.0,0.0,0.0,0.0,0.0,0.0,0.0,0.0,0.0,0.0,0.0,0.0,0.0,0.0,0.0,0.0,0.0,0.0,0.0,0.0,0.0,0.0,0.0,0.0,0.0,0.0,0.0,0.0,0.0,-1.7331,-1.7297,-1.7467,-1.7806,-1.7755,-1.7724,0.0,0.0,0.0,0.0,0.0,0.0,0.0,0.0,0.0,0.0,0.0,0.0,0.0,0.0,0.0,0.0,0.0,0.0,0.0,0.0,0.0,0.0,0.0,0.0,0.0,0.0,0.0,0.0,0.0,0.0,0.0,0.0,0.0,0.0,0.0,0.0,0.0,0.0,0.0,0.0,0.0,0.0,0.0,0.0,0.0,0.0,0.0,0.0,0.0,0.0,0.0,0.0,0.0,0.0,0.0,0.0,0.0,0.0,0.0,0.0,0.0,0.0,0.0,0.0,0.0,0.0,0.0,0.0,0.0,0.0,0.0,0.0,0.0,0.0,0.0,0.0,0.0,0.0,0.0,0.0,0.0,0.0,0.0,0.0,0.0,0.0,0.0,0.0,0.0,0.0,0.0,0.0,0.0,0.0,0.0,0.0,0.0,0.0,0.0,0.0,0.0,0.0,0.0,0.0,0.0,0.0,0.0,0.0,-1.7232,-1.8052,-1.8233,-1.8402,-1.8525,-1.8274,-1.8128,0.0,0.0,0.0,0.0,0.0,0.0,0.0,0.0,0.0,0.0,0.0,0.0,0.0,0.0,0.0,0.0,0.0,0.0,0.0,0.0,0.0,0.0,0.0,0.0,0.0,0.0,0.0,0.0,0.0,0.0,0.0,0.0,0.0,0.0,0.0,0.0,0.0,0.0,0.0,0.0,0.0,0.0,0.0,0.0,0.0,0.0,0.0,0.0,0.0,0.0,0.0,0.0,0.0,0.0,0.0,0.0,0.0,0.0,0.0,0.0,0.0,0.0,0.0,0.0,0.0,0.0,0.0,0.0,0.0,0.0,0.0,0.0,0.0,0.0,0.0,0.0,0.0,0.0,0.0,0.0,0.0,0.0,0.0,0.0,0.0,0.0,0.0,0.0,0.0,0.0,0.0,0.0,0.0,0.0,0.0,0.0,0.0,0.0,0.0,0.0,0.0,0.0,0.0,0.0,0.0,0.0,0.0,0.0,-1.8031,-1.8861,-1.8933,-1.912,-1.9352,-1.8779,-1.8433,0.0,0.0,0.0,0.0,0.0,0.0,0.0,0.0,0.0,0.0,0.0,0.0,0.0,0.0,0.0,0.0,0.0,0.0,0.0,0.0,0.0,0.0,0.0,0.0,0.0,0.0,0.0,0.0,0.0,0.0,0.0,0.0,0.0,0.0,0.0,0.0,0.0,0.0,0.0,0.0,0.0,0.0,0.0,0.0,0.0,0.0,0.0,0.0,0.0,0.0,0.0,0.0,0.0,0.0,0.0,0.0,0.0,0.0,0.0,0.0,0.0,0.0,0.0,0.0,0.0,0.0,0.0,0.0,0.0,0.0,0.0,0.0,0.0,0.0,0.0,0.0,0.0,0.0,0.0,0.0,0.0,0.0,0.0,0.0,0.0,0.0,0.0,0.0,0.0,0.0,0.0,0.0,0.0,0.0,0.0,0.0,0.0,0.0,0.0,0.0,0.0,0.0,0.0,0.0,0.0,0.0,0.0,0.0,-1.8307,-1.8913,-1.9178,-1.9307,-1.9424,-1.9014,-1.8728,0.0,0.0,0.0,0.0,0.0,0.0,0.0,0.0,0.0,0.0,0.0,0.0,0.0,0.0,0.0,0.0,0.0,0.0,0.0,0.0,0.0,0.0,0.0,0.0,0.0,0.0,0.0,0.0,0.0,0.0,0.0,0.0,0.0,0.0,0.0,0.0,0.0,0.0,0.0,0.0,0.0,0.0,0.0,0.0,0.0,0.0,0.0,0.0,-1.8377,0.0,0.0,0.0,0.0,0.0,0.0,0.0,0.0,0.0,0.0,0.0,0.0,0.0,0.0,0.0,0.0,0.0,0.0,0.0,0.0,0.0,0.0,0.0,0.0,0.0,0.0,0.0,0.0,0.0,0.0,0.0,0.0,0.0,0.0,0.0,0.0,0.0,0.0,0.0,0.0,0.0,0.0,0.0,0.0,0.0,0.0,0.0,0.0,0.0,0.0,0.0,0.0,0.0,0.0,0.0,0.0,0.0,0.0,0.0,-1.8539,-1.91,-1.9307,-1.9424,-1.9417,-1.9078,-1.8791,0.0,0.0,0.0,0.0,0.0,0.0,0.0,0.0,0.0,0.0,0.0,0.0,0.0,0.0,0.0,0.0,0.0,0.0,0.0,0.0,0.0,0.0,0.0,0.0,0.0,0.0,0.0,0.0,0.0,0.0,0.0,0.0,0.0,0.0,0.0,0.0,0.0,0.0,0.0,0.0,0.0,0.0,0.0,0.0,0.0,0.0,0.0,0.0,0.0,0.0,0.0,0.0,0.0,0.0,0.0,0.0,0.0,0.0,0.0,0.0,0.0,0.0,0.0,0.0,0.0,0.0,0.0,0.0,0.0,0.0,0.0,0.0,0.0,0.0,0.0,0.0,0.0,0.0,0.0,0.0,0.0,0.0,0.0,0.0,0.0,0.0,0.0,0.0,0.0,0.0,0.0,0.0,0.0,0.0,0.0,0.0,0.0,0.0,0.0,0.0,0.0,0.0,0.0,0.0,0.0,0.0,0.0,-1.847,-1.8758,-1.933,-1.9299,-1.9357,-1.9299,-1.8971,-1.8671,-1.8424,0.0,0.0,0.0,0.0,0.0,0.0,0.0,0.0,0.0,0.0,0.0,0.0,0.0,0.0,0.0,0.0,0.0,0.0,0.0,0.0,0.0,0.0,0.0,0.0,0.0,0.0,0.0,0.0,0.0,0.0,0.0,0.0,0.0,0.0,0.0,0.0,0.0,0.0,-1.676,-1.7483,0.0,0.0,0.0,0.0,0.0,0.0,0.0,0.0,-1.8784,0.0,0.0,0.0,0.0,0.0,0.0,0.0,0.0,0.0,0.0,0.0,0.0,0.0,0.0,0.0,0.0,0.0,0.0,0.0,0.0,0.0,0.0,0.0,0.0,0.0,0.0,0.0,0.0,0.0,0.0,0.0,0.0,0.0,0.0,0.0,0.0,0.0,0.0,0.0,0.0,0.0,0.0,0.0,0.0,0.0,0.0,0.0,0.0,0.0,0.0,0.0,0.0,0.0,0.0,0.0,0.0,-1.8049,-1.8364,-1.8657,-1.8985,-1.8998,-1.8998,-1.8985,-1.8477,-1.8115,-1.8042,0.0,0.0,0.0,0.0,0.0,0.0,0.0,0.0,0.0,0.0,0.0,0.0,0.0,0.0,0.0,0.0,0.0,0.0,0.0,0.0,0.0,0.0,0.0,0.0,0.0,0.0,0.0,0.0,0.0,0.0,0.0,0.0,0.0,0.0,0.0,0.0,0.0,0.0,0.0,-1.7789,-1.8189,0.0,0.0,0.0,0.0,0.0,0.0,0.0,0.0,-1.924,0.0,0.0,0.0,0.0,0.0,0.0,0.0,0.0,0.0,0.0,0.0,0.0,0.0,0.0,0.0,0.0,0.0,0.0,0.0,0.0,0.0,0.0,0.0,0.0,0.0,0.0,0.0,0.0,0.0,0.0,0.0,0.0,0.0,0.0,0.0,0.0,0.0,0.0,0.0,0.0,0.0,0.0,0.0,0.0,0.0,0.0,0.0,0.0,0.0,0.0,0.0,0.0,0.0,0.0,0.0,-1.7782,-1.8103,-1.8404,-1.8684,-1.8698,-1.8698,-1.8691,-1.8222,-1.7969,0.0,0.0,0.0,0.0,0.0,0.0,0.0,0.0,0.0,0.0,0.0,0.0,0.0,0.0,0.0,0.0,0.0,0.0,0.0,0.0,0.0,0.0,0.0,0.0,0.0,0.0,0.0,0.0,0.0,0.0,0.0,0.0,0.0,0.0,0.0,0.0,0.0,0.0,0.0,0.0,-1.8083,-1.849,-1.9072,0.0,0.0,0.0,0.0,0.0,0.0,-1.988,-1.9876,0.0,0.0,0.0,0.0,0.0,0.0,0.0,0.0,0.0,0.0,0.0,0.0,0.0,0.0,0.0,0.0,0.0,0.0,0.0,0.0,0.0,0.0,0.0,0.0,0.0,0.0,0.0,0.0,0.0,0.0,0.0,0.0,0.0,0.0,0.0,0.0,0.0,0.0,0.0,0.0,0.0,0.0,0.0,0.0,0.0,0.0,0.0,0.0,0.0,0.0,0.0,0.0,0.0,0.0,0.0,-1.7488,-1.7856,-1.8163,-1.839,-1.8404,-1.8404,-1.8397,-1.8056,-1.7749,0.0,0.0,0.0,0.0,0.0,0.0,0.0,0.0,0.0,0.0,0.0,0.0,0.0,0.0,0.0,0.0,0.0,0.0,0.0,0.0,0.0,0.0,0.0,0.0,0.0,0.0,0.0,0.0,0.0,0.0,0.0,0.0,0.0,0.0,0.0,0.0,0.0,0.0,0.0,0.0,0.0,-1.876,-1.9394,-1.9482,0.0,0.0,0.0,0.0,-2.0277,-2.027,0.0,0.0,0.0,0.0,0.0,0.0,0.0,0.0,0.0,0.0,0.0,0.0,0.0,0.0,0.0,0.0,0.0,0.0,0.0,0.0,0.0,0.0,0.0,0.0,0.0,0.0,0.0,0.0,0.0,0.0,0.0,0.0,0.0,0.0,0.0,0.0,0.0,0.0,0.0,0.0,0.0,0.0,0.0,0.0,0.0,0.0,0.0,0.0,0.0,0.0,0.0,0.0,0.0,0.0,0.0,0.0,-1.7259,-1.7756,-1.8009,-1.8049,-1.8049,-1.8049,-1.8042,-1.7549,-1.7293,0.0,0.0,0.0,0.0,0.0,0.0,0.0,0.0,0.0,0.0,0.0,0.0,0.0,0.0,0.0,0.0,0.0,0.0,0.0,0.0,0.0,0.0,0.0,0.0,0.0,0.0,0.0,0.0,0.0,0.0,0.0,0.0,0.0,0.0,0.0,0.0,0.0,0.0,0.0,0.0,0.0,-1.881,-1.9618,-1.9758,-1.9873,0.0,0.0,-2.027,-2.027,-2.027,0.0,0.0,0.0,0.0,0.0,0.0,0.0,0.0,0.0,0.0,0.0,0.0,0.0,0.0,0.0,0.0,0.0,0.0,0.0,0.0,0.0,0.0,0.0,0.0,0.0,0.0,0.0,0.0,0.0,0.0,0.0,0.0,0.0,0.0,0.0,0.0,0.0,0.0,0.0,0.0,0.0,0.0,0.0,0.0,0.0,0.0,0.0,0.0,0.0,0.0,0.0,0.0,0.0,0.0,0.0,-1.6529,-1.6718,-1.7384,-1.7782,-1.7782,-1.7782,-1.7782,-1.7776,-1.742,-1.7125,0.0,0.0,0.0,0.0,0.0,0.0,0.0,0.0,0.0,0.0,0.0,0.0,0.0,0.0,0.0,0.0,0.0,0.0,0.0,0.0,0.0,0.0,0.0,0.0,0.0,0.0,0.0,0.0,0.0,0.0,0.0,0.0,0.0,0.0,0.0,0.0,0.0,0.0,0.0,0.0,0.0,0.0,-1.9726,-1.9989,0.0,0.0,0.0,-2.0615,-2.0795,0.0,0.0,0.0,0.0,0.0,0.0,0.0,0.0,0.0,0.0,0.0,0.0,0.0,0.0,0.0,0.0,0.0,0.0,0.0,0.0,0.0,0.0,0.0,0.0,0.0,0.0,0.0,0.0,0.0,0.0,0.0,0.0,0.0,0.0,0.0,0.0,0.0,0.0,0.0,0.0,0.0,0.0,0.0,0.0,0.0,0.0,0.0,0.0,0.0,0.0,0.0,0.0,0.0,0.0,0.0,0.0,0.0,-1.6225,-1.6963,-1.7463,-1.7477,-1.7582,-1.7601,-1.7527,-1.7246,0.0,0.0,0.0,0.0,0.0,0.0,0.0,0.0,0.0,0.0,0.0,0.0,0.0,0.0,0.0,0.0,0.0,0.0,0.0,0.0,0.0,0.0,0.0,0.0,0.0,0.0,0.0,-1.5927,0.0,0.0,0.0,0.0,0.0,0.0,0.0,0.0,0.0,0.0,0.0,0.0,0.0,0.0,-1.9243,-1.9957,-2.0213,-2.05,0.0,0.0,-2.0902,-2.1153,-2.1211,-2.1123,0.0,0.0,0.0,0.0,0.0,0.0,0.0,0.0,0.0,0.0,0.0,0.0,0.0,0.0,0.0,0.0,0.0,0.0,0.0,0.0,0.0,0.0,0.0,0.0,0.0,0.0,0.0,0.0,0.0,0.0,0.0,0.0,0.0,0.0,0.0,0.0,0.0,0.0,0.0,0.0,0.0,0.0,0.0,0.0,0.0,0.0,0.0,0.0,0.0,0.0,0.0,0.0,0.0,0.0,-1.5443,-1.5954,-1.6523,-1.6964,-1.7213,-1.7483,-1.7448,-1.7239,-1.6894,-1.6473,0.0,0.0,0.0,0.0,0.0,0.0,0.0,0.0,0.0,0.0,0.0,0.0,0.0,0.0,0.0,0.0,0.0,0.0,0.0,0.0,0.0,0.0,0.0,0.0,0.0,0.0,0.0,0.0,0.0,0.0,0.0,0.0,0.0,0.0,0.0,0.0,0.0,0.0,0.0,0.0,0.0,-1.9681,-2.0516,-2.0666,-2.0788,0.0,-2.1153,-2.1146,-2.1203,-2.1211,-2.1203,-2.1181,0.0,0.0,0.0,0.0,0.0,0.0,0.0,0.0,0.0,0.0,0.0,0.0,0.0,0.0,0.0,0.0,0.0,0.0,0.0,0.0,0.0,0.0,0.0,0.0,0.0,0.0,0.0,0.0,0.0,0.0,0.0,0.0,0.0,0.0,0.0,0.0,0.0,0.0,0.0,0.0,0.0,0.0,0.0,0.0,0.0,0.0,0.0,0.0,0.0,0.0,0.0,0.0,0.0,-1.4928,-1.5394,-1.6151,-1.6536,-1.6645,-1.7128,-1.7193,-1.6904,-1.6759,-1.6426,0.0,0.0,0.0,0.0,0.0,0.0,0.0,0.0,0.0,0.0,0.0,0.0,0.0,0.0,0.0,0.0,0.0,0.0,0.0,0.0,0.0,0.0,0.0,0.0,0.0,0.0,0.0,0.0,-1.5282,-1.5023,-1.5102,0.0,0.0,0.0,0.0,0.0,0.0,0.0,0.0,0.0,0.0,-1.9896,-2.063,-2.0845,0.0,0.0,-2.1211,-2.1211,-2.1211,-2.1211,-2.1137,-2.094,-2.0801,0.0,0.0,0.0,0.0,0.0,0.0,0.0,0.0,0.0,0.0,0.0,0.0,0.0,0.0,0.0,0.0,0.0,0.0,0.0,0.0,0.0,0.0,0.0,0.0,0.0,0.0,0.0,0.0,0.0,0.0,0.0,0.0,0.0,0.0,0.0,0.0,0.0,0.0,0.0,0.0,0.0,0.0,0.0,0.0,0.0,0.0,0.0,0.0,0.0,0.0,0.0,0.0,-1.4322,-1.4838,-1.5569,-1.5998,-1.6168,-1.66,-1.6717,-1.6465,-1.6382,-1.6015,0.0,0.0,0.0,0.0,0.0,0.0,0.0,0.0,0.0,0.0,0.0,0.0,0.0,0.0,0.0,0.0,0.0,0.0,0.0,0.0,0.0,0.0,0.0,0.0,0.0,0.0,0.0,0.0,-1.539,-1.517,-1.5026,0.0,0.0,0.0,0.0,0.0,0.0,0.0,0.0,0.0,0.0,-2.0089,-2.0622,-2.0959,-2.1211,-2.1211,-2.1211,-2.1211,-2.1211,-2.1211,-2.113,-2.0903,0.0,0.0,0.0,0.0,0.0,0.0,0.0,0.0,0.0,0.0,0.0,0.0,0.0,0.0,0.0,0.0,0.0,0.0,0.0,0.0,0.0,0.0,0.0,0.0,0.0,0.0,0.0,0.0,0.0,0.0,-0.7597,0.0,0.0,0.0,0.0,0.0,0.0,0.0,0.0,0.0,0.0,0.0,0.0,0.0,0.0,0.0,0.0,0.0,0.0,0.0,0.0,0.0,0.0,-1.3602,-1.4345,-1.4869,-1.5382,-1.5878,-1.5973,-1.5992,-1.591,-1.5649,-1.5108,-1.4275,0.0,0.0,0.0,0.0,0.0,0.0,0.0,0.0,0.0,0.0,0.0,0.0,0.0,0.0,0.0,0.0,0.0,0.0,0.0,0.0,0.0,0.0,0.0,0.0,0.0,0.0,-1.5465,-1.5337,-1.5225,0.0,0.0,0.0,0.0,0.0,0.0,0.0,0.0,0.0,0.0,-1.9831,-2.0307,-2.0635,-2.1006,-2.1211,-2.1218,-2.1211,-2.1211,-2.1218,-2.1211,-2.1203,0.0,0.0,0.0,0.0,0.0,0.0,0.0,0.0,0.0,0.0,0.0,0.0,0.0,0.0,0.0,0.0,0.0,0.0,0.0,0.0,0.0,0.0,0.0,0.0,0.0,0.0,0.0,-0.7119,-0.7095,0.0,0.0,0.0,0.0,0.0,0.0,0.0,0.0,0.0,0.0,0.0,-0.833,-0.8336,0.0,0.0,0.0,0.0,0.0,0.0,0.0,0.0,0.0,0.0,0.0,0.0,-1.331,-1.4037,-1.4575,-1.4948,-1.5131,-1.5456,-1.5563,-1.5382,-1.5442,-1.5096,-1.425,0.0,0.0,0.0,0.0,0.0,0.0,0.0,0.0,0.0,0.0,0.0,0.0,0.0,0.0,0.0,0.0,0.0,0.0,0.0,0.0,0.0,0.0,0.0,0.0,0.0,-1.5804,0.0,0.0,0.0,0.0,0.0,0.0,0.0,0.0,0.0,0.0,0.0,-1.8647,-1.9245,-1.9823,-2.03,-2.0621,-2.1006,-2.1284,0.0,0.0,0.0,0.0,0.0,0.0,0.0,0.0,0.0,0.0,0.0,0.0,0.0,0.0,-2.4436,-2.5189,-2.5525,-2.5684,-2.5684,0.0,0.0,0.0,0.0,0.0,0.0,0.0,0.0,0.0,0.0,0.0,0.0,0.0,0.0,-0.6647,0.0,-0.7104,0.0,0.0,0.0,0.0,0.0,0.0,0.0,0.0,-0.8347,-0.8443,-0.8535,-0.8535,-0.8535,0.0,-0.8388,-0.8271,0.0,0.0,0.0,0.0,0.0,0.0,0.0,0.0,-1.3034,-1.3721,-1.4199,-1.4526,-1.4714,-1.493,-1.5029,-1.4949,-1.4872,-1.4562,-1.4114,-1.3604,-1.3223,0.0,0.0,0.0,0.0,0.0,0.0,0.0,0.0,0.0,0.0,0.0,0.0,0.0,0.0,0.0,0.0,0.0,0.0,0.0,0.0,0.0,0.0,0.0,-1.546,0.0,0.0,0.0,0.0,0.0,0.0,0.0,0.0,0.0,-1.7953,-1.8314,-1.8812,-1.9398,-1.9878,-2.03,-2.0676,0.0,0.0,0.0,0.0,0.0,0.0,0.0,-2.1211,-2.1211,-2.1211,-2.1325,-2.1774,-2.2282,-2.2913,-2.3913,0.0,0.0,-2.5336,-2.5513,-2.5586,-2.5693,-2.5684,-2.5644,-2.5361,-2.5176,-2.5029,0.0,0.0,0.0,0.0,0.0,0.0,0.0,0.0,-0.5008,-0.5695,0.0,-0.669,0.0,0.0,0.0,0.0,0.0,-0.8316,0.0,0.0,-0.8489,-0.8492,-0.8503,-0.8503,-0.8499,-0.8486,-0.836,-0.8337,-0.831,-0.8224,0.0,0.0,0.0,0.0,0.0,0.0,-1.2718,-1.3437,-1.3744,-1.4158,-1.4629,-1.4443,-1.4431,-1.4666,-1.3936,-1.3668,-1.3863,-1.3349,-1.3138,-1.3279,-1.2999,0.0,0.0,0.0,0.0,0.0,0.0,0.0,0.0,0.0,0.0,0.0,0.0,0.0,0.0,0.0,0.0,0.0,0.0,0.0,0.0,-1.4956,0.0,0.0,0.0,0.0,0.0,0.0,0.0,0.0,0.0,0.0,-1.7967,-1.8528,-1.9089,-1.9718,0.0,0.0,0.0,0.0,-2.1218,-2.124,-2.1218,-2.1218,-2.124,-2.1225,-2.1211,-2.1211,0.0,0.0,-2.1979,-2.2035,-2.2395,-2.3553,-2.3816,-2.4239,-2.5226,-2.5374,-2.5401,-2.5635,-2.5684,-2.5684,-2.5654,-2.5391,-2.5234,-0.034,0.0,0.0,0.0,0.0,-0.2226,-0.2664,-0.3147,-0.3805,-0.438,-0.4924,-0.5437,0.0,0.0,0.0,0.0,0.0,0.0,-0.8404,-0.8642,-0.8645,-0.8703,-0.8804,-0.8808,-0.8808,-0.8747,-0.8655,-0.853,-0.8467,-0.8337,-0.8453,-0.885,0.0,0.0,0.0,0.0,-1.2421,-1.299,-1.3593,-1.3966,-1.414,-1.4244,-1.4334,-1.4413,-1.3833,-1.3519,-1.3598,-1.3082,-1.2801,-1.2779,-1.255,0.0,0.0,0.0,0.0,0.0,0.0,0.0,0.0,0.0,0.0,0.0,0.0,0.0,0.0,0.0,0.0,0.0,0.0,0.0,-1.4941,-1.4916,-1.5011,0.0,0.0,0.0,0.0,0.0,0.0,0.0,0.0,0.0,-1.8254,-1.8648,-1.9141,0.0,0.0,-2.03,-2.0621,-2.0998,-2.1291,-2.1518,-2.1357,0.0,0.0,-2.1357,-2.1211,-2.1211,-2.1013,-2.0972,-2.1365,-2.1585,-2.2008,-2.2972,-2.3434,-2.3881,-2.4702,-2.5166,-2.5401,-2.5635,-2.5684,-2.5684,-2.5674,-2.5577,-2.5576,-0.0114,-0.0283,-0.0394,-0.0617,-0.0953,-0.129,-0.1737,-0.2185,-0.2688,-0.3228,-0.3859,-0.4433,-0.5148,-0.5896,-0.643,0.0,0.0,0.0,-0.8468,-0.8801,-0.8747,-0.8797,-0.8878,-0.8937,-0.8851,-0.8842,-0.8693,-0.8543,-0.8397,-0.8252,-0.8385,-0.8683,0.0,0.0,-1.0527,-1.1293,-1.1978,-1.2608,-1.3201,-1.3593,-1.3883,-1.4058,-1.4093,-1.3984,-1.358,-1.3357,-1.3357,-1.294,-1.2668,-1.2614,-1.2388,-1.2274,0.0,0.0,0.0,0.0,0.0,0.0,0.0,0.0,0.0,0.0,0.0,-1.2728,-1.2852,0.0,0.0,0.0,-1.4276,-1.4665,-1.4726,-1.4964,0.0,0.0,0.0,0.0,0.0,0.0,0.0,-1.6904,-1.7551,-1.8086,-1.838,-1.8803,-1.9246,-1.9725,-1.993,-2.0164,-2.0431,0.0,-2.094,-2.1262,-2.1145,-2.1086,-2.1276,-2.1145,-2.0976,-2.0837,-2.0662,-2.0648,-2.0965,-2.1131,-2.1446,-2.2144,-2.2668,-2.3184,-2.3978,-2.4588,-2.5137,-2.5489,-2.5635,-2.5684,-2.5684,-2.5684,-2.5684,0.0,0.0,-0.0282,-0.0392,-0.0392,-0.0673,-0.0953,-0.1234,-0.157,-0.2186,-0.3022,-0.3523,-0.4259,-0.5228,-0.6275,0.0,-0.8227,-0.8272,-0.8502,-0.8868,-0.8851,-0.8903,-0.8903,-0.8844,-0.8828,-0.8686,-0.8547,-0.8411,-0.8323,-0.813,-0.8148,-0.8382,-0.8886,-0.943,-0.9969,-1.0708,-1.1487,-1.2273,-1.2613,-1.3141,-1.3848,-1.3879,-1.3755,-1.3525,-1.326,-1.3083,-1.3071,-1.2856,-1.2681,-1.2692,-1.236,-1.2247,-1.2434,0.0,0.0,0.0,0.0,0.0,0.0,0.0,0.0,0.0,0.0,0.0,0.0,0.0,0.0,-1.358,-1.4133,0.0,-1.4556,-1.5064,0.0,0.0,0.0,-1.6273,-1.6273,-1.6547,-1.6847,-1.7172,0.0,0.0,-1.8387,-1.8907,-1.9389,-1.9742,-1.9793,-1.9879,-2.0194,-2.0205,-2.0285,-2.0613,-2.0691,-2.0684,-2.0713,-2.0698,-2.0596,-2.0347,-2.0161,-2.0303,-2.056,-2.0567,-2.0733,-2.1244,-2.1759,-2.2342,-2.3129,-2.3945,-2.4627,-2.5137,-2.5479,-2.5684,-2.5684,-2.5684,-2.5684,0.0,0.0,-0.0057,-0.0112,-0.0112,-0.0168,-0.0392,-0.0617,-0.0673,-0.1234,-0.213,-0.2456,-0.3428,-0.491,-0.6025,-0.6845,-0.7359,-0.7849,-0.8194,-0.8432,-0.8538,-0.8587,-0.8587,-0.8591,-0.857,-0.8537,-0.8499,-0.8408,-0.8327,-0.8282,-0.8204,-0.8091,-0.8432,-0.8882,-0.9381,-0.9969,-1.0556,-1.1194,-1.2073,-1.286,-1.3573,-1.3604,-1.3574,-1.3513,-1.326,-1.3083,-1.3077,-1.285,-1.2674,-1.2687,-1.2208,-1.2049,-1.2266,-1.1942,0.0,0.0,0.0,0.0,0.0,0.0,0.0,0.0,0.0,-1.2811,-1.308,0.0,-1.3527,0.0,-1.4133,-1.4609,-1.4836,-1.5177,0.0,0.0,-1.6052,-1.6273,-1.6279,-1.6777,-1.7125,-1.7192,-1.766,-1.8084,-1.8363,-1.8757,-1.91,-1.9381,-1.9661,-1.9879,-2.0179,-2.0183,-2.0205,-2.0333,-2.03,-2.03,-2.0347,-2.03,-2.0256,-2.019,-2.0033,-1.9925,-1.9979,-1.9971,-2.0052,-2.0638,-2.1288,-2.203,-2.2828,-2.3628,-2.4332,-2.4883,-2.5391,-2.5684,-2.5684,-2.5684,-2.5684,0.0,0.0,0.0,0.0,0.0,0.0,-0.0112,-0.0224,-0.0224,-0.0561,-0.1234,-0.1907,-0.3011,-0.4417,-0.5353,-0.6179,-0.6889,-0.7364,-0.7829,-0.8272,-0.8292,-0.8377,-0.8535,-0.8535,-0.8452,-0.8391,-0.8391,-0.8313,-0.8174,-0.8167,-0.8126,-0.7992,-0.8137,-0.8386,-0.8687,-0.943,-1.0068,-1.0605,-1.1783,-1.2578,-1.2968,-1.314,-1.315,-1.3157,-1.3012,-1.2934,-1.2934,-1.2789,-1.265,-1.2524,-1.2143,-1.1945,-1.2021,-1.1721,-1.1706,0.0,0.0,0.0,0.0,0.0,0.0,0.0,0.0,0.0,0.0,0.0,-1.3713,-1.3973,-1.4449,-1.4836,-1.513,-1.5418,-1.5651,-1.5764,-1.6195,-1.6522,-1.6657,-1.7177,-1.7562,-1.7542,-1.7914,-1.822,-1.837,-1.8698,-1.8974,-1.9279,-1.9485,-1.9608,-1.9769,-1.9806,-1.9857,-1.9996,-2.0033,-2.0025,-2.0025,-1.9901,-1.9806,-1.9798,-1.9667,-1.9595,-1.9595,-1.9658,-1.9835,-2.0248,-2.0865,-2.1573,-2.2426,-2.3179,-2.3926,-2.4587,-2.5147,-2.5538,-2.5684,-2.5684,-2.5684,0.0,0.0,0.0,0.0,0.0,0.0,0.0,0.0,0.0,-0.0168,-0.0504,-0.1627,-0.2746,-0.3807,-0.448,-0.5431,-0.6485,-0.6816,-0.7362,-0.8113,-0.8061,-0.8193,-0.8399,-0.8431,-0.836,-0.8241,-0.8292,-0.8174,-0.7992,-0.7988,-0.7988,-0.7988,-0.7988,-0.7988,-0.8038,-0.8931,-0.976,-1.0369,-1.1622,-1.2284,-1.2331,-1.2601,-1.2735,-1.268,-1.2699,-1.2705,-1.2705,-1.2705,-1.2602,-1.2373,-1.2083,-1.1857,-1.1821,-1.1545,-1.1564,0.0,-1.1966,0.0,0.0,0.0,0.0,0.0,0.0,0.0,0.0,-1.3693,-1.3926,-1.4432,-1.4823,-1.5169,-1.5378,-1.5658,-1.5825,-1.5838,-1.6292,-1.6736,-1.7038,-1.7578,-1.7877,-1.7921,-1.8164,-1.8321,-1.837,-1.8653,-1.8914,-1.9182,-1.9286,-1.9316,-1.9286,-1.9316,-1.9418,-1.972,-1.9757,-1.9749,-1.9735,-1.9469,-1.9308,-1.9294,-1.9308,-1.9272,-1.9294,-1.9487,-1.9776,-2.0086,-2.0506,-2.1121,-2.192,-2.2736,-2.3511,-2.4248,-2.4818,-2.5246,-2.5616,-2.5684,-2.5674,0.0,0.0,0.0,0.0,0.0,0.0,0.0,0.0,0.0,-0.0168,-0.0504,-0.1458,-0.2132,-0.2634,-0.3696,-0.4534,-0.5316,-0.6212,-0.6818,-0.7189,-0.7645,-0.7888,-0.7933,-0.8029,-0.8109,-0.8082,-0.8032,-0.8019,-0.7988,-0.7988,-0.7988,-0.7988,-0.7988,-0.7988,-0.8038,0.0,0.0,0.0,-1.1007,-1.1562,-1.1843,-1.2247,-1.2459,-1.2454,-1.2619,0.0,-1.2705,-1.2705,-1.2681,-1.262,-1.2174,0.0,0.0,0.0,0.0,0.0,0.0,0.0,0.0,0.0,0.0,0.0,-1.3507,-1.3621,-1.3975,-1.4215,-1.4352,-1.4522,-1.5003,-1.5331,-1.5391,-1.5658,-1.5825,-1.5838,-1.6147,-1.6495,-1.6772,-1.7081,-1.7319,-1.7555,-1.7654,-1.7795,-1.8053,-1.8325,-1.8579,-1.8952,-1.9175,-1.9272,-1.9272,-1.9272,-1.9294,-1.9412,-1.9396,-1.9374,-1.9374,-1.9323,-1.9272,-1.9272,-1.9272,-1.9272,-1.9272,-1.9324,-1.9576,-1.9983,-2.0359,-2.0917,-2.1869,-2.2577,-2.3164,-2.3867,-2.4247,-2.4746,-2.5509,-2.5674,-2.5586,0.0,0.0,0.0,0.0,0.0,0.0,0.0,0.0,0.0,-0.0168,-0.0448,-0.0897,-0.1458,-0.2075,-0.2802,-0.3586,-0.4475,-0.5279,-0.6002,-0.6696,-0.7044,-0.7437,-0.7792,-0.7808,-0.7892,-0.7988,-0.7988,-0.7988,-0.7988,-0.7988,-0.7988,-0.7988,-0.7988,-0.7951,-0.7926,-0.8094,-0.8785,-0.9875,-1.0477,-1.0995,-1.1477,-1.1732,-1.2015,-1.2363,0.0,0.0,0.0,0.0,0.0,0.0,0.0,0.0,0.0,0.0,0.0,-1.1409,-1.1696,-1.2069,-1.2459,-1.2706,-1.3048,-1.3567,-1.3733,-1.3988,-1.4275,-1.4436,-1.4643,-1.493,-1.5231,-1.5458,-1.5598,-1.5745,-1.5825,-1.5838,-1.6068,-1.636,-1.6662,-1.6953,-1.7167,-1.7278,-1.7296,-1.7357,-1.7558,-1.7967,-1.8302,-1.8647,-1.9028,-1.9264,-1.9272,-1.9272,-1.9272,-1.9272,-1.9272,-1.9279,-1.9272,-1.9272,-1.9272,-1.9272,-1.9272,-1.9272,-1.9272,-1.9272,-1.948,-1.9983,-2.0197,-2.0613,-2.1452,-2.2062,-2.2635,-2.3249,-2.372,-2.4202,-2.4897,-2.504,-2.5029,0.0,0.0,0.0,0.0,0.0,0.0,0.0,0.0,0.0,0.0,0.0,-0.0392,-0.0841,-0.157,-0.1957,-0.2678,-0.3729,-0.4272,-0.5162,-0.618,-0.6404,-0.6924,-0.7635,-0.761,-0.7743,-0.7988,-0.7988,-0.7988,-0.7988,-0.7988,-0.7988,-0.7985,-0.7961,-0.7923,-0.7773,-0.7911,-0.8435,-0.9402,-0.9899,-1.047,-1.1122,-1.1241,-1.1628,-1.224,-1.2363,-1.2491,-1.2662,-1.2699,-1.2705,-1.2693,-1.2252,-1.1992,-1.1934,-1.1489,-1.1294,-1.1489,-1.1737,-1.2059,-1.2499,-1.2791,-1.3166,-1.366,-1.3948,-1.4215,-1.4496,-1.4563,-1.4816,-1.5351,-1.5444,-1.5571,-1.5758,-1.5825,-1.5825,-1.5825,-1.5974,-1.6232,-1.6553,-1.6787,-1.6947,-1.7026,-1.7045,-1.7016,-1.7041,-1.7491,-1.7948,-1.8231,-1.8643,-1.9103,-1.9118,-1.9184,-1.9272,-1.9272,-1.9272,-1.9272,-1.9272,-1.9272,-1.9272,-1.9272,-1.9272,-1.9272,-1.9272,-1.928,-1.9391,-1.981,-1.9905,-2.0237,-2.0866,-2.1492,-2.1981,-2.2614,-2.3187,-2.3669,-2.4026,-2.4144,-2.4219,0.0,0.0,0.0,0.0,0.0,0.0,0.0,0.0,0.0,0.0,-0.0056,-0.028,-0.0448,-0.0672,-0.1491,-0.2085,-0.2521,-0.3554,-0.4326,0.0,-0.5846,-0.6562,-0.712,-0.7456,-0.7743,-0.7988,-0.7988,-0.7988,-0.7988,-0.7988,-0.7988,-0.7971,-0.786,-0.777,-0.7675,-0.7706,-0.7942,-0.8348,-0.9186,-0.9887,-1.0429,-1.0982,-1.1462,-1.1785,-1.2198,-1.2406,-1.2448,-1.2619,-1.2705,-1.2693,-1.2421,-1.2258,-1.2246,-1.1922,-1.1805,-1.1851,-1.2046,-1.2283,-1.2641,-1.3031,-1.3461,-1.3988,-1.4062,-1.4208,-1.4496,-1.4756,-1.5089,-1.5371,-1.5611,-1.5731,-1.5825,-1.5825,-1.5825,-1.5825,-1.5832,-1.5953,-1.6252,-1.6306,-1.6457,-1.6696,-1.6744,-1.6742,-1.6769,-1.7034,-1.7332,-1.7582,-1.7981,-1.8232,-1.8526,-1.8928,-1.9235,-1.9272,-1.9272,-1.9272,-1.9272,-1.9272,-1.925,-1.9272,-1.9242,-1.9191,-1.9191,-1.9008,-1.9022,-1.9304,-1.9325,-1.9615,-2.0289,-2.1009,-2.1566,-2.2039,-2.2639,-2.3093,-2.314,-2.3256,-2.3413,0.0,0.0,0.0,0.0,0.0,0.0,0.0,0.0,0.0,0.0,0.0,-0.0112,-0.028,-0.0448,-0.0827,-0.1368,-0.1967,-0.2793,-0.3673,-0.4514,-0.5218,-0.5999,-0.6759,-0.69,-0.7241,-0.7746,-0.7793,-0.7842,-0.7988,-0.7988,-0.7948,-0.7906,-0.7689,-0.7539,-0.7472,-0.7413,-0.7513,-0.7785,-0.8581,-0.9292,-0.9907,-1.0467,-1.0982,-1.1467,-1.194,-1.224,-1.24,-1.2577,-1.2705,-1.2705,-1.2457,-1.2312,-1.2306,-1.2024,-1.1886,-1.1886,-1.214,-1.2396,-1.2684,-1.3208,-1.3684,-1.4033,-1.4088,-1.4215,-1.4496,-1.4796,-1.5084,-1.5371,-1.5658,-1.5825,-1.5825,-1.5825,-1.5825,-1.5825,-1.5825,-1.5879,-1.5974,-1.5974,-1.6035,-1.6156,-1.6183,-1.6237,-1.6213,-1.6625,-1.693,-1.7085,-1.7492,-1.8002,-1.8242,-1.8547,-1.8818,-1.8986,-1.9162,-1.9264,-1.9257,-1.9118,-1.903,-1.9008,-1.8862,-1.8767,-1.8745,-1.8599,-1.864,-1.886,-1.8981,-1.9326,-1.9878,-2.0442,-2.0981,-2.1579,-2.2097,-2.2488,-2.2744,-2.2805,-2.2916,0.0,0.0,0.0,0.0,0.0,0.0,0.0,0.0,0.0,0.0,0.0,0.0,-0.0112,-0.028,-0.0384,-0.0762,-0.141,-0.2073,-0.2945,-0.3882,-0.4507,-0.5299,-0.6213,-0.6327,-0.6739,-0.7394,-0.7547,-0.7696,-0.7889,-0.7958,-0.7843,-0.7709,-0.7482,-0.7398,-0.7316,-0.72,-0.7187,-0.7415,-0.8025,-0.8679,-0.9432,-0.9951,-1.0549,-1.1106,-1.1602,-1.1995,-1.2283,-1.2497,-1.2662,-1.2693,-1.2512,-1.2397,-1.2391,-1.221,-1.206,-1.2119,-1.2288,-1.2486,-1.2796,-1.3319,-1.3737,-1.3997,-1.4082,-1.4182,-1.4409,-1.4689,-1.5017,-1.5351,-1.5591,-1.5745,-1.5812,-1.5825,-1.5825,-1.5825,-1.5825,-1.5825,-1.5825,-1.5825,-1.5825,-1.5825,-1.5825,-1.5832,-1.5872,-1.6183,-1.6511,-1.6656,-1.7169,-1.7688,-1.794,-1.804,-1.8214,-1.8533,-1.8847,-1.9001,-1.9038,-1.8855,-1.8701,-1.8672,-1.8496,-1.8394,-1.8335,-1.8277,-1.8238,-1.8476,-1.8694,-1.8976,-1.9375,-1.9929,-2.0419,-2.0943,-2.1514,-2.2095,-2.2467,-2.245,-2.2471,0.0,0.0,0.0,0.0,0.0,0.0,0.0,0.0,0.0,0.0,0.0,0.0,0.0,-0.0056,-0.0271,-0.0482,-0.064,-0.1341,-0.2032,-0.269,-0.3643,-0.4547,-0.5358,-0.6044,-0.6589,-0.6895,-0.7347,-0.759,-0.7627,-0.7746,-0.7689,-0.7441,-0.7429,-0.7299,-0.7136,-0.7102,-0.7095,-0.7139,-0.7459,-0.8032,-0.8955,-0.9646,-1.0207,-1.0674,-1.1111,-1.1553,-1.2037,-1.2289,-1.2534,-1.2662,-1.2674,-1.2662,-1.2656,-1.2632,-1.2626,-1.262,-1.2644,-1.2796,-1.3057,-1.3294,-1.3525,-1.3737,-1.3955,-1.4102,-1.4148,-1.4389,-1.4803,-1.5237,-1.5404,-1.5538,-1.5738,-1.5764,-1.5812,-1.5825,-1.5825,-1.5825,-1.5825,-1.5825,-1.5825,-1.5825,-1.5825,-1.5825,-1.5832,-1.5926,-1.6035,-1.6266,-1.66,-1.6927,-1.718,-1.7392,-1.7633,-1.7865,-1.8189,-1.8386,-1.843,-1.8386,-1.835,-1.8343,-1.8313,-1.8225,-1.8152,-1.8006,-1.7867,-1.7934,-1.8145,-1.8395,-1.8761,-1.9266,-1.9943,-2.027,-2.086,-2.1564,-2.1878,-2.1931,-2.1982,0.0,0.0,0.0,0.0,0.0,0.0,0.0,0.0,0.0,0.0,0.0,0.0,0.0,0.0,-0.0108,-0.0267,-0.0426,-0.0925,-0.1515,-0.2169,-0.2925,-0.3731,-0.4485,-0.5138,-0.5737,-0.6292,-0.6692,-0.7099,-0.7443,-0.7526,-0.7489,-0.7419,-0.7282,-0.72,-0.7098,-0.7095,-0.7095,-0.7095,-0.737,-0.7768,-0.834,-0.9122,-0.9864,-1.0424,-1.0982,-1.151,-1.1952,-1.224,-1.2491,-1.2662,-1.2705,-1.2705,-1.2705,-1.2705,-1.2705,-1.2705,-1.2705,-1.279,-1.3052,-1.3185,-1.3349,-1.3688,-1.3779,-1.3913,-1.4088,-1.4202,-1.4442,-1.4803,-1.5037,-1.5257,-1.5518,-1.5571,-1.5638,-1.5785,-1.5825,-1.5818,-1.5825,-1.5818,-1.5825,-1.5825,-1.5825,-1.5818,-1.5825,-1.5825,-1.5927,-1.6123,-1.6312,-1.644,-1.6744,-1.6992,-1.7199,-1.7322,-1.7559,-1.7896,-1.816,-1.8116,-1.8043,-1.7984,-1.7845,-1.7728,-1.7728,-1.7647,-1.753,-1.749,-1.7828,-1.8164,-1.8473,-1.8894,-1.9443,-1.9799,-2.0327,-2.0987,-2.1286,-2.1322,-2.1285,0.0,0.0,0.0,0.0,0.0,0.0,0.0,0.0,0.0,0.0,0.0,0.0,0.0,0.0,0.0,-0.0107,-0.0319,-0.0565,-0.1009,-0.1716,-0.227,-0.2976,-0.3681,-0.4282,-0.4935,-0.5639,-0.6089,-0.6654,-0.7267,-0.732,-0.7307,-0.7299,-0.7149,-0.7095,-0.7095,-0.7095,-0.7095,-0.7095,-0.7279,-0.7503,-0.7856,-0.86,-0.934,-1.0081,-1.0727,-1.1289,-1.1817,-1.2118,-1.2406,-1.2619,-1.2662,-1.2668,-1.2602,-1.2596,-1.2596,-1.2608,-1.2668,-1.279,-1.2966,-1.3052,-1.3222,-1.3483,-1.361,-1.3786,-1.3955,-1.4046,-1.4175,-1.4376,-1.4603,-1.4894,-1.5263,-1.5277,-1.5378,-1.5565,-1.5591,-1.5591,-1.5578,-1.5591,-1.5571,-1.5591,-1.5538,-1.5591,-1.5591,-1.5571,-1.5618,-1.5859,-1.5947,-1.6102,-1.6433,-1.665,-1.6805,-1.6972,-1.712,-1.7428,-1.7877,-1.7838,-1.7699,-1.764,-1.7486,-1.7391,-1.7286,-1.7286,-1.7286,-1.7421,-1.7723,-1.788,-1.8071,-1.8473,-1.8883,-1.9402,-1.9894,-2.0269,-2.0503,-2.0606,-2.068,0.0,0.0,0.0,0.0,0.0,0.0,0.0,0.0,0.0,0.0,0.0,0.0,0.0,0.0,0.0,0.0,0.0,-0.0308,-0.0606,-0.0959,-0.1665,-0.2321,-0.2876,-0.363,-0.4332,-0.4935,-0.5639,-0.6421,-0.7143,-0.7076,-0.7028,-0.7119,-0.7102,-0.7095,-0.7095,-0.7095,-0.7095,-0.7095,-0.7139,-0.7275,-0.7547,-0.8028,-0.8727,-0.9554,-1.012,-1.0684,-1.1327,-1.1774,-1.2118,-1.2406,-1.2565,-1.259,-1.2373,-1.2337,-1.233,-1.2367,-1.256,-1.2699,-1.2747,-1.2966,-1.3094,-1.3185,-1.3483,-1.3695,-1.3779,-1.3955,-1.4102,-1.4115,-1.4175,-1.4409,-1.4901,-1.4963,-1.5048,-1.5102,-1.5082,-1.5095,-1.5082,-1.5142,-1.5062,-1.5089,-1.5129,-1.5149,-1.5089,-1.5042,-1.5223,-1.539,-1.5464,-1.563,-1.6027,-1.6217,-1.6419,-1.681,-1.6958,-1.7088,-1.7297,-1.741,-1.7421,-1.7391,-1.7406,-1.7304,-1.7279,-1.7286,-1.7271,-1.7277,-1.7301,-1.7379,-1.759,-1.7856,-1.8261,-1.8676,-1.9071,-1.9405,-1.9823,-2.0106,-2.0244,0.0,0.0,0.0,0.0,0.0,0.0,0.0,0.0,0.0,0.0,0.0,0.0,0.0,0.0,0.0,0.0,0.0,-0.0103,-0.0303,-0.0606,-0.101,-0.1515,-0.207,-0.2826,-0.363,-0.4334,-0.5085,-0.5974,-0.6838,-0.6898,-0.6936,-0.7064,-0.7095,-0.7095,-0.7095,-0.7095,-0.7095,-0.7095,-0.7095,-0.7231,-0.7507,-0.7852,-0.8332,-0.8942,-0.9685,-1.0467,-1.1278,-1.1456,-1.1811,-1.2357,-1.2343,-1.229,-1.2271,-1.2149,-1.2143,-1.2294,-1.2403,-1.253,-1.2674,-1.279,-1.2924,-1.3094,-1.3222,-1.344,-1.3646,-1.3779,-1.3913,-1.4046,-1.4088,-1.4222,-1.4362,-1.4563,-1.4756,-1.4968,-1.5008,-1.4988,-1.5015,-1.5015,-1.5015,-1.5015,-1.5015,-1.5015,-1.4975,-1.5008,-1.5055,-1.5142,-1.5169,-1.5268,-1.5415,-1.5715,-1.603,-1.6258,-1.6657,-1.7026,-1.7073,-1.7254,-1.7286,-1.7286,-1.7264,-1.7172,-1.7128,-1.7047,-1.7004,-1.6866,-1.6817,-1.6899,-1.7082,-1.7372,-1.7707,-1.8061,-1.846,-1.8812,-1.9311,-1.9587,-1.9863,0.0,0.0,0.0,0.0,0.0,0.0,0.0,0.0,0.0,0.0,0.0,0.0,0.0,0.0,0.0,0.0,0.0,0.0,-0.0101,-0.0303,-0.0556,-0.096,-0.1515,-0.212,-0.2876,-0.3772,-0.4674,-0.5652,-0.6593,-0.6705,-0.684,-0.7095,-0.7095,-0.7095,-0.7095,-0.7095,-0.7095,-0.7095,-0.7095,-0.7187,-0.737,-0.7632,-0.7958,-0.8388,-0.9074,-0.9885,-1.0847,-1.1149,-1.1504,-1.1847,-1.1992,-1.1993,-1.2024,-1.1856,-1.1832,-1.2,-1.2137,-1.23,-1.253,-1.2578,-1.2699,-1.296,-1.3052,-1.3222,-1.3483,-1.361,-1.3779,-1.3913,-1.4046,-1.4088,-1.4122,-1.4269,-1.4462,-1.4643,-1.4727,-1.4727,-1.4683,-1.4713,-1.4713,-1.4693,-1.4687,-1.4707,-1.4727,-1.4713,-1.476,-1.4796,-1.4823,-1.4836,-1.5015,-1.5253,-1.5584,-1.5636,-1.6035,-1.6402,-1.6532,-1.668,-1.6941,-1.7023,-1.7106,-1.6989,-1.6866,-1.6785,-1.6668,-1.6463,-1.6411,-1.6453,-1.6622,-1.6873,-1.7207,-1.7572,-1.7919,-1.8273,-1.8665,-1.9073,-1.9402,0.0,0.0,0.0,0.0,0.0,0.0,0.0,0.0,0.0,0.0,0.0,0.0,0.0,0.0,0.0,0.0,0.0,0.0,0.0,0.0,-0.0303,-0.0657,-0.1162,-0.1516,-0.2323,-0.3373,-0.4415,-0.5429,-0.6347,-0.6433,-0.6653,-0.7007,-0.7095,-0.7095,-0.7095,-0.7095,-0.7095,-0.7095,-0.7095,-0.7095,-0.7139,-0.7401,-0.7639,-0.7897,-0.8258,-0.8914,-0.9952,-1.0768,-1.1128,-1.1129,-1.1615,-1.1804,-1.1558,-1.1495,-1.1501,-1.1579,-1.1748,-1.2035,-1.227,-1.2312,-1.2421,-1.265,-1.2899,-1.3063,-1.3179,-1.3483,-1.3646,-1.3737,-1.3913,-1.4082,-1.4088,-1.4115,-1.4142,-1.4144,-1.4231,-1.4195,-1.4155,-1.4115,-1.4102,-1.4148,-1.4182,-1.4108,-1.4108,-1.4182,-1.4295,-1.4469,-1.4529,-1.4596,-1.4827,-1.4986,-1.5078,-1.5212,-1.5493,-1.5791,-1.5925,-1.6063,-1.637,-1.6695,-1.6791,-1.6793,-1.6551,-1.6419,-1.6301,-1.6169,-1.6015,-1.6005,-1.6092,-1.6354,-1.6656,-1.7017,-1.7335,-1.7723,-1.8215,-1.8598,-1.8894,0.0468,0.0289,0.0283,0.0168,0.0,0.0,0.0,0.0,0.0,0.0,0.0,0.0,0.0,0.0,0.0,0.0,0.0,0.0,0.0,0.0,0.0,-0.0303,-0.0707,-0.1111,-0.217,-0.3609,-0.4508,-0.5322,-0.599,-0.6294,-0.6564,-0.6877,-0.7051,-0.7095,-0.7095,-0.7095,-0.7095,-0.7095,-0.7095,-0.7095,-0.7129,-0.7262,-0.74,-0.7517,-0.7919,-0.8384,-0.8723,-0.9683,-1.0357,-1.0751,-1.1072,-1.1222,-1.1208,-1.1206,-1.1297,-1.1471,-1.1561,-1.1724,-1.1999,-1.2053,-1.2121,-1.2373,-1.2523,-1.2746,-1.3021,-1.3228,-1.3355,-1.3483,-1.3701,-1.3828,-1.387,-1.3997,-1.4082,-1.4088,-1.4088,-1.4088,-1.4088,-1.4088,-1.4088,-1.4088,-1.4088,-1.4088,-1.4088,-1.4088,-1.4128,-1.4208,-1.4242,-1.4309,-1.4376,-1.4569,-1.4649,-1.4744,-1.4991,-1.5256,-1.5385,-1.5549,-1.5833,-1.6131,-1.6322,-1.6404,-1.6184,-1.6038,-1.5965,-1.587,-1.5716,-1.5676,-1.571,-1.5861,-1.6167,-1.647,-1.6814,-1.7309,-1.7827,-1.8125,-1.8258,0.0875,0.0574,0.0452,0.028,0.0168,0.0056,0.0,0.0,0.0,0.0,0.0,0.0,0.0,0.0,0.0,0.0,0.0,0.0,0.0,0.0,0.0,0.0,-0.0455,-0.1061,-0.207,-0.341,-0.4199,-0.4931,-0.5698,-0.6028,-0.6394,-0.6757,-0.6925,-0.7054,-0.7095,-0.7095,-0.7095,-0.7095,-0.7095,-0.7095,-0.7112,-0.713,-0.7154,-0.7249,-0.7439,-0.7687,-0.7909,-0.8697,-0.9413,-1.0126,-1.0551,-1.0836,-1.098,-1.1043,-1.1158,-1.1323,-1.1351,-1.1453,-1.1733,-1.1781,-1.185,-1.2113,-1.2258,-1.242,-1.2758,-1.2929,-1.3185,-1.327,-1.3476,-1.3652,-1.3737,-1.3822,-1.3997,-1.4088,-1.4088,-1.4088,-1.4088,-1.4088,-1.4088,-1.4088,-1.4088,-1.4088,-1.4088,-1.4088,-1.4088,-1.4088,-1.4088,-1.4088,-1.4122,-1.4249,-1.4329,-1.4382,-1.4529,-1.4776,-1.4925,-1.5115,-1.5296,-1.5569,-1.5843,-1.5871,-1.5826,-1.5752,-1.5679,-1.5643,-1.5518,-1.5526,-1.5575,-1.5561,-1.5731,-1.6021,-1.6274,-1.6453,-1.6758,-1.7156,-1.7415,0.1283,0.0917,0.0621,0.0504,0.0336,0.0168,0.0,0.0,0.0,0.0,0.0,0.0,0.0,0.0,0.0,0.0,0.0,0.0,0.0,0.0,0.0,-0.0151,-0.0455,-0.1162,-0.1969,-0.2816,-0.3557,-0.4361,-0.5183,-0.5673,-0.6159,-0.6583,-0.6748,-0.6881,-0.7051,-0.7095,-0.7095,-0.7095,-0.7095,-0.7095,-0.7088,-0.6957,-0.6943,-0.6964,-0.6938,-0.707,-0.741,-0.797,-0.8604,-0.934,-1.0127,-1.0547,-1.0781,-1.0999,-1.1086,-1.111,-1.1117,-1.1256,-1.1443,-1.1504,-1.1579,-1.1878,-1.2036,-1.23,-1.239,-1.274,-1.3002,-1.3088,-1.3264,-1.3483,-1.3603,-1.3695,-1.3828,-1.4046,-1.4088,-1.4088,-1.4088,-1.4088,-1.4088,-1.4088,-1.4088,-1.4088,-1.4088,-1.4088,-1.4088,-1.4088,-1.4088,-1.4088,-1.4095,-1.4135,-1.4102,-1.4191,-1.4278,-1.4383,-1.4557,-1.4715,-1.4893,-1.5007,-1.5305,-1.5425,-1.5522,-1.5513,-1.5518,-1.5467,-1.5367,-1.5409,-1.5362,-1.5294,-1.5277,-1.5418,-1.5511,-1.5498,-1.5813,-1.6305,-1.6649,0.2086,0.1581,0.1461,0.1009,0.0448,0.0336,0.0168,0.0,0.0,0.0,0.0,0.0,0.0,0.0,0.0,0.0,0.0,0.0,0.0,0.0,0.0,0.0,-0.0455,-0.101,-0.1716,-0.2516,-0.3221,-0.3983,-0.4711,-0.5276,-0.5711,-0.5991,-0.6526,-0.6792,-0.6881,-0.701,-0.7095,-0.7095,-0.7095,-0.7095,-0.7075,-0.6957,-0.6854,-0.6785,-0.6799,-0.6803,-0.6929,-0.7638,-0.8646,-0.9654,-0.9884,-1.0288,-1.0706,-1.085,-1.0962,-1.1074,-1.1117,-1.1129,-1.1208,-1.1238,-1.1365,-1.1555,-1.1694,-1.1862,-1.2288,-1.2408,-1.2637,-1.2814,-1.3009,-1.3264,-1.3434,-1.361,-1.3786,-1.4039,-1.4088,-1.4088,-1.4088,-1.4088,-1.4088,-1.4088,-1.4088,-1.4088,-1.4088,-1.4088,-1.4088,-1.4088,-1.4088,-1.4088,-1.4088,-1.4088,-1.4088,-1.4088,-1.4171,-1.4151,-1.4228,-1.4348,-1.4474,-1.4537,-1.4776,-1.5007,-1.5189,-1.5349,-1.5369,-1.5389,-1.5309,-1.5287,-1.5119,-1.501,-1.4976,-1.4904,-1.4971,-1.5065,-1.5409,-1.5872,-1.6067,0.3002,0.2299,0.2075,0.157,0.0953,0.0561,0.0336,0.0168,0.0,0.0,0.0,0.0,0.0,0.0,0.0,0.0,0.0,0.0,0.0,0.0,0.0,0.0,-0.0455,-0.0758,-0.1313,-0.2067,-0.2745,-0.3422,-0.4155,-0.4797,-0.525,-0.5704,-0.6121,-0.6479,-0.6792,-0.6925,-0.701,-0.7095,-0.7095,-0.7095,-0.7085,-0.696,-0.6854,-0.6705,-0.6718,-0.6684,-0.6937,-0.7488,-0.836,-0.9236,-0.969,-1.0067,-1.04,-1.0663,-1.085,-1.0962,-1.1037,-1.1117,-1.1117,-1.1117,-1.1184,-1.1347,-1.1405,-1.1627,-1.1932,-1.2071,-1.2258,-1.2487,-1.2662,-1.294,-1.3245,-1.3519,-1.3779,-1.4046,-1.4088,-1.4082,-1.4082,-1.4088,-1.4088,-1.4088,-1.4088,-1.4088,-1.4088,-1.4088,-1.4088,-1.4088,-1.4088,-1.4088,-1.4088,-1.4088,-1.4088,-1.4088,-1.4088,-1.4124,-1.4124,-1.4201,-1.4279,-1.4321,-1.4482,-1.4699,-1.4914,-1.5179,-1.5325,-1.5345,-1.5258,-1.5126,-1.4922,-1.4721,-1.4467,-1.4437,-1.4546,-1.4675,-1.4914,-1.5253,-1.5446,0.3866,0.3138,0.2579,0.2132,0.1739,0.0897,0.0504,0.0334,0.0165,0.0,0.0,0.0,0.0,0.0,0.0,0.0,0.0,0.0,0.0,0.0,0.0,0.0,-0.0303,-0.0455,-0.0909,-0.1565,-0.2119,-0.2808,-0.3599,-0.4184,-0.4835,-0.5415,-0.563,-0.6077,-0.6571,-0.6748,-0.6925,-0.7054,-0.7095,-0.7095,-0.7082,-0.6984,-0.6892,-0.6702,-0.6552,-0.6699,-0.6983,-0.7373,-0.7868,-0.8589,-0.9387,-0.9765,-0.9954,-1.0481,-1.0781,-1.0856,-1.0999,-1.1117,-1.1117,-1.1117,-1.1117,-1.1184,-1.1359,-1.1471,-1.1573,-1.1742,-1.1992,-1.2252,-1.227,-1.2533,-1.2925,-1.3355,-1.3616,-1.3805,-1.39,-1.3981,-1.4008,-1.4048,-1.4088,-1.4088,-1.4088,-1.4088,-1.4088,-1.4088,-1.4088,-1.4088,-1.4088,-1.4088,-1.4088,-1.4088,-1.4088,-1.4088,-1.4088,-1.4088,-1.4088,-1.4124,-1.4124,-1.4166,-1.4363,-1.4552,-1.4726,-1.4975,-1.5184,-1.5287,-1.5133,-1.4915,-1.4699,-1.4421,-1.4159,-1.4029,-1.4104,-1.408,-1.4126,-1.4548,-1.482,0.4273,0.3757,0.3419,0.2803,0.2132,0.1682,0.1058,0.044,0.0324,0.0213,0.0,0.0,0.0,0.0,0.0,0.0,0.0,0.0,0.0,0.0,0.0,0.0,0.0,-0.0303,-0.0707,-0.1263,-0.1617,-0.2275,-0.3075,-0.3652,-0.4196,-0.4862,-0.5411,-0.5899,-0.6216,-0.6615,-0.6792,-0.6881,-0.7007,-0.7095,-0.7095,-0.7058,-0.6913,-0.6712,-0.6491,-0.6503,-0.6732,-0.7065,-0.7484,-0.805,-0.8732,-0.9382,-0.9841,-1.0293,-1.0594,-1.0775,-1.0962,-1.1074,-1.1117,-1.1074,-1.1117,-1.1129,-1.119,-1.1254,-1.1477,-1.1525,-1.17,-1.1898,-1.2005,-1.2174,-1.251,-1.2849,-1.309,-1.3231,-1.338,-1.3447,-1.348,-1.3808,-1.4001,-1.4062,-1.4062,-1.4082,-1.4082,-1.4088,-1.4088,-1.4088,-1.4088,-1.4088,-1.4088,-1.4088,-1.4088,-1.4088,-1.4088,-1.4082,-1.4062,-1.4035,-1.3968,-1.3935,-1.4081,-1.4207,-1.442,-1.4639,-1.4844,-1.4972,-1.4973,-1.475,-1.4428,-1.4201,-1.3946,-1.383,-1.3711,-1.382,-1.3928,-1.4137,-1.4317,0.5155,0.4596,0.4201,0.3586,0.2799,0.2058,0.1379,0.0817,0.0479,0.0262,0.0,0.0,0.0,0.0,0.0,0.0,0.0,0.0,0.0,0.0,0.0,0.0,0.0,-0.0151,-0.0455,-0.0859,-0.1212,-0.1829,-0.2406,-0.3084,-0.373,-0.4312,-0.4966,-0.5455,-0.5905,-0.6305,-0.6479,-0.6656,-0.6833,-0.6966,-0.6966,-0.7048,-0.6957,-0.6705,-0.6467,-0.6416,-0.6641,-0.6872,-0.7249,-0.7706,-0.8318,-0.9003,-0.9544,-0.9992,-1.0293,-1.0513,-1.0812,-1.0925,-1.0962,-1.1037,-1.1117,-1.1117,-1.1117,-1.119,-1.1292,-1.1335,-1.1429,-1.1621,-1.1751,-1.1854,-1.2267,-1.2458,-1.2644,-1.2889,-1.3002,-1.3081,-1.322,-1.35,-1.3748,-1.3821,-1.382,-1.3955,-1.4008,-1.4015,-1.4068,-1.4055,-1.4082,-1.4088,-1.4088,-1.4088,-1.4088,-1.4088,-1.4088,-1.4075,-1.4048,-1.3968,-1.3793,-1.3741,-1.3675,-1.3757,-1.3856,-1.4153,-1.4465,-1.454,-1.4583,-1.4421,-1.4128,-1.3946,-1.3792,-1.366,-1.363,-1.3688,-1.379,-1.3935,-1.4109,0.6019,0.5427,0.4869,0.4257,0.3522,0.2424,0.1692,0.1246,0.0737,0.0311,0.0,0.0,0.0,0.0,0.0,0.0,0.0,0.0,0.0,0.0,0.0,0.0,0.0,0.0,-0.0151,-0.0404,-0.0804,-0.1328,-0.1874,-0.2512,-0.3245,-0.3826,-0.4389,-0.5013,-0.5591,-0.5902,-0.6169,-0.639,-0.6612,-0.6792,-0.6836,-0.6959,-0.6903,-0.6709,-0.646,-0.6384,-0.6525,-0.6756,-0.7061,-0.745,-0.7983,-0.8556,-0.9089,-0.9657,-0.9954,-1.018,-1.055,-1.0775,-1.085,-1.0962,-1.1037,-1.108,-1.1117,-1.1117,-1.1129,-1.1154,-1.1218,-1.1333,-1.1479,-1.1579,-1.2045,-1.2126,-1.2302,-1.2517,-1.2654,-1.2838,-1.2955,-1.304,-1.3206,-1.348,-1.3547,-1.3647,-1.3801,-1.3874,-1.3961,-1.4028,-1.4055,-1.4075,-1.4068,-1.4082,-1.4082,-1.4088,-1.4088,-1.3961,-1.3908,-1.3707,-1.3553,-1.352,-1.3387,-1.3379,-1.3382,-1.3593,-1.387,-1.4073,-1.4091,-1.3979,-1.3894,-1.3726,-1.3594,-1.3499,-1.3528,-1.3608,-1.3681,-1.3761,-1.3899,0.6134,0.5708,0.5373,0.476,0.3913,0.3136,0.2221,0.1335,0.0942,0.0515,0.0,0.0,0.0,0.0,0.0,0.0,0.0,0.0,0.0,0.0,0.0,0.0,0.0,0.0,0.0,-0.0101,-0.0448,-0.0876,-0.148,-0.2109,-0.276,-0.3559,-0.4076,-0.4701,-0.528,-0.568,-0.5899,-0.6124,-0.6346,-0.6567,-0.6704,-0.6788,-0.6814,-0.6657,-0.6413,-0.6317,-0.6374,-0.6563,-0.6834,-0.7223,-0.7522,-0.7944,-0.8556,-0.9354,-0.9771,-0.9992,-1.0293,-1.055,-1.07,-1.0807,-1.0925,-1.1037,-1.108,-1.1074,-1.1074,-1.1117,-1.1116,-1.1178,-1.1214,-1.1232,-1.132,-1.1519,-1.1577,-1.1753,-1.1985,-1.2218,-1.2287,-1.2452,-1.2694,-1.3087,-1.3187,-1.3333,-1.3507,-1.3647,-1.3694,-1.3794,-1.3895,-1.3948,-1.3988,-1.4028,-1.4068,-1.4075,-1.4088,-1.3908,-1.37,-1.3467,-1.328,-1.326,-1.3153,-1.3006,-1.3022,-1.307,-1.3227,-1.3511,-1.3748,-1.3835,-1.3711,-1.3558,-1.3521,-1.3492,-1.3492,-1.3528,-1.3572,-1.3645,-1.3681,0.6593,0.6214,0.5819,0.5125,0.4306,0.3423,0.2563,0.1732,0.1083,0.0611,0.0253,0.0,0.0,0.0,0.0,0.0,0.0,0.0,0.0,0.0,0.0,0.0,0.0,0.0,0.0,0.0,-0.0196,-0.0482,-0.1095,-0.159,-0.2289,-0.2974,-0.3631,-0.4255,-0.4835,-0.5324,-0.5591,-0.5816,-0.608,-0.6302,-0.6457,-0.6502,-0.6574,-0.6595,-0.6434,-0.6317,-0.6338,-0.6486,-0.6679,-0.6911,-0.7176,-0.7522,-0.8021,-0.8518,-0.9122,-0.942,-0.9911,-1.0218,-1.0368,-1.0475,-1.07,-1.0781,-1.0812,-1.085,-1.0925,-1.0925,-1.0993,-1.1074,-1.1117,-1.1117,-1.1135,-1.1186,-1.1292,-1.1409,-1.1595,-1.1744,-1.1855,-1.204,-1.2318,-1.2626,-1.2834,-1.2994,-1.3253,-1.336,-1.3407,-1.3534,-1.3694,-1.3788,-1.3854,-1.3908,-1.3941,-1.3834,-1.3781,-1.3601,-1.3407,-1.3173,-1.2986,-1.2959,-1.2899,-1.2759,-1.2697,-1.275,-1.2845,-1.2998,-1.3223,-1.3504,-1.3587,-1.3514,-1.3499,-1.3492,-1.3492,-1.3492,-1.3492,-1.3528,-1.3572,0.6988,0.6657,0.6079,0.5471,0.4742,0.3634,0.2788,0.2123,0.1273,0.0708,0.0353,0.0,0.0,0.0,0.0,0.0,0.0,0.0,0.0,0.0,0.0,0.0,0.0,0.0,0.0,0.0,0.0,0.0,-0.0712,-0.1207,-0.1778,-0.2524,-0.3184,-0.3808,-0.4344,-0.5013,-0.5238,-0.5549,-0.5772,-0.5997,-0.6113,-0.6233,-0.6373,-0.6592,-0.638,-0.63,-0.63,-0.6412,-0.6563,-0.6679,-0.6911,-0.718,-0.7407,-0.7718,-0.8174,-0.8699,-0.9344,-0.9652,-0.9846,-1.011,-1.0331,-1.0481,-1.0443,-1.0556,-1.0663,-1.0738,-1.0812,-1.0962,-1.1037,-1.1037,-1.1037,-1.1074,-1.1186,-1.1292,-1.1366,-1.1484,-1.1632,-1.1818,-1.1929,-1.221,-1.2446,-1.2661,-1.2854,-1.306,-1.3106,-1.3206,-1.336,-1.346,-1.3574,-1.3674,-1.3674,-1.3514,-1.338,-1.322,-1.3033,-1.2884,-1.2705,-1.2659,-1.2599,-1.2485,-1.2455,-1.2462,-1.256,-1.2705,-1.2875,-1.3117,-1.3287,-1.3463,-1.3492,-1.3492,-1.3492,-1.3492,-1.3492,-1.3492,-1.3528,0.6988,0.6647,0.6224,0.5689,0.505,0.4062,0.3222,0.2379,0.1526,0.0859,0.0404,0.0,0.0,0.0,0.0,0.0,0.0,0.0,0.0,0.0,0.0,0.0,0.0,0.0,0.0,0.0,0.0,0.0,-0.0473,-0.0919,-0.1488,-0.22,-0.2871,-0.354,-0.4121,-0.4699,-0.5146,-0.5371,-0.5641,-0.5863,-0.6086,-0.622,-0.627,-0.6343,-0.6275,-0.6257,-0.6257,-0.6335,-0.6412,-0.656,-0.6641,-0.6791,-0.698,-0.7176,-0.7411,-0.7868,-0.8475,-0.9198,-0.9354,-0.962,-0.9879,-1.0067,-1.018,-1.0331,-1.0443,-1.0519,-1.055,-1.0556,-1.0738,-1.0812,-1.085,-1.0999,-1.1074,-1.1149,-1.1186,-1.1298,-1.1403,-1.1521,-1.1669,-1.1787,-1.2021,-1.2182,-1.2373,-1.2621,-1.2851,-1.2919,-1.3026,-1.3166,-1.3273,-1.336,-1.34,-1.324,-1.3026,-1.2852,-1.2786,-1.2616,-1.2556,-1.2432,-1.2378,-1.2305,-1.2342,-1.2372,-1.2415,-1.2576,-1.2673,-1.2826,-1.3046,-1.3229,-1.3411,-1.3492,-1.3492,-1.3492,-1.3492,-1.3492,-1.3492,0.7004,0.6837,0.6295,0.5775,0.5193,0.4223,0.3349,0.2553,0.1622,0.101,0.0606,0.0,0.0,0.0,0.0,0.0,0.0,0.0,0.0,0.0,0.0,0.0,0.0,0.0,0.0,0.0,0.0,0.0,-0.0282,-0.0643,-0.1166,-0.1749,-0.2423,-0.3048,-0.3764,-0.4297,-0.4743,-0.5149,-0.5508,-0.5822,-0.6022,-0.6028,-0.5999,-0.6111,-0.6096,-0.6093,-0.6099,-0.6257,-0.6338,-0.6412,-0.6451,-0.6525,-0.6714,-0.683,-0.6988,-0.7176,-0.7633,-0.8208,-0.8746,-0.9046,-0.9344,-0.9501,-0.9657,-0.9809,-1.0067,-1.025,-1.0363,-1.0513,-1.0588,-1.0625,-1.0588,-1.07,-1.0738,-1.0812,-1.0893,-1.0887,-1.0999,-1.1223,-1.1372,-1.1484,-1.1595,-1.1744,-1.1929,-1.2195,-1.2452,-1.2581,-1.2746,-1.2886,-1.2946,-1.3012,-1.3025,-1.2998,-1.2732,-1.2505,-1.2485,-1.2398,-1.2412,-1.2358,-1.2358,-1.2305,-1.2305,-1.2342,-1.2378,-1.2452,-1.2562,-1.2709,-1.2856,-1.3083,-1.3339,-1.3419,-1.3492,-1.3492,-1.3492,-1.3492,-1.3492,0.6923,0.684,0.6358,0.5891,0.544,0.4383,0.3525,0.2829,0.1869,0.1162,0.0707,0.0,0.0,0.0,0.0,0.0,0.0,0.0,0.0,0.0,0.0,0.0,0.0,0.0,0.0,0.0,0.0,0.0,0.0,-0.0412,-0.0852,-0.1346,-0.2109,-0.2691,-0.3272,-0.3987,-0.4612,-0.5146,-0.5508,-0.5777,-0.5913,-0.5875,-0.5843,-0.5897,-0.5864,-0.5856,-0.587,-0.606,-0.618,-0.6219,-0.63,-0.6374,-0.6528,-0.6563,-0.6679,-0.683,-0.7138,-0.7407,-0.794,-0.8356,-0.8694,-0.8889,-0.9051,-0.9316,-0.9614,-0.9836,-0.9986,-1.0105,-1.0212,-1.0212,-1.0288,-1.0293,-1.0331,-1.0368,-1.0368,-1.0368,-1.0368,-1.0594,-1.0812,-1.0887,-1.1037,-1.126,-1.1484,-1.1787,-1.2005,-1.224,-1.2421,-1.2581,-1.2652,-1.2703,-1.2697,-1.2665,-1.2565,-1.2371,-1.2351,-1.2318,-1.2311,-1.2305,-1.2305,-1.2305,-1.2305,-1.2305,-1.2342,-1.2378,-1.2445,-1.2562,-1.2709,-1.301,-1.3266,-1.3346,-1.3419,-1.3455,-1.3492,-1.3492,-1.3492,0.6747,0.6592,0.6342,0.6022,0.5679,0.4782,0.389,0.3128,0.2269,0.1463,0.0758,0.0,0.0,0.0,0.0,0.0,0.0,0.0,0.0,0.0,0.0,0.0,0.0,0.0,0.0,0.0,0.0,0.0,0.0,-0.0273,-0.0674,-0.1166,-0.184,-0.2557,-0.3272,-0.3985,-0.4656,-0.5191,-0.5552,-0.5688,-0.5786,-0.5808,-0.5817,-0.5737,-0.5772,-0.5762,-0.5646,-0.5828,-0.5941,-0.5941,-0.6103,-0.6183,-0.6222,-0.6257,-0.6374,-0.6525,-0.6602,-0.683,-0.7207,-0.7668,-0.805,-0.836,-0.8627,-0.8818,-0.9046,-0.9079,-0.9198,-0.943,-0.9576,-0.9652,-0.9728,-0.9809,-0.9809,-0.9803,-0.9803,-0.9798,-0.9803,-0.9916,-1.0105,-1.0255,-1.0438,-1.0663,-1.0812,-1.1037,-1.1601,-1.1837,-1.2059,-1.2241,-1.2326,-1.2364,-1.2368,-1.2361,-1.2385,-1.2318,-1.2318,-1.2305,-1.2305,-1.2305,-1.2305,-1.2305,-1.2305,-1.2305,-1.2305,-1.2305,-1.2378,-1.2452,-1.2562,-1.2826,-1.3046,-1.32,-1.3309,-1.3382,-1.3455,-1.3492,-1.3492,0.6616,0.646,0.6359,0.6103,0.5592,0.4951,0.4182,0.3379,0.2572,0.1564,0.0556,0.0,0.0,0.0,0.0,0.0,0.0,0.0,0.0,0.0,0.0,0.0,0.0,0.0,0.0,0.0,0.0,0.0,0.0,0.0,0.0,-0.0942,-0.1615,-0.2332,-0.3092,-0.4074,-0.4788,-0.5102,-0.5508,-0.5688,-0.5708,-0.5657,-0.5621,-0.5538,-0.558,-0.553,-0.5461,-0.564,-0.5712,-0.575,-0.5831,-0.5873,-0.5912,-0.5912,-0.6025,-0.6177,-0.6212,-0.6367,-0.671,-0.7134,-0.7561,-0.7787,-0.805,-0.8241,-0.8437,-0.8556,-0.8703,-0.8894,-0.897,-0.9008,-0.9084,-0.9122,-0.9122,-0.916,-0.916,-0.9193,-0.9231,-0.9311,-0.9387,-0.9571,-0.9765,-0.996,-1.0105,-1.0255,-1.0887,-1.1453,-1.1669,-1.1848,-1.2003,-1.2077,-1.2114,-1.215,-1.2194,-1.2194,-1.2194,-1.2231,-1.2305,-1.2268,-1.2268,-1.2305,-1.2305,-1.2305,-1.2305,-1.2305,-1.2305,-1.2378,-1.2489,-1.268,-1.2863,-1.3046,-1.32,-1.3346,-1.3419,-1.3455,-1.3492,0.6462,0.6389,0.6387,0.6084,0.5584,0.5085,0.4431,0.3578,0.2823,0.1765,0.0505,0.0,0.0,0.0,0.0,0.0,0.0,0.0,0.0,0.0,0.0,0.0,0.0,0.0,0.0,0.0,0.0,0.0,0.0,0.0,0.0,-0.0808,-0.1346,-0.2063,-0.2959,-0.4119,-0.4921,-0.5099,-0.5419,-0.5688,-0.5675,-0.5613,-0.5515,-0.544,-0.5457,-0.5368,-0.5336,-0.5401,-0.5521,-0.5559,-0.5598,-0.5601,-0.5601,-0.5598,-0.5673,-0.5747,-0.5864,-0.6022,-0.6367,-0.683,-0.7176,-0.7365,-0.7442,-0.7633,-0.7834,-0.7987,-0.8059,-0.8246,-0.8322,-0.8356,-0.8399,-0.8437,-0.8513,-0.8551,-0.8632,-0.8627,-0.8665,-0.8703,-0.878,-0.8894,-0.9084,-0.9241,-0.9425,-0.9571,-1.0175,-1.0812,-1.1298,-1.1521,-1.1706,-1.1781,-1.1855,-1.1929,-1.2003,-1.204,-1.2083,-1.212,-1.2157,-1.2194,-1.2194,-1.2268,-1.2305,-1.2268,-1.2268,-1.2305,-1.2305,-1.2305,-1.2378,-1.2532,-1.2716,-1.29,-1.3083,-1.3266,-1.3339,-1.3375,-1.3492,0.6392,0.6387,0.6387,0.6084,0.5636,0.534,0.4585,0.3629,0.2925,0.1968,0.0758,0.0,0.0,0.0,0.0,0.0,0.0,0.0,0.0,0.0,0.0,0.0,0.0,0.0,0.0,0.0,0.0,0.0,0.0,0.0,0.0,-0.0763,-0.1346,-0.2019,-0.2648,-0.3989,-0.479,-0.5055,-0.5463,-0.5644,-0.5683,-0.5653,-0.5556,-0.5454,-0.5366,-0.5281,-0.514,-0.5207,-0.5285,-0.5326,-0.5443,-0.5482,-0.5482,-0.5521,-0.5559,-0.5598,-0.5598,-0.5715,-0.5941,-0.6556,-0.6826,-0.6907,-0.7022,-0.7099,-0.718,-0.7296,-0.7407,-0.7676,-0.7633,-0.7668,-0.7744,-0.7825,-0.7902,-0.7944,-0.7983,-0.8016,-0.8016,-0.8016,-0.8093,-0.8127,-0.8284,-0.8479,-0.8703,-0.8965,-0.9496,-1.0137,-1.0775,-1.1111,-1.1298,-1.1409,-1.144,-1.1626,-1.1744,-1.1781,-1.1818,-1.1966,-1.2003,-1.204,-1.2083,-1.212,-1.2157,-1.215,-1.2194,-1.2268,-1.2268,-1.2224,-1.2268,-1.2305,-1.2489,-1.2709,-1.301,-1.3193,-1.3266,-1.3339,-1.3419,0.6539,0.6387,0.6387,0.6189,0.5839,0.5589,0.4937,0.3932,0.2672,0.1564,0.0808,0.0252,0.0,0.0,0.0,0.0,0.0,0.0,0.0,0.0,0.0,0.0,0.0,0.0,0.0,0.0,0.0,0.0,0.0,0.0,0.0,-0.0762,-0.1615,-0.2512,-0.3318,-0.43,-0.4966,-0.5099,-0.5419,-0.5688,-0.5677,-0.5607,-0.5494,-0.541,-0.5295,-0.5178,-0.4995,-0.5093,-0.5132,-0.5132,-0.5249,-0.5249,-0.5249,-0.5251,-0.5287,-0.5365,-0.5401,-0.5518,-0.5712,-0.6057,-0.6328,-0.6447,-0.6641,-0.6718,-0.6795,-0.6945,-0.7022,-0.7099,-0.7096,-0.7169,-0.7207,-0.7211,-0.7249,-0.7249,-0.7249,-0.7249,-0.7246,-0.7288,-0.7326,-0.7365,-0.748,-0.771,-0.794,-0.8169,-0.8661,-0.9046,-0.9609,-1.0325,-1.0625,-1.0775,-1.0881,-1.1217,-1.1409,-1.1477,-1.1552,-1.1595,-1.1669,-1.1706,-1.1781,-1.1818,-1.1892,-1.1929,-1.2003,-1.204,-1.2077,-1.2114,-1.2194,-1.2268,-1.2305,-1.2489,-1.2783,-1.301,-1.3119,-1.3236,-1.3309,0.6692,0.6539,0.6437,0.6289,0.6089,0.5737,0.4985,0.3833,0.237,0.1412,0.0808,0.0353,0.0,0.0,0.0,0.0,0.0,0.0,0.0,0.0,0.0,0.0,0.0,0.0,0.0,0.0,0.0,0.0,0.0,0.0,0.0,-0.1076,-0.1974,-0.2736,-0.3587,-0.4344,-0.4921,-0.5102,-0.5416,-0.5661,-0.5615,-0.5534,-0.5429,-0.533,-0.5224,-0.5132,-0.505,-0.5018,-0.5018,-0.5018,-0.5018,-0.5018,-0.5018,-0.5018,-0.5054,-0.5171,-0.5282,-0.5359,-0.5518,-0.5712,-0.5944,-0.6025,-0.6293,-0.6486,-0.6486,-0.6602,-0.6679,-0.6714,-0.6714,-0.6749,-0.6788,-0.6791,-0.683,-0.683,-0.6903,-0.6903,-0.6903,-0.6942,-0.6942,-0.6942,-0.698,-0.7134,-0.7288,-0.7446,-0.7787,-0.8097,-0.8403,-0.916,-0.9916,-1.0062,-1.025,-1.055,-1.0812,-1.085,-1.0999,-1.1149,-1.126,-1.1378,-1.1409,-1.1409,-1.1595,-1.1669,-1.1744,-1.1811,-1.1885,-1.1966,-1.2157,-1.2231,-1.2268,-1.2342,-1.2489,-1.2746,-1.2936,-1.3083,-1.3163,0.6845,0.6745,0.6539,0.6387,0.6287,0.5784,0.4684,0.323,0.2321,0.1564,0.0808,0.0505,0.0202,0.0,0.0,0.0,0.0,0.0,0.0,0.0,0.0,0.0,0.0,0.0,0.0,0.0,0.0,0.0,0.0,0.0,0.0,-0.1301,-0.2064,-0.2826,-0.3542,-0.4194,-0.4721,-0.5021,-0.5375,-0.5545,-0.5513,-0.5464,-0.534,-0.5257,-0.5167,-0.5105,-0.5045,-0.5018,-0.5018,-0.5018,-0.5018,-0.5018,-0.5018,-0.5018,-0.5018,-0.5054,-0.5204,-0.5246,-0.5323,-0.5479,-0.5559,-0.5715,-0.599,-0.6183,-0.6296,-0.6335,-0.6412,-0.6412,-0.6451,-0.6486,-0.6525,-0.6602,-0.6679,-0.6714,-0.6788,-0.6788,-0.6826,-0.683,-0.6826,-0.6788,-0.6788,-0.6865,-0.6868,-0.7022,-0.7215,-0.7369,-0.7676,-0.8136,-0.8818,-0.9279,-0.9463,-0.9798,-1.0024,-1.018,-1.0368,-1.055,-1.0706,-1.0781,-1.0887,-1.0925,-1.1149,-1.1298,-1.1298,-1.1372,-1.1589,-1.1781,-1.204,-1.2194,-1.2268,-1.2342,-1.2415,-1.2526,-1.2746,-1.2863,-1.2936,0.7144,0.6795,0.6692,0.6589,0.6287,0.5434,0.4334,0.3179,0.2371,0.1564,0.0808,0.0505,0.0252,0.0,0.0,0.0,0.0,0.0,0.0,0.0,0.0,0.0,0.0,0.0,0.0,0.0,0.0,0.0,0.0,-0.0225,-0.0628,-0.1211,-0.2019,-0.2736,-0.3342,-0.3972,-0.4435,-0.4853,-0.5287,-0.544,-0.5428,-0.536,-0.5257,-0.5189,-0.5108,-0.5056,-0.5031,-0.5018,-0.5018,-0.5018,-0.5018,-0.5018,-0.5018,-0.5018,-0.5018,-0.5018,-0.5054,-0.5093,-0.5129,-0.5285,-0.5401,-0.5404,-0.5676,-0.587,-0.5983,-0.6138,-0.6257,-0.6296,-0.63,-0.6374,-0.6412,-0.6451,-0.649,-0.6525,-0.6563,-0.6563,-0.6602,-0.6602,-0.6563,-0.6563,-0.656,-0.656,-0.6563,-0.6679,-0.6834,-0.6868,-0.7022,-0.7446,-0.7829,-0.8327,-0.8746,-0.9046,-0.9349,-0.9539,-0.9695,-0.9879,-1.003,-1.018,-1.0255,-1.0363,-1.0513,-1.0625,-1.0743,-1.0999,-1.1298,-1.1632,-1.1966,-1.2083,-1.2194,-1.2268,-1.2342,-1.2452,-1.2526,-1.2636,-1.2746,0.7394,0.7098,0.6892,0.6592,0.6139,0.5338,0.4384,0.3429,0.2522,0.1716,0.096,0.0657,0.0,0.0,0.0,0.0,0.0,0.0,0.0,0.0,0.0,0.0,0.0,0.0,0.0,0.0,0.0,0.0,0.0,-0.0359,-0.0718,-0.1166,-0.1885,-0.2453,-0.305,-0.3671,-0.4124,-0.4567,-0.492,-0.5223,-0.527,-0.5219,-0.5178,-0.5116,-0.504,-0.5026,-0.5018,-0.5018,-0.5018,-0.5018,-0.5018,-0.5018,-0.5018,-0.5018,-0.5018,-0.5018,-0.5018,-0.5018,-0.5054,-0.5093,-0.5171,-0.5246,-0.5362,-0.5518,-0.575,-0.5902,-0.6099,-0.6257,-0.6257,-0.6296,-0.63,-0.63,-0.6296,-0.6296,-0.6296,-0.6296,-0.6296,-0.6296,-0.6296,-0.6296,-0.6296,-0.6335,-0.6374,-0.6451,-0.6486,-0.6563,-0.6679,-0.6907,-0.7292,-0.7676,-0.8055,-0.8356,-0.8665,-0.8937,-0.9089,-0.9203,-0.9387,-0.9501,-0.9571,-0.9685,-0.9836,-1.0067,-1.0293,-1.0631,-1.1043,-1.1409,-1.1818,-1.1972,-1.2083,-1.2194,-1.2305,-1.2342,-1.2415,-1.2452,-1.2562,0.7646,0.7547,0.6995,0.6545,0.5992,0.5441,0.4738,0.3929,0.2867,0.1965,0.1211,0.0907,0.0499,0.0,0.0,0.0,0.0,0.0,0.0,0.0,0.0,0.0,0.0,0.0,0.0,0.0,0.0,0.0,0.0,-0.0314,-0.0673,-0.1076,-0.1525,-0.2093,-0.2801,-0.3335,-0.3779,-0.414,-0.4622,-0.5015,-0.5122,-0.5114,-0.5127,-0.5045,-0.5021,-0.5018,-0.5018,-0.5018,-0.5018,-0.5018,-0.5018,-0.5018,-0.5018,-0.5018,-0.5018,-0.5018,-0.5018,-0.5018,-0.5018,-0.5057,-0.5018,-0.5093,-0.5168,-0.5282,-0.5476,-0.5786,-0.606,-0.618,-0.618,-0.6257,-0.63,-0.63,-0.63,-0.63,-0.63,-0.63,-0.63,-0.63,-0.63,-0.63,-0.63,-0.63,-0.6296,-0.6374,-0.6374,-0.6374,-0.6451,-0.6563,-0.6791,-0.7138,-0.7442,-0.7744,-0.8055,-0.8327,-0.8403,-0.8556,-0.8742,-0.8851,-0.8927,-0.9117,-0.9349,-0.9582,-0.9846,-1.0293,-1.0781,-1.1229,-1.1601,-1.1787,-1.2009,-1.2231,-1.2305,-1.2305,-1.2305,-1.2342,-1.2415,0.7793,0.7543,0.7042,0.6592,0.6239,0.5541,0.4889,0.423,0.3177,0.2142,0.1307,0.0896,0.0542,0.0,0.0,0.0,0.0,0.0,0.0,0.0,0.0,0.0,0.0,0.0,0.0,0.0,0.0,0.0,0.0,-0.0269,-0.0493,-0.0807,-0.1253,-0.1814,-0.2428,-0.2956,-0.3421,-0.3766,-0.4254,-0.4646,-0.4807,-0.4943,-0.5034,-0.5018,-0.5018,-0.5018,-0.5018,-0.5018,-0.5018,-0.5018,-0.5018,-0.5018,-0.5018,-0.5018,-0.5018,-0.5018,-0.5018,-0.5018,-0.5018,-0.5018,-0.5018,-0.5018,-0.5093,-0.5168,-0.5359,-0.5705,-0.5938,-0.6018,-0.6138,-0.6219,-0.63,-0.63,-0.63,-0.63,-0.63,-0.63,-0.63,-0.63,-0.63,-0.63,-0.63,-0.63,-0.63,-0.63,-0.63,-0.63,-0.6338,-0.6412,-0.6451,-0.6718,-0.6907,-0.7173,-0.748,-0.7714,-0.7829,-0.7983,-0.8212,-0.8327,-0.8403,-0.8632,-0.8894,-0.9316,-0.97,-1.011,-1.0519,-1.1037,-1.1446,-1.1669,-1.1892,-1.2194,-1.2305,-1.2305,-1.2305,-1.2305,-1.2342,0.7892,0.7746,0.7347,0.6942,0.6489,0.5839,0.5166,0.4424,0.3546,0.2504,0.1525,0.112,0.0627,0.024,0.0189,0.0047,0.0,0.0,0.0,0.0,0.0,0.0,0.0,0.0,0.0,0.0,0.0,0.0,0.0,-0.0135,-0.0314,-0.0626,-0.1024,-0.1446,-0.1973,-0.2473,-0.2994,-0.3402,-0.3901,-0.4235,-0.4465,-0.4742,-0.4979,-0.5018,-0.5018,-0.5018,-0.5018,-0.5018,-0.5018,-0.5018,-0.5018,-0.5018,-0.5018,-0.5018,-0.5018,-0.5018,-0.5018,-0.5018,-0.5018,-0.5018,-0.5018,-0.5018,-0.5018,-0.5093,-0.5129,-0.5479,-0.5747,-0.5825,-0.598,-0.606,-0.6257,-0.63,-0.63,-0.63,-0.63,-0.63,-0.63,-0.63,-0.63,-0.63,-0.63,-0.63,-0.63,-0.63,-0.63,-0.63,-0.63,-0.63,-0.6335,-0.6374,-0.6525,-0.6676,-0.7022,-0.7292,-0.7446,-0.7603,-0.7757,-0.7838,-0.7953,-0.8255,-0.8594,-0.9132,-0.9587,-0.996,-1.0406,-1.0925,-1.1298,-1.1558,-1.1892,-1.2187,-1.2268,-1.2305,-1.2305,-1.2305,-1.2305,0.7975,0.7961,0.7641,0.7239,0.6743,0.6192,0.5492,0.4687,0.3846,0.294,0.1999,0.1421,0.0936,0.0558,0.0368,0.0228,0.0,0.0,0.0,0.0,0.0,0.0,0.0,0.0,0.0,0.0,0.0,0.0,0.0,0.0,-0.0179,-0.0445,-0.0701,-0.1074,-0.1469,-0.1975,-0.258,-0.2974,-0.3411,-0.3843,-0.4233,-0.4626,-0.4859,-0.494,-0.4979,-0.5018,-0.5018,-0.5018,-0.5018,-0.5018,-0.5018,-0.5018,-0.5018,-0.5018,-0.5018,-0.5018,-0.5018,-0.5018,-0.5018,-0.5018,-0.5018,-0.5018,-0.5018,-0.5018,-0.5054,-0.521,-0.5479,-0.5709,-0.5825,-0.6018,-0.618,-0.63,-0.63,-0.63,-0.63,-0.63,-0.63,-0.63,-0.63,-0.63,-0.63,-0.63,-0.63,-0.63,-0.63,-0.63,-0.63,-0.63,-0.63,-0.6335,-0.6412,-0.6486,-0.6679,-0.6872,-0.7065,-0.7296,-0.745,-0.7569,-0.7723,-0.7987,-0.8327,-0.8822,-0.9316,-0.9809,-1.0255,-1.0743,-1.1186,-1.1521,-1.1855,-1.215,-1.2194,-1.2194,-1.2305,-1.2305,-1.2305,0.7967,0.7796,0.7442,0.7111,0.6733,0.6059,0.5415,0.4771,0.3863,0.3032,0.2413,0.1877,0.1321,0.0647,0.0454,0.0315,0.027,0.0135,0.0,0.0,0.0,0.0,0.0,0.0,0.0,0.0,0.0,0.0,0.0,0.0,-0.0134,-0.0395,-0.0437,-0.0767,-0.1276,-0.1741,-0.2085,-0.2526,-0.3057,-0.3528,-0.3919,-0.4309,-0.4662,-0.482,-0.494,-0.4979,-0.5018,-0.5018,-0.5018,-0.5018,-0.5018,-0.5018,-0.5018,-0.5018,-0.5018,-0.5018,-0.5018,-0.5018,-0.5018,-0.5018,-0.5018,-0.5018,-0.5018,-0.5018,-0.5018,-0.5057,-0.5326,-0.5595,-0.575,-0.6018,-0.618,-0.6257,-0.63,-0.63,-0.63,-0.63,-0.63,-0.63,-0.63,-0.63,-0.63,-0.63,-0.63,-0.63,-0.63,-0.63,-0.63,-0.63,-0.63,-0.63,-0.63,-0.6335,-0.6412,-0.6486,-0.6676,-0.7026,-0.7219,-0.7334,-0.7488,-0.7795,-0.8102,-0.8479,-0.897,-0.9501,-0.9992,-1.0481,-1.0925,-1.1335,-1.1632,-1.1892,-1.2003,-1.2083,-1.2194,-1.2268,-1.2268]}]]